GFSGL_sfc_30mbdewp_000.txt.gz
Dewpoint
17 14 12 11 11 10 8 8 8 9 9 9 10 11 11 12 12 13 13 14 13 13 13 15 18 20 20 21 22 22 21 21 21 20 20 21 22 23 24 24 25 27 26
14 12 11 10 9 8 8 9 9 9 10 10 11 12 12 13 14 14 14 14 14 14 14 18 20 20 20 22 22 22 22 22 21 21 23 25 25 25 26 29 26 23 21
13 11 10 9 9 10 10 10 11 11 11 12 12 12 13 14 15 15 15 15 15 15 17 19 21 20 20 22 22 22 23 23 24 23 21 22 22 28 24 20 18 17 16
12 11 10 10 10 11 12 12 12 12 11 12 12 13 13 14 14 14 16 16 17 18 19 21 21 20 21 22 21 21 20 20 20 21 25 24 28 23 19 16 15 17 17
12 11 11 12 12 12 13 12 12 12 12 11 12 13 14 13 11 18 18 17 17 17 18 20 20 21 21 21 20 20 21 23 27 27 22 24 23 17 16 17 17 17 20
12 12 13 12 13 13 12 11 10 10 10 12 13 13 13 12 16 17 18 16 15 15 17 19 20 22 22 21 22 21 22 22 22 24 26 22 18 17 18 18 20 23 16
13 13 12 13 12 11 10 9 8 9 12 14 14 13 12 12 15 17 18 17 15 17 19 20 20 20 22 22 23 23 23 23 29 22 20 19 19 20 25 22 20 20 20
12 11 12 11 10 10 9 9 8 11 13 14 13 13 12 11 15 17 20 19 18 18 19 19 20 21 22 21 20 22 28 24 20 18 18 22 25 20 17 18 23 23 22
10 10 11 10 9 9 8 8 10 12 13 13 13 12 11 12 14 18 20 20 19 19 19 20 21 21 22 21 27 27 18 15 15 21 23 18 17 17 19 23 21 19 16
9 10 10 10 9 8 7 9 12 13 13 13 11 11 12 10 14 18 20 19 19 19 20 22 23 21 23 30 20 16 15 15 21 18 15 15 16 17 19 20 23 18 17
10 9 9 8 7 8 10 12 12 12 12 11 11 11 11 12 15 18 20 20 20 21 22 24 23 25 26 18 16 15 16 18 18 14 16 17 18 18 18 20 23 22 19
9 8 8 7 7 10 11 12 12 12 12 12 13 13 14 15 18 18 20 21 23 24 23 21 27 21 17 15 15 16 17 17 15 17 17 17 17 19 20 21 22 23 23
7 6 6 7 11 11 12 11 11 13 13 14 15 15 15 16 16 19 20 21 19 19 22 26 20 16 15 14 15 16 16 16 18 19 18 18 19 20 21 21 22 22 23
5 5 7 9 14 12 12 12 13 14 14 16 16 15 16 16 17 17 19 18 20 23 21 18 15 14 14 15 15 14 15 16 19 19 19 19 18 18 19 21 21 20 21
5 6 7 11 12 12 12 13 15 15 16 16 16 16 16 17 17 18 18 19 19 18 18 14 13 13 14 14 14 15 16 17 19 18 19 18 18 18 19 19 21 21 19
5 7 10 13 12 12 12 13 16 15 16 16 16 16 17 17 17 18 19 18 18 16 14 12 13 14 15 14 15 16 17 17 18 18 18 18 18 18 18 20 20 20 20
6 9 12 12 12 12 13 13 13 14 15 15 14 15 16 16 17 18 18 17 15 15 13 13 14 15 15 15 17 17 17 17 18 17 17 19 19 17 18 18 19 20 19
8 15 13 13 13 13 14 13 14 14 13 12 13 14 14 15 17 18 16 14 13 13 14 13 14 15 16 17 17 17 17 17 16 17 19 18 18 18 18 18 19 20 21
11 14 15 14 13 15 14 14 14 14 13 12 11 11 12 15 17 15 14 13 13 14 13 14 15 17 17 17 17 17 17 17 18 17 17 18 18 19 18 19 20 21 21
12 15 16 15 14 15 15 14 14 12 11 10 10 11 12 17 14 13 13 13 14 13 14 15 16 17 17 17 17 17 16 16 16 16 17 18 18 19 19 20 21 20 20
12 13 16 15 16 16 14 13 12 10 10 10 11 12 15 15 13 13 14 14 14 15 16 17 17 17 17 17 17 16 16 16 16 17 17 18 19 19 20 23 22 22 21
14 15 15 16 16 13 12 10 9 10 10 11 12 13 15 13 13 14 14 14 15 16 17 17 17 17 17 17 17 16 16 15 16 17 18 18 19 20 22 24 22 22 22
16 15 15 14 12 10 9 9 10 11 11 12 13 14 13 13 13 13 14 15 16 17 16 16 17 16 17 18 18 18 17 16 18 19 18 19 21 24 25 23 23 22 22
13 13 12 10 9 10 9 10 10 11 12 13 14 13 13 13 13 14 15 16 16 15 15 15 16 17 17 17 18 19 19 20 21 22 26 28 28 26 25 25 24 24 23
12 10 9 9 9 10 10 10 11 13 14 13 13 14 13 14 15 15 15 15 15 14 14 15 16 17 17 18 18 19 20 25 30 31 31 29 28 27 27 26 26 26 24
10 9 9 9 10 10 11 12 13 13 13 14 14 14 14 15 14 14 14 14 13 13 13 14 16 17 17 18 19 22 26 30 32 32 31 30 28 28 28 27 26 26 25

GFSGL_sfc_30mbdewp_003.txt.gz
Dewpoint
20 17 15 14 12 11 9 9 9 9 9 9 11 12 12 13 13 14 14 14 14 15 15 15 17 20 21 20 21 23 23 23 22 22 23 24 25 24 24 24 26 30 27
15 14 12 11 10 9 9 9 9 9 10 11 12 12 13 14 15 14 14 15 15 15 16 17 19 20 21 21 22 22 22 23 23 24 23 20 20 21 23 28 27 22 19
13 12 10 10 10 10 10 11 11 11 11 12 12 13 14 15 14 14 15 16 17 16 17 18 19 21 20 20 21 22 23 24 22 20 20 21 23 25 24 25 19 17 17
12 11 10 10 11 11 12 12 12 12 12 12 13 14 14 14 13 15 18 18 17 17 17 18 20 21 20 21 21 21 22 21 21 22 25 26 22 26 25 18 15 17 17
12 11 11 12 12 13 13 12 12 12 11 13 14 14 14 13 12 19 20 18 17 16 17 18 19 21 21 20 20 21 20 20 23 27 22 25 21 17 16 17 18 19 22
13 13 13 13 14 14 12 11 10 11 13 15 14 14 13 12 17 19 21 21 18 17 18 19 20 21 21 20 20 21 21 22 23 25 24 19 17 17 18 20 22 19 16
14 14 14 14 13 11 10 9 10 11 14 14 13 13 12 12 17 19 21 20 19 19 19 19 19 19 21 22 23 24 28 31 23 22 17 17 17 20 25 22 21 21 20
14 13 14 13 11 11 10 9 11 13 13 14 13 13 12 12 17 18 20 20 19 19 19 19 19 20 22 22 27 27 23 21 18 16 17 21 23 19 18 19 22 23 22
12 12 12 11 10 10 9 10 12 13 13 13 13 12 12 14 17 19 21 20 19 19 20 20 20 23 23 26 22 19 17 16 16 21 22 19 17 18 19 22 21 19 16
11 11 11 10 9 9 11 12 13 13 12 12 12 13 15 13 16 19 20 20 20 20 21 22 25 22 22 23 18 17 15 16 24 22 15 16 17 18 19 19 22 18 17
11 10 10 9 9 12 12 13 12 12 12 13 14 14 14 15 18 19 21 21 20 21 21 19 21 24 20 18 17 16 17 22 19 15 16 17 18 17 18 20 22 22 19
10 9 8 9 12 12 12 12 12 13 13 14 15 15 16 16 18 19 21 21 21 18 20 22 26 21 18 16 16 17 18 18 15 16 18 17 17 18 19 20 22 23 24
8 7 8 13 12 13 12 11 12 14 15 15 16 16 16 16 17 19 21 21 19 22 23 21 20 17 15 15 16 17 16 15 16 18 17 17 18 19 20 20 21 21 21
6 7 10 11 14 12 12 12 14 15 15 17 16 16 17 17 17 18 19 20 22 20 20 17 15 14 14 15 15 14 15 16 17 18 17 17 17 17 18 19 20 19 20
6 7 10 13 12 12 12 13 16 16 17 17 17 17 16 17 18 19 19 21 18 19 18 14 12 13 14 14 14 14 15 16 17 17 17 17 17 17 18 18 19 20 18
5 7 13 13 12 12 13 13 15 16 17 16 16 16 17 18 18 18 21 18 18 17 15 13 13 14 14 14 15 15 16 16 17 17 17 16 16 17 17 18 18 19 19
6 11 13 13 12 13 14 13 13 14 15 14 14 15 16 16 18 19 18 17 16 15 13 14 14 14 15 15 16 16 16 16 17 17 16 17 18 16 17 17 18 18 18
10 16 13 13 13 14 14 14 13 13 13 12 12 14 14 16 18 18 16 15 13 14 14 13 14 15 15 16 16 16 16 16 16 16 18 17 17 17 17 17 18 18 21
12 13 15 14 14 16 15 14 14 13 12 11 11 11 13 15 18 15 15 13 13 14 14 14 15 16 16 17 16 16 16 16 17 17 16 17 17 17 17 18 19 20 22
11 15 17 16 15 15 14 13 13 11 10 10 10 11 12 17 15 13 13 14 14 14 14 15 15 16 16 16 16 16 16 15 15 15 16 17 17 18 18 19 19 21 21
12 14 16 15 15 15 12 12 10 9 10 10 11 12 15 16 13 13 13 14 14 15 15 15 16 16 16 16 16 15 15 15 15 16 16 17 18 18 19 20 21 23 21
15 14 14 14 14 10 11 9 9 10 11 11 12 13 14 13 13 13 13 14 14 15 16 16 15 16 16 16 16 16 15 14 15 16 17 18 18 19 20 22 24 23 22
13 12 12 11 9 10 10 9 10 11 11 12 13 13 12 13 13 13 13 14 15 15 15 15 16 15 16 17 18 17 16 16 17 18 17 18 19 20 24 24 24 23 22
11 10 9 8 9 10 9 10 10 11 12 13 13 12 13 13 13 13 14 15 14 14 14 15 15 16 16 17 18 19 19 19 20 21 23 25 27 27 26 26 25 24 23
10 9 9 9 9 9 10 10 11 12 13 12 12 13 13 13 14 14 14 14 14 14 13 14 15 16 17 17 17 18 20 25 30 31 31 29 27 27 27 27 25 25 24
9 9 9 9 9 10 11 12 12 12 12 13 13 13 13 13 13 13 13 13 13 12 13 14 15 16 16 17 19 21 26 30 32 33 31 28 28 27 28 27 25 25 23

GFSGL_sfc_30mbdewp_006.txt.gz
Dewpoint
26 22 19 17 15 13 11 10 9 9 9 10 12 12 13 13 14 14 14 14 16 16 16 16 17 18 20 21 21 21 22 23 22 21 21 23 23 20 20 22 23 24 26
19 16 14 13 11 9 9 9 10 10 11 12 12 13 14 14 14 13 14 17 17 17 17 17 17 18 20 21 21 21 22 23 22 21 24 21 20 21 23 25 24 27 27
15 13 11 10 10 10 10 11 11 11 12 12 13 14 14 14 13 13 16 18 18 17 17 17 18 19 20 21 21 21 22 23 23 23 20 21 22 25 23 25 24 22 18
13 12 11 10 11 11 12 12 12 12 12 13 14 14 14 13 12 14 20 20 19 18 18 18 18 19 20 21 21 20 20 20 19 20 21 23 25 26 22 17 15 17 18
12 12 11 12 13 14 13 12 12 12 13 15 14 14 13 12 11 19 21 21 19 18 18 18 19 21 21 20 19 19 20 21 23 26 25 24 19 16 15 16 17 19 20
13 13 13 14 14 13 12 11 11 13 14 14 14 13 12 12 17 21 21 22 20 19 18 19 20 21 20 22 22 23 24 29 25 21 20 17 15 16 16 20 23 19 17
14 14 14 15 13 11 10 10 12 13 14 13 13 13 12 13 18 20 21 22 20 19 20 20 20 20 22 21 24 24 30 23 20 18 16 16 16 20 25 22 21 21 19
14 14 15 13 11 11 9 11 12 13 13 13 12 12 12 13 19 19 21 21 20 20 20 20 20 20 21 23 26 28 21 19 17 17 18 21 24 20 18 19 22 23 22
14 14 13 12 10 10 10 12 13 13 12 12 12 13 13 15 18 20 21 21 20 20 21 21 21 23 23 23 25 21 18 17 16 20 24 20 18 19 20 22 21 19 16
13 12 11 11 9 10 12 12 13 12 12 13 13 14 16 15 18 20 21 21 21 20 21 22 22 22 21 26 20 17 17 16 23 23 15 16 17 18 19 18 20 18 17
11 10 9 10 12 12 12 12 12 12 13 13 15 15 16 17 18 20 21 21 21 20 19 21 23 22 22 19 17 16 17 22 19 15 16 16 17 17 17 19 20 20 18
10 9 10 12 12 12 11 12 12 13 14 14 16 16 17 17 19 19 21 21 21 20 22 22 21 21 18 17 17 18 19 18 15 16 16 17 16 17 18 19 20 21 22
8 9 12 12 12 12 11 12 13 14 14 15 17 17 16 17 17 20 21 21 21 23 21 21 21 18 16 15 16 18 17 15 16 17 17 16 17 18 18 18 19 20 20
7 9 11 16 12 12 12 12 14 15 15 16 17 16 17 17 17 18 19 20 26 20 21 18 17 15 15 15 15 14 15 15 17 18 17 16 16 16 17 17 19 18 19
7 8 12 12 12 12 12 13 15 16 17 17 17 17 16 17 17 19 19 24 18 19 18 15 13 14 14 14 14 14 15 15 16 16 17 16 16 16 16 17 19 19 17
5 9 15 12 12 12 13 13 16 16 16 16 15 16 16 17 18 18 21 18 18 17 16 13 14 14 14 14 14 15 15 16 16 17 16 16 16 16 17 17 17 18 17
8 12 13 13 12 12 14 14 13 13 14 13 14 15 16 16 18 19 18 17 16 16 14 14 14 14 15 15 15 16 15 15 16 16 16 16 17 16 16 16 16 17 17
15 17 13 13 13 13 15 14 13 13 12 11 11 13 14 16 18 19 16 15 13 14 14 14 14 15 15 16 16 16 15 15 15 15 17 17 16 16 15 15 16 17 19
13 13 15 15 14 17 15 13 13 12 11 10 10 11 13 16 18 16 14 13 14 14 14 14 15 15 15 16 16 15 15 15 17 17 15 16 16 16 15 16 17 19 21
11 16 17 16 15 15 14 11 12 10 9 10 10 11 12 16 15 12 13 13 13 14 14 14 14 15 15 15 15 15 15 15 15 15 15 16 16 17 16 17 18 19 20
12 13 15 14 14 14 10 11 10 9 10 10 11 12 15 15 12 12 13 13 13 14 14 14 14 15 15 15 15 15 15 15 15 15 15 16 17 17 18 19 20 21 23
15 12 12 12 12 9 10 10 9 10 10 11 12 13 14 12 12 13 13 13 14 14 14 15 15 15 15 15 15 15 15 15 15 16 17 17 18 18 19 20 22 24 22
11 10 10 9 8 10 10 9 10 11 11 12 13 12 12 12 12 12 13 13 14 14 14 14 15 15 15 16 17 17 16 16 17 18 18 18 19 20 21 24 25 23 22
9 9 8 8 9 10 9 10 10 11 12 13 12 11 12 13 12 12 13 14 14 13 14 14 15 15 15 16 17 18 19 19 20 21 24 26 27 27 27 26 25 24 23
9 8 8 9 9 9 9 10 11 12 12 12 11 12 12 12 12 13 13 13 13 13 12 13 14 15 16 16 16 17 19 24 29 31 31 29 28 28 28 27 24 24 22
9 9 9 9 9 9 10 11 12 11 11 11 12 12 11 12 12 12 12 12 12 11 11 12 14 15 16 16 18 21 25 29 32 33 30 29 28 29 29 27 25 25 23

GFSGL_sfc_30mbdewp_009.txt.gz
Dewpoint
31 28 25 23 20 17 15 13 11 11 11 12 13 13 14 14 15 14 14 16 18 18 18 18 18 18 17 19 20 21 20 20 19 20 20 21 20 20 19 20 22 23 24
25 23 21 17 15 13 11 11 11 11 13 13 14 14 14 14 14 12 15 18 18 18 18 18 18 17 18 19 20 20 20 20 21 21 21 21 19 20 21 23 25 22 20
20 17 15 13 12 11 11 11 12 13 13 14 15 14 14 14 13 12 16 19 20 19 19 18 17 17 17 18 20 20 21 21 21 22 20 20 21 24 25 21 18 15 15
16 14 12 12 11 12 13 13 13 13 14 15 14 14 14 13 12 13 19 21 21 20 20 19 18 18 18 20 21 20 20 19 20 21 23 25 21 20 19 16 15 17 17
14 13 13 13 14 14 13 13 14 15 15 15 14 14 13 12 11 20 22 22 22 20 20 19 19 21 23 22 21 21 21 22 27 26 23 20 18 15 15 16 18 20 20
14 14 15 15 15 14 13 13 15 15 15 14 13 13 13 11 18 22 22 22 22 20 19 19 20 22 22 23 23 23 24 28 27 23 21 16 14 15 17 21 21 20 18
14 15 16 15 14 12 12 13 14 14 14 13 12 13 12 13 20 21 21 21 21 20 20 20 20 20 23 22 23 25 31 25 22 20 16 15 16 20 25 23 21 20 19
15 16 15 13 12 11 12 13 13 13 13 12 12 13 13 14 20 20 22 21 21 21 21 21 21 21 22 23 23 30 24 21 18 17 17 21 25 22 20 20 22 23 21
15 15 13 12 11 12 12 12 13 12 12 12 13 14 14 17 19 21 22 21 21 21 21 21 22 21 21 21 25 24 18 16 16 19 24 22 19 20 20 21 21 19 17
14 13 12 11 11 12 12 12 12 12 12 13 14 15 17 16 19 21 21 20 20 20 21 21 21 22 21 24 21 18 17 16 22 23 16 15 16 17 19 18 20 18 18
12 11 11 12 12 12 12 12 12 13 13 13 15 16 16 17 18 20 21 20 20 21 20 21 20 21 23 19 18 16 17 22 19 15 14 15 16 16 16 18 19 21 18
10 11 12 12 12 11 11 12 13 13 13 14 16 16 16 17 18 19 21 21 21 20 23 20 20 22 19 17 17 18 20 19 15 15 15 16 17 18 19 20 20 21 21
11 11 11 12 12 12 12 12 13 14 14 16 16 16 16 16 17 19 21 21 20 22 20 20 20 18 16 15 16 18 17 15 15 16 16 17 18 19 20 20 20 20 21
11 13 13 11 12 12 13 13 14 15 16 16 16 15 16 16 17 17 19 19 24 19 20 19 17 15 15 15 14 14 14 14 16 17 16 16 16 17 18 19 19 19 19
9 10 12 12 12 12 12 14 16 16 17 16 16 16 15 15 16 19 19 22 19 19 18 15 12 12 13 13 14 14 14 14 16 16 16 16 15 16 17 18 19 19 17
9 14 13 12 12 12 13 13 16 15 16 15 15 16 16 17 18 19 20 19 18 18 15 12 12 13 13 14 14 14 15 16 16 17 16 16 16 17 17 18 18 18 18
10 12 15 12 12 12 14 14 11 11 13 12 13 14 16 16 18 19 19 17 16 16 12 12 13 13 14 15 15 16 16 16 17 16 16 16 17 18 16 16 17 17 17
17 16 13 13 13 14 16 14 12 11 9 8 10 13 14 16 18 18 17 15 12 13 13 13 14 14 14 15 16 16 16 16 16 16 17 18 17 17 16 16 17 17 18
13 15 15 15 14 16 15 12 11 11 8 8 9 10 12 16 18 16 14 12 12 12 12 13 14 14 15 16 16 16 16 16 17 17 16 17 17 17 16 17 18 19 21
14 18 17 15 14 14 13 10 11 8 8 8 9 10 12 15 15 11 12 12 12 12 13 14 14 15 15 16 16 15 15 15 16 16 16 17 17 18 17 18 18 19 20
13 12 14 12 12 12 9 11 9 8 9 9 10 11 15 15 12 11 12 12 12 13 13 14 14 14 15 15 15 15 15 15 16 17 17 17 18 18 19 19 20 21 22
12 10 11 11 9 8 11 9 8 9 10 11 11 12 14 12 11 12 12 12 12 13 14 14 14 14 15 16 16 15 15 15 16 17 17 18 19 20 21 21 22 23 24
9 8 8 8 8 10 9 8 9 10 11 11 12 12 11 11 11 12 12 12 13 14 14 14 14 14 15 17 17 17 16 16 17 18 18 19 20 22 23 24 26 25 23
8 8 8 8 8 9 8 10 10 11 11 11 11 10 11 11 11 11 12 13 13 14 13 13 14 15 15 16 17 18 18 19 20 21 24 27 29 28 28 27 26 25 23
8 8 8 9 8 8 8 10 10 11 11 10 10 10 10 10 11 12 12 13 13 13 12 12 14 15 16 16 16 17 18 24 29 30 32 30 28 28 29 28 26 25 23
8 9 9 8 8 8 10 11 11 10 10 10 11 11 10 11 11 12 12 12 12 12 12 12 14 15 16 16 17 20 25 28 31 34 31 29 28 29 30 27 25 25 23

GFSGL_sfc_30mbdewp_012.txt.gz
Dewpoint
38 31 29 27 25 23 22 20 17 14 14 13 13 13 13 14 14 13 13 15 17 18 19 19 19 18 16 15 15 16 16 16 16 16 16 17 18 18 18 19 20 21 22
32 31 27 25 22 21 18 16 14 13 13 12 12 13 14 13 13 11 13 16 18 18 19 19 19 15 14 14 15 15 16 17 17 18 18 18 18 20 21 20 19 16 15
29 26 24 22 20 17 15 13 13 13 13 13 14 14 13 14 12 11 13 16 18 19 19 19 17 15 14 14 15 17 18 18 19 19 19 20 22 23 21 19 15 14 15
27 25 22 19 17 15 14 13 13 13 14 14 14 14 14 12 12 12 17 19 20 20 21 20 18 16 16 17 19 19 18 18 18 19 22 26 23 21 18 14 14 16 17
23 21 18 16 15 14 14 13 13 15 15 14 14 13 13 12 10 19 21 21 20 19 19 18 17 18 22 23 22 20 20 20 24 25 28 23 21 16 12 15 17 20 20
20 18 16 16 16 15 14 14 16 16 15 14 13 13 13 11 19 23 23 20 19 18 17 17 17 20 19 22 21 22 22 25 28 27 24 19 14 13 15 18 22 21 19
17 17 16 16 15 14 14 15 15 15 14 13 12 12 12 12 20 22 22 20 19 18 19 19 18 18 21 19 21 22 26 29 26 22 19 14 14 17 23 26 22 21 20
17 16 16 15 13 13 13 14 13 13 12 12 11 12 12 12 20 21 22 19 18 18 19 19 18 19 19 21 22 27 27 22 16 16 16 17 22 25 23 20 22 22 22
16 15 14 13 13 13 13 13 12 11 11 11 12 12 11 12 17 21 22 18 17 17 18 17 19 19 21 21 26 26 18 14 15 16 21 24 22 19 20 21 22 21 19
15 14 13 12 13 13 13 11 12 12 11 11 11 12 14 12 15 21 21 19 17 16 16 17 19 21 20 25 22 17 16 15 18 24 18 15 16 16 18 18 21 21 20
13 12 12 13 12 12 11 11 11 11 11 10 10 11 12 13 14 19 21 20 18 17 17 18 18 18 22 20 19 16 15 20 20 17 14 15 15 16 17 20 22 23 21
12 12 12 11 10 10 10 11 12 11 9 9 10 9 11 11 14 16 21 21 21 19 20 18 18 20 20 18 17 17 20 20 16 14 15 15 17 20 21 22 22 23 23
12 12 11 10 10 11 11 12 11 10 9 10 10 10 9 11 12 15 19 19 19 23 19 19 20 19 17 15 15 19 18 15 15 15 16 18 19 20 21 22 23 23 23
11 10 10 10 10 11 12 11 10 9 10 11 10 10 10 11 12 14 16 17 20 18 18 19 16 15 13 14 14 14 14 15 16 17 17 17 17 19 19 21 21 21 21
12 11 11 11 11 11 11 12 12 11 14 13 11 11 11 11 13 18 19 19 19 18 19 15 11 10 11 13 13 14 15 16 17 18 18 17 17 18 19 20 20 21 20
9 9 11 11 11 11 10 9 15 15 16 15 15 15 14 15 17 19 19 20 19 18 16 11 11 12 13 14 14 15 17 18 18 19 18 19 19 19 19 20 20 20 20
11 12 13 11 10 9 10 9 6 5 10 10 12 14 15 16 18 19 19 18 17 15 11 11 12 13 14 15 16 17 18 18 19 19 19 19 20 20 18 19 19 20 20
14 14 11 11 10 11 11 9 5 5 5 2 5 10 13 15 18 19 17 15 10 11 11 12 13 13 14 16 17 18 18 18 18 18 20 20 19 19 19 19 19 20 20
13 14 13 11 11 11 9 6 5 7 4 3 4 6 9 14 16 16 13 11 11 11 11 12 13 14 15 17 18 18 18 18 19 20 19 19 20 20 19 19 20 21 22
17 18 14 8 8 7 6 4 7 5 3 3 5 7 9 13 13 11 10 11 11 11 11 13 13 14 16 17 18 18 18 18 18 18 19 20 20 21 20 20 21 22 22
12 10 13 7 6 5 4 7 5 3 4 6 7 9 14 15 11 10 10 11 11 11 12 13 14 15 17 18 18 18 17 18 18 19 19 20 21 20 21 22 23 24 25
9 7 6 6 5 4 7 6 4 6 7 8 9 10 13 10 9 10 11 11 11 11 13 14 15 16 18 18 18 18 17 17 18 19 19 20 21 22 23 24 25 26 27
6 5 5 4 5 8 5 5 7 8 9 9 10 9 9 9 9 10 10 11 12 13 14 14 15 16 17 19 19 19 18 18 19 20 19 20 21 23 25 27 28 27 24
6 5 4 4 6 7 5 7 8 9 10 10 9 9 8 8 9 10 12 13 13 15 15 15 15 16 17 18 19 20 20 21 21 21 23 26 29 29 29 29 29 27 24
5 5 5 6 6 6 7 8 9 9 10 9 9 9 9 10 11 12 13 14 14 15 15 15 16 17 17 18 18 19 21 23 28 30 31 31 29 29 30 29 27 25 25
6 7 6 6 6 7 8 9 10 9 10 12 11 11 11 11 12 13 14 15 15 15 14 15 17 18 19 19 20 22 25 28 31 33 30 30 29 29 27 26 25 24 24

GFSGL_sfc_30mbdewp_015.txt.gz
Dewpoint
44 37 35 33 32 28 26 24 22 19 19 17 17 16 15 15 15 14 14 15 16 18 19 20 20 20 19 17 17 16 17 17 17 17 18 19 19 19 19 21 23 22 21
40 34 32 30 27 26 23 21 19 18 17 16 15 15 15 14 13 12 12 14 16 17 18 20 21 18 17 15 15 15 16 17 18 18 20 20 20 19 21 24 23 19 18
35 31 27 25 24 22 20 17 17 16 15 15 15 15 14 15 13 12 12 13 16 18 19 19 19 18 16 15 16 17 19 20 20 20 19 20 21 24 27 22 19 18 16
31 28 26 24 20 18 17 17 16 16 15 16 15 15 14 13 13 13 16 18 20 21 21 20 19 18 17 17 20 21 20 21 21 20 21 23 25 28 21 18 15 17 18
29 27 26 22 19 18 17 16 16 17 16 16 15 14 14 13 11 19 21 21 20 19 19 18 18 18 20 22 22 23 22 22 23 25 24 26 23 19 17 16 17 19 20
28 26 21 19 18 18 17 17 18 17 16 15 14 13 13 11 19 23 24 21 19 17 17 16 18 20 19 20 21 21 22 22 25 26 28 22 21 18 16 19 21 23 21
26 23 21 19 18 18 18 18 17 16 15 14 12 12 12 13 20 22 23 21 19 18 19 20 19 18 20 20 20 21 24 24 26 23 20 18 17 17 21 22 24 22 20
24 23 19 19 18 18 17 16 15 14 13 12 11 11 13 13 19 21 22 21 17 17 18 18 18 18 19 20 22 25 26 26 22 17 17 18 20 24 29 28 22 22 21
21 19 18 17 16 16 15 14 13 12 11 10 12 12 11 10 16 20 22 19 16 17 17 16 17 18 19 20 22 25 23 18 17 17 18 22 23 21 20 20 21 21 20
23 17 16 16 16 16 14 12 12 12 11 12 12 12 11 11 12 18 20 19 17 17 17 17 17 19 19 20 22 20 19 18 18 21 22 19 17 17 18 19 21 23 21
15 15 15 15 14 12 11 11 10 12 12 10 9 9 10 11 12 16 19 20 19 19 18 18 20 18 20 21 20 19 18 19 21 20 17 16 16 17 19 21 22 24 22
14 14 13 12 11 11 10 11 12 11 10 8 8 8 9 9 11 13 18 20 20 19 19 21 19 20 20 19 19 17 19 20 18 16 16 16 17 20 21 22 22 23 24
14 13 11 10 10 11 12 12 12 10 8 8 9 9 9 10 10 12 16 18 18 20 21 19 20 19 18 15 15 17 17 16 16 17 18 19 20 20 21 21 22 23 23
12 11 10 10 10 12 13 12 10 9 8 9 8 9 9 9 10 13 17 19 18 21 19 20 18 16 12 13 14 14 15 16 18 20 19 19 19 19 19 20 21 21 22
12 12 12 12 11 11 11 11 11 10 13 12 10 11 10 10 12 18 19 19 20 20 19 18 14 11 12 13 14 15 16 17 19 20 21 20 18 19 20 20 20 22 21
10 10 11 12 12 11 10 9 15 13 15 16 15 15 14 15 16 18 19 19 20 19 17 14 11 13 14 14 15 16 17 19 20 21 20 20 20 20 19 21 21 20 20
11 12 13 12 10 9 9 7 5 9 13 12 9 10 12 15 17 18 19 19 18 15 12 11 12 14 15 15 17 18 18 19 20 20 21 20 20 21 19 19 20 20 20
13 13 12 11 9 10 9 7 4 3 4 2 3 6 9 12 15 18 18 16 10 11 11 12 13 14 15 16 18 19 19 19 19 19 20 21 20 20 20 19 20 20 20
14 13 12 10 10 9 7 5 3 4 3 1 3 5 8 11 16 15 13 10 10 11 11 12 14 15 16 17 19 19 19 19 20 21 19 20 20 21 20 20 20 21 22
18 17 12 6 6 5 4 3 4 3 1 2 4 6 8 13 14 12 10 10 11 11 11 13 15 15 17 18 19 19 19 18 19 19 19 20 20 21 21 21 22 22 22
12 11 11 5 4 4 3 5 5 2 4 5 7 8 12 14 11 9 10 10 11 11 13 14 15 16 17 19 19 19 18 18 18 19 19 20 21 20 21 22 23 24 25
8 6 5 4 3 2 5 6 4 5 7 7 8 9 11 9 8 9 9 10 11 11 14 16 16 17 18 19 19 18 18 17 18 19 19 20 20 21 22 23 24 26 28
5 3 3 2 3 5 5 4 6 7 8 9 9 8 8 7 7 9 10 11 14 15 16 17 17 17 18 20 20 20 18 18 19 20 20 20 20 21 23 26 29 28 26
4 3 2 2 4 6 5 6 7 8 9 9 9 8 7 7 9 10 13 15 16 16 17 17 18 18 19 19 19 20 21 21 22 22 23 24 27 29 28 28 27 26 26
4 3 3 3 5 5 6 7 8 9 9 9 10 10 10 11 12 13 15 16 16 17 17 18 18 19 19 20 20 20 22 25 28 30 31 29 29 29 28 26 26 25 25
4 4 4 4 5 6 7 9 10 9 10 13 13 14 13 13 13 15 16 17 18 17 16 17 18 19 20 20 21 23 26 29 31 31 28 28 28 28 27 27 26 25 24

GFSGL_sfc_30mbdewp_018.txt.gz
Dewpoint
43 41 39 36 33 29 28 26 24 22 21 20 19 18 17 17 16 16 15 16 16 18 19 20 21 22 21 20 18 17 17 17 17 17 18 20 21 21 21 20 20 25 24
38 37 33 33 30 28 25 23 21 20 19 19 18 17 16 15 14 13 13 14 15 17 18 20 21 21 19 19 17 17 17 18 18 19 21 21 21 21 21 24 27 25 21
36 35 32 29 26 25 22 20 20 18 17 16 16 16 15 15 14 13 12 14 16 18 20 20 20 20 19 19 17 19 21 22 22 22 21 21 21 23 25 29 23 19 19
32 31 29 27 25 21 20 19 18 16 16 17 16 16 15 14 14 14 18 20 21 22 22 22 20 19 19 18 20 21 22 22 23 22 22 24 24 25 26 21 19 17 18
28 27 25 23 21 19 18 17 18 18 17 16 16 15 14 14 16 20 24 23 21 20 19 19 18 21 21 22 22 22 23 23 22 23 23 23 26 21 20 20 17 18 19
28 24 21 20 20 19 18 19 18 17 16 16 15 14 14 12 21 24 24 23 22 20 18 18 19 22 21 21 21 21 22 22 23 23 27 22 20 20 18 18 19 20 20
25 26 26 28 28 26 20 20 18 17 16 14 13 12 12 19 22 22 23 23 22 20 19 19 20 19 20 21 21 21 22 24 24 23 21 20 17 18 20 21 23 25 23
30 31 32 33 31 25 19 17 16 15 13 12 12 13 14 18 20 21 22 22 20 18 18 18 18 18 19 20 21 23 25 26 26 22 19 18 20 21 25 27 24 22 21
33 34 32 29 26 22 19 15 13 12 12 12 14 13 11 14 18 18 21 21 19 18 18 18 18 19 20 20 22 22 23 21 20 19 19 22 23 21 20 20 20 20 19
31 30 28 25 18 15 13 13 13 13 13 13 13 12 16 11 14 16 19 20 20 19 19 19 20 20 20 21 21 21 20 19 19 21 22 20 19 18 18 18 21 21 20
33 24 18 16 14 13 12 12 13 13 12 11 10 10 10 12 12 14 17 20 20 20 20 19 21 21 20 21 21 20 19 19 21 21 17 17 17 17 18 20 21 22 21
15 14 13 12 11 11 11 12 12 11 10 9 8 10 10 10 12 14 15 18 20 19 19 21 21 21 21 20 19 17 18 20 17 16 16 17 18 20 20 21 21 21 22
12 12 11 11 12 13 13 12 11 10 9 10 10 10 10 11 11 14 17 18 20 20 21 21 20 20 19 16 15 16 17 16 16 17 20 20 19 20 21 21 21 21 22
11 11 11 11 12 13 12 12 10 9 10 10 10 11 11 12 12 16 19 19 20 20 22 21 20 18 15 14 14 15 16 16 17 18 19 20 20 20 19 20 21 20 20
12 13 13 13 12 11 12 13 12 15 14 13 14 14 13 13 14 18 19 19 20 21 20 19 16 13 14 14 15 15 16 17 18 19 20 20 19 19 19 19 20 21 20
11 13 14 13 12 11 10 10 15 13 13 15 16 15 15 15 17 18 19 19 20 20 18 14 12 13 14 15 15 16 17 18 18 20 20 19 19 19 19 20 20 19 19
13 14 14 12 11 10 9 8 6 8 14 15 11 8 10 12 14 16 19 19 18 15 12 12 13 14 15 16 16 17 17 18 19 19 19 19 19 20 19 18 19 19 19
15 16 12 11 10 10 9 7 5 4 5 4 5 6 9 11 14 17 17 15 11 12 12 12 13 14 15 16 17 17 18 18 18 18 19 20 19 19 19 18 19 19 19
14 13 11 10 10 9 7 5 4 5 4 2 3 7 9 11 16 16 14 11 11 11 12 12 14 15 16 16 17 18 18 18 19 19 18 19 19 19 19 19 20 20 22
18 16 9 7 6 5 4 3 6 4 3 4 6 7 9 13 14 12 10 11 11 11 12 13 14 15 16 17 18 18 18 17 17 17 18 18 19 19 19 20 20 20 21
14 11 8 5 5 4 4 5 5 4 5 7 8 9 13 13 10 9 9 10 11 11 12 14 15 16 17 17 18 18 17 17 17 18 18 18 19 19 20 20 21 22 23
7 6 5 5 4 3 7 8 5 6 7 8 9 10 11 8 7 8 9 10 11 13 15 16 16 17 17 18 18 18 17 17 17 18 18 19 19 20 21 21 22 24 26
4 4 3 3 4 5 6 5 6 8 9 9 10 9 9 8 8 9 11 12 15 16 16 17 17 17 18 19 20 19 18 17 19 20 19 19 20 21 23 26 26 25 24
4 3 3 3 4 7 6 7 8 8 9 9 9 9 10 10 11 11 13 14 16 16 17 18 19 19 19 19 19 19 20 21 21 22 25 27 27 27 26 26 26 25 24
4 4 4 4 5 6 6 7 8 10 10 10 11 13 13 14 13 13 14 16 16 17 18 18 18 18 18 19 19 20 21 25 30 31 31 27 26 27 26 26 26 25 24
4 4 5 5 5 6 7 9 10 11 11 13 14 14 14 14 14 14 14 15 17 17 17 17 18 19 19 19 20 23 27 29 31 34 30 27 26 27 28 27 26 25 24

GFSGL_sfc_30mbdewp_021.txt.gz
Dewpoint
52 46 44 41 38 35 33 31 31 27 25 24 24 23 20 18 17 18 18 17 16 17 19 20 21 22 21 22 19 18 17 18 17 18 19 21 21 21 22 22 22 23 26
45 43 41 38 36 34 31 29 26 25 24 23 21 19 17 17 15 15 14 15 15 17 18 19 20 22 20 20 19 17 18 20 20 19 22 22 22 22 22 23 24 26 26
42 40 36 35 33 29 26 24 24 23 21 21 18 17 16 15 14 13 13 14 17 18 20 20 20 21 20 20 19 18 20 21 22 22 22 23 22 24 25 26 28 23 21
40 37 35 31 27 24 24 22 22 22 19 18 17 17 16 15 14 18 21 22 22 22 21 20 20 20 19 19 19 20 21 22 23 23 23 23 23 24 26 22 21 21 18
36 34 31 27 26 24 23 22 22 22 20 17 16 15 15 16 18 21 24 23 22 21 20 19 19 22 23 22 22 22 22 23 23 22 23 23 24 21 19 20 19 18 19
31 28 26 25 25 26 26 25 25 18 17 16 15 14 13 19 25 26 25 23 22 20 19 20 20 22 21 22 21 20 21 22 23 24 25 22 21 20 19 18 19 20 20
24 24 26 28 30 29 27 24 22 19 16 15 14 14 17 23 24 24 24 22 21 20 19 19 19 19 21 20 22 22 22 23 24 24 23 21 20 19 20 21 24 25 23
31 31 31 32 31 31 31 31 28 25 21 19 13 14 18 23 23 22 24 21 20 19 19 18 18 18 20 22 22 23 23 24 25 24 22 21 20 22 26 24 21 21 21
33 34 35 35 34 33 31 29 28 26 18 13 15 14 17 20 19 20 22 20 20 20 19 20 21 20 21 21 22 21 22 22 21 21 21 23 24 21 21 20 19 19 18
34 34 34 33 31 29 27 22 14 13 14 14 13 12 15 11 16 16 19 20 19 20 20 21 22 21 21 22 22 22 20 19 19 21 22 20 18 19 19 19 19 19 19
34 33 32 28 23 20 15 14 13 13 12 10 10 10 11 12 13 14 16 19 19 20 20 20 21 22 22 22 21 20 18 19 20 16 16 16 17 18 19 20 21 21 20
31 26 19 14 12 12 12 12 12 10 9 9 10 10 11 11 16 15 15 18 20 20 20 20 21 22 21 20 19 17 18 19 16 16 16 18 19 20 20 21 21 22 22
13 12 12 12 13 13 12 11 10 10 10 10 10 10 11 12 12 19 19 19 20 20 20 21 22 21 18 17 16 17 17 16 16 17 18 18 19 20 21 21 21 21 21
11 12 13 13 13 12 12 11 9 10 10 11 11 11 12 13 13 15 19 20 21 20 21 22 20 16 15 15 15 16 16 16 18 18 18 19 19 19 19 19 20 20 20
12 13 15 14 12 12 12 11 13 14 10 9 14 14 14 14 15 19 20 19 20 21 20 18 14 13 14 14 15 15 16 17 18 18 19 18 18 18 19 19 19 19 19
13 13 13 12 12 11 10 11 16 15 14 15 15 14 14 13 15 17 18 19 20 20 14 12 12 13 14 14 15 15 16 17 18 19 18 18 18 18 18 19 20 19 18
14 15 15 12 11 10 9 7 4 6 12 11 9 9 10 12 14 17 18 18 16 14 12 12 13 13 14 15 16 16 16 17 18 18 18 17 17 18 18 18 18 18 18
15 15 11 11 10 9 8 6 4 4 5 3 6 9 11 13 15 18 17 13 11 12 12 12 13 14 14 15 16 16 17 17 17 17 18 19 18 18 17 17 18 18 19
13 11 11 10 10 8 6 4 5 5 3 3 5 8 10 13 16 14 12 11 11 11 12 12 14 14 15 15 16 16 17 17 18 18 16 17 18 18 17 18 18 19 21
15 13 9 6 5 4 4 5 6 4 4 6 7 8 9 14 11 9 10 10 11 11 12 13 14 15 15 15 16 16 16 16 16 16 16 17 18 18 18 18 19 19 20
9 10 10 5 4 4 4 7 6 5 6 7 8 10 14 11 8 8 9 9 11 12 13 15 15 16 16 16 16 16 16 16 16 17 17 17 18 18 19 19 20 21 22
7 5 5 4 3 4 8 7 5 6 8 9 10 10 11 9 8 8 10 11 12 14 16 16 16 16 17 17 17 17 16 16 16 17 18 19 19 20 20 21 23 25 25
4 3 3 3 4 7 6 6 7 8 9 10 10 9 9 10 10 11 11 13 14 15 16 17 17 17 17 18 19 18 17 17 18 19 19 19 21 22 26 26 26 25 24
4 3 3 3 5 7 6 7 7 9 10 10 10 11 12 13 13 13 13 14 15 16 17 18 18 18 18 18 18 19 19 20 21 22 24 27 28 26 26 26 26 26 24
4 3 3 4 5 6 7 7 9 10 11 11 12 13 14 14 14 14 14 14 14 16 17 17 17 18 18 18 18 19 20 24 29 30 32 30 27 26 27 27 27 26 26
4 4 5 5 6 7 7 9 11 11 12 12 14 13 13 14 14 14 13 14 15 15 14 15 15 17 18 18 20 22 26 28 31 33 34 30 28 27 28 29 28 27 27

GFSGL_sfc_30mbdewp_024.txt.gz
Dewpoint
55 57 49 48 46 45 43 41 36 33 30 30 29 29 28 25 22 20 19 18 17 18 20 20 20 21 21 22 21 19 18 18 16 18 19 21 22 22 23 23 23 23 24
53 49 47 45 44 42 40 37 33 29 29 29 28 27 26 24 23 22 19 17 16 17 18 20 20 22 21 21 20 19 18 18 19 18 21 22 23 23 23 23 24 25 25
46 45 43 43 42 40 37 33 30 29 29 29 27 24 20 18 16 15 15 15 16 18 20 20 20 21 20 21 20 19 19 20 21 21 22 23 23 23 24 24 26 25 24
44 42 41 41 39 36 32 31 29 29 29 29 29 27 23 19 15 16 19 21 22 21 21 20 20 20 20 19 19 19 20 21 22 22 23 23 23 24 25 24 20 20 19
40 39 36 33 29 28 28 27 28 28 27 27 29 26 24 22 24 23 23 22 20 19 20 19 19 20 25 22 22 22 22 22 22 22 23 23 24 21 21 20 20 19 19
35 32 30 28 28 30 30 28 27 28 28 27 23 21 22 26 28 27 24 21 20 19 19 19 19 22 22 22 22 21 21 22 22 23 23 23 22 21 20 20 19 20 20
33 31 31 31 29 28 28 29 28 28 27 24 22 19 24 26 26 26 25 21 19 19 19 19 18 18 21 20 22 23 23 24 24 23 23 22 22 22 21 21 23 24 22
33 34 34 32 31 32 32 31 30 28 26 27 25 27 28 28 26 25 23 20 19 20 19 19 19 20 21 22 22 23 24 24 23 24 24 23 22 23 26 25 21 21 21
34 34 34 35 34 34 33 32 32 32 32 30 28 25 25 23 22 23 21 20 19 19 20 20 22 22 22 22 22 22 22 22 23 22 22 23 24 23 21 21 20 20 17
35 35 35 34 34 33 33 32 32 31 25 18 13 13 18 17 20 18 22 20 18 19 20 21 22 22 22 22 23 22 20 19 19 21 19 17 18 18 20 20 19 19 18
34 34 33 33 32 30 28 26 21 16 13 12 11 12 13 12 13 15 16 19 18 20 20 20 20 22 23 22 21 20 18 19 19 16 16 16 17 18 20 21 21 21 19
32 31 28 22 16 14 13 13 12 10 9 9 10 11 11 12 19 18 21 21 21 20 20 20 20 24 22 20 19 18 19 19 16 16 16 17 18 19 20 20 21 21 22
15 13 13 13 13 12 11 10 10 11 10 11 11 10 11 12 13 17 19 20 21 20 21 21 23 21 18 16 16 17 18 16 16 17 18 18 19 19 20 20 21 21 21
13 13 13 12 12 12 12 11 10 11 11 10 10 10 11 12 13 16 19 20 21 20 21 22 19 15 15 15 15 15 16 16 17 18 18 18 18 18 18 19 19 19 19
13 15 15 14 12 11 12 11 11 10 8 9 12 12 12 12 14 18 19 19 20 22 20 14 12 12 14 14 14 15 15 16 17 18 18 18 17 17 18 18 18 18 18
13 13 13 12 11 12 12 15 18 15 16 16 18 15 13 15 15 17 19 19 21 19 13 11 12 13 13 14 14 15 16 16 17 18 18 17 17 17 17 18 19 18 17
14 15 15 11 10 8 7 5 3 7 14 12 10 11 12 14 16 18 19 18 15 14 11 12 12 13 14 14 15 15 15 16 17 17 17 17 17 17 18 16 17 17 17
16 15 11 11 10 8 7 5 4 5 3 2 7 12 12 14 17 18 15 12 10 11 12 12 12 13 14 14 15 15 15 16 16 16 17 18 17 17 16 16 17 17 17
13 12 11 9 8 7 5 4 6 4 3 4 7 9 11 15 17 12 11 10 10 11 12 12 13 14 14 15 15 15 15 15 17 17 15 16 17 17 16 17 17 19 20
12 13 9 7 6 4 4 6 5 4 5 7 8 9 10 13 9 8 9 9 10 11 12 13 14 15 15 15 14 15 15 15 15 16 16 17 18 18 17 17 18 19 20
13 12 10 5 4 4 6 7 5 5 6 8 9 10 14 10 8 8 9 10 11 12 13 15 16 16 15 15 15 15 15 15 15 16 17 18 18 18 20 20 20 21 21
6 5 4 3 3 5 9 6 5 7 8 9 10 10 12 10 9 10 11 11 12 14 15 16 16 16 16 16 16 16 15 15 16 17 18 18 19 20 21 21 23 25 25
4 3 2 3 4 8 6 6 7 8 9 10 10 9 10 11 12 13 13 13 14 14 15 16 17 17 17 18 18 17 16 16 17 19 18 19 21 22 24 25 25 25 25
3 3 2 4 6 6 6 8 7 9 11 10 10 11 13 13 14 14 14 14 14 14 15 16 17 17 17 17 18 19 20 20 20 21 22 25 28 28 27 26 26 26 26
3 2 3 4 5 5 6 7 8 10 11 11 12 13 13 13 13 13 13 13 13 14 14 15 15 15 16 17 17 18 20 24 28 29 30 31 30 28 28 27 28 28 27
3 4 4 5 6 7 8 9 11 12 12 13 13 13 13 13 13 13 13 13 13 13 13 13 14 13 14 16 18 21 25 27 29 31 33 32 30 29 28 29 27 27 27

GFSGL_sfc_30mbdewp_027.txt.gz
Dewpoint
45 49 55 53 52 49 48 45 42 41 40 37 35 34 31 29 26 25 25 23 23 22 21 20 20 21 22 23 23 21 20 19 17 18 18 19 20 22 23 24 24 24 24
48 53 53 49 48 47 46 43 40 39 37 35 33 31 29 28 28 27 24 22 21 21 23 23 21 22 21 22 21 20 19 19 18 17 19 21 22 23 24 23 24 24 25
48 49 48 47 46 46 44 40 39 36 35 33 31 29 28 27 27 28 30 27 23 22 19 19 20 21 21 21 21 20 20 19 20 20 21 23 23 24 23 24 25 25 24
45 45 45 44 44 42 40 38 35 34 32 30 27 27 27 28 28 28 27 23 24 22 22 21 20 21 21 20 19 19 20 20 21 22 22 22 23 24 24 23 20 20 20
41 40 41 40 38 38 35 34 33 33 32 31 30 31 30 30 29 27 26 24 22 20 20 19 20 21 24 24 23 22 22 22 22 21 22 22 23 23 22 21 21 21 21
34 33 33 33 32 32 30 30 29 30 31 32 32 32 32 33 34 32 26 21 19 19 19 19 19 21 22 24 24 24 22 22 22 22 22 23 23 22 21 21 21 21 20
32 31 32 32 31 30 31 32 32 32 31 30 31 32 32 33 31 30 25 21 19 19 19 19 18 19 22 21 23 23 24 24 24 24 23 22 22 22 22 22 23 23 22
34 33 33 33 33 34 33 33 32 32 31 31 31 32 32 33 34 33 28 20 19 19 19 19 20 21 22 23 23 23 23 24 23 23 23 23 24 23 25 26 24 21 21
34 35 36 35 34 34 33 32 32 31 31 32 32 32 32 32 32 30 22 19 18 19 20 21 22 22 23 23 23 22 23 22 23 22 22 23 24 23 21 21 20 20 18
32 33 34 35 33 33 33 33 33 33 32 32 30 30 31 26 24 22 23 19 18 19 20 20 22 21 22 23 23 22 20 19 19 20 20 17 17 17 20 20 19 19 18
34 34 34 34 33 33 33 32 31 29 26 20 14 15 12 14 15 16 18 19 18 20 20 20 20 22 24 24 22 19 19 20 20 16 15 16 17 18 19 20 21 20 19
33 31 30 30 31 27 24 18 14 11 10 10 11 11 12 12 21 21 22 20 21 21 20 20 20 24 24 21 19 18 19 20 16 16 16 17 18 19 19 20 20 21 21
19 17 15 13 13 12 11 10 10 10 10 11 11 10 11 12 12 18 20 21 21 21 21 22 24 22 19 16 16 17 18 16 16 16 18 18 18 19 19 19 20 20 21
13 13 12 12 11 11 11 12 11 11 10 10 10 9 10 12 13 17 19 20 21 20 21 22 18 15 14 15 14 15 15 16 17 18 17 18 18 18 18 19 18 18 18
15 15 13 12 11 11 12 9 7 7 7 9 11 11 11 11 14 18 19 20 21 22 22 13 11 12 13 13 13 14 15 15 17 17 17 17 17 17 17 17 17 18 17
13 12 12 11 13 14 16 17 18 18 18 18 19 16 14 16 16 18 20 20 20 18 14 11 11 13 13 13 13 14 15 16 16 17 16 16 16 16 16 17 18 17 16
14 14 15 10 9 7 6 6 3 9 14 12 13 13 14 15 16 18 19 18 14 14 11 11 12 13 13 14 14 15 15 15 16 16 16 15 16 16 17 16 16 17 16
16 15 11 10 8 7 5 4 4 4 2 2 8 13 13 16 18 18 15 12 9 11 11 11 12 13 14 14 15 15 15 15 15 15 16 17 16 15 15 16 16 17 17
13 11 10 8 8 7 4 5 5 3 3 4 7 9 12 16 17 13 11 9 10 10 11 12 13 14 15 15 15 14 14 14 16 17 15 15 17 17 16 17 17 19 20
14 14 10 8 5 3 5 6 4 4 5 7 8 8 10 13 10 8 8 9 10 11 12 13 14 15 15 15 14 14 14 14 14 15 15 17 18 19 18 19 19 19 19
14 13 10 4 3 3 6 7 5 5 6 8 8 10 14 12 9 9 10 10 11 12 13 14 15 16 15 15 14 14 14 14 14 15 16 17 18 19 20 21 21 21 21
10 8 4 3 3 6 8 6 5 7 8 9 10 10 12 11 11 11 12 12 13 13 14 15 15 15 16 16 15 15 15 15 15 16 17 18 18 19 21 22 22 23 25
4 3 3 3 4 9 6 6 7 8 9 10 10 10 10 12 12 13 13 13 14 14 14 14 14 15 15 16 17 17 16 16 18 18 17 18 20 21 23 25 27 26 26
3 2 2 3 7 6 5 8 7 9 11 11 11 11 12 13 13 13 14 13 13 13 13 14 14 14 14 14 16 18 19 19 20 20 21 22 25 28 30 28 27 27 27
3 2 2 3 4 5 6 7 8 10 11 11 12 13 13 13 13 13 13 13 13 13 13 13 14 13 13 13 14 16 19 22 26 28 29 29 30 30 29 28 28 28 26
3 3 4 5 6 6 7 9 11 12 11 11 13 13 12 12 13 13 12 12 12 13 13 13 13 13 13 13 15 18 23 26 27 28 30 31 30 30 30 29 28 27 26

GFSGL_sfc_30mbdewp_030.txt.gz
Dewpoint
45 46 48 51 54 54 53 51 49 46 44 43 41 40 37 35 31 29 26 24 24 24 24 23 22 23 23 23 23 22 21 21 18 18 18 19 19 20 22 23 25 24 24
44 46 49 51 50 51 50 46 43 43 40 40 39 37 34 31 27 26 25 27 28 28 27 27 25 22 22 23 23 21 20 20 19 18 19 19 21 22 23 23 24 24 24
43 45 47 49 48 47 46 42 41 40 39 39 37 33 30 29 28 28 28 29 29 30 30 30 26 22 21 22 21 21 21 20 19 19 20 22 23 23 23 24 24 25 25
43 44 45 45 46 45 42 40 38 38 36 34 32 30 30 30 31 32 31 30 30 29 28 26 25 23 23 22 21 19 19 20 20 21 22 22 22 23 24 24 22 21 21
40 41 41 42 42 39 37 35 34 32 31 31 31 32 32 33 33 33 32 31 31 28 27 25 23 24 25 24 22 23 22 22 22 21 21 22 22 23 23 22 21 21 22
33 34 34 34 34 34 33 33 33 32 33 33 33 34 34 34 34 32 28 27 27 26 27 26 23 21 23 24 24 24 24 23 22 21 21 22 23 22 22 22 21 21 20
32 32 31 31 31 32 32 33 33 33 33 34 34 34 35 36 35 33 31 29 29 28 23 19 19 20 23 20 22 24 24 24 25 24 24 23 21 22 22 22 23 23 22
34 33 33 33 34 34 34 33 33 33 33 33 33 33 33 35 35 34 32 28 25 24 21 21 22 21 22 23 23 23 24 24 24 24 23 23 23 23 24 26 24 22 22
34 35 35 35 34 33 32 32 32 32 32 32 32 32 31 32 34 31 27 20 19 19 20 21 22 22 23 23 23 23 23 22 22 22 22 24 24 23 21 21 20 20 17
32 32 34 33 33 32 32 32 32 32 31 31 31 32 33 32 33 31 22 18 17 19 20 20 22 21 22 23 24 23 19 19 19 21 20 17 17 17 20 20 19 18 18
34 33 33 33 33 32 32 32 31 30 29 29 28 26 25 18 19 19 25 19 18 20 20 20 20 22 24 24 24 19 19 20 19 16 15 16 17 18 19 20 20 19 18
32 32 32 32 32 31 30 28 26 18 13 12 12 12 13 18 23 23 22 20 22 21 20 20 21 24 24 22 19 18 19 19 15 15 16 17 18 18 19 19 20 20 21
19 17 17 15 14 13 11 11 11 11 11 11 11 11 11 11 12 19 21 21 21 21 21 23 25 21 18 16 16 17 17 15 16 16 17 18 18 18 19 19 19 20 20
13 12 12 11 11 12 12 12 11 11 11 10 9 8 9 12 13 17 19 20 21 21 23 20 17 15 15 14 14 14 15 15 17 17 17 17 17 17 18 18 18 18 18
14 13 12 11 11 10 9 6 7 8 8 8 9 9 9 11 14 18 20 20 21 21 20 13 11 12 13 12 13 13 14 15 16 17 16 16 16 16 17 17 17 17 16
12 12 12 13 15 16 17 18 20 19 19 19 17 15 14 16 17 18 20 20 20 17 13 11 11 12 12 13 13 14 15 15 15 16 15 15 15 15 16 17 18 17 16
13 13 14 10 10 9 10 9 8 13 14 15 16 16 16 16 17 19 19 17 14 13 10 11 11 12 13 14 14 14 14 15 15 15 14 14 15 15 17 16 17 17 17
15 14 10 8 7 5 4 4 4 2 -0 1 9 14 15 17 18 18 16 11 8 10 11 11 12 13 14 15 15 14 14 14 14 14 14 15 16 16 15 16 18 18 17
12 11 9 7 7 6 4 5 4 3 3 5 7 9 13 17 17 14 12 8 9 10 11 12 13 14 15 15 15 14 13 13 15 16 14 15 16 17 17 18 19 21 22
12 13 11 7 4 3 5 5 4 4 5 6 7 8 10 14 12 9 9 9 10 10 11 12 13 14 15 15 14 14 13 14 14 14 14 15 17 17 18 19 20 21 21
14 12 10 4 3 3 5 6 5 5 6 7 8 10 14 13 10 9 10 11 11 12 12 13 14 14 14 14 14 14 14 14 14 14 14 16 17 16 18 20 21 22 22
11 9 3 2 3 5 8 6 5 7 8 8 10 10 13 11 11 11 12 13 13 13 14 14 14 13 13 13 14 14 14 14 16 17 16 17 17 18 19 21 22 23 24
5 3 3 3 3 10 5 6 7 7 9 10 10 10 10 11 12 13 13 13 13 14 14 14 13 13 13 13 14 15 15 16 17 19 18 18 18 19 20 22 26 27 26
3 2 1 2 5 6 5 7 7 9 11 11 11 11 12 13 13 13 13 13 13 12 12 13 13 13 13 13 13 14 16 18 19 19 20 19 21 25 26 28 28 27 27
2 2 2 2 3 4 5 6 7 9 11 11 11 12 13 13 12 12 12 12 12 12 12 12 13 13 12 12 12 13 15 20 23 26 27 27 26 28 29 29 29 28 27
2 1 2 4 5 6 7 7 10 11 11 11 11 12 12 12 12 12 12 12 12 12 12 12 12 12 12 12 13 15 21 24 26 27 28 29 28 29 29 29 29 28 28

GFSGL_sfc_30mbdewp_033.txt.gz
Dewpoint
43 44 46 49 51 53 52 53 53 52 49 48 47 45 44 42 41 40 38 35 31 28 27 26 25 26 26 26 25 24 22 21 19 20 19 19 19 20 21 23 24 24 23
43 44 46 49 50 50 50 50 48 48 45 45 43 42 41 39 39 37 33 29 28 27 29 29 30 30 30 29 27 26 25 24 22 19 20 20 20 22 23 23 23 23 22
42 44 45 47 48 48 47 45 44 43 42 41 40 38 37 34 31 29 28 30 31 32 32 32 30 29 28 28 28 27 27 27 26 22 19 21 22 23 23 24 24 24 23
39 42 44 45 46 45 43 41 41 41 40 39 37 33 32 30 30 31 32 32 32 32 32 31 30 30 28 29 30 30 29 26 25 23 22 23 23 23 24 23 22 21 19
35 35 37 40 40 38 38 37 36 35 33 33 33 33 34 33 33 33 33 32 32 32 32 31 31 30 31 31 29 28 27 27 26 26 23 23 23 22 22 22 21 20 22
33 32 33 33 34 35 34 35 35 34 34 34 34 35 35 36 37 35 32 30 29 29 29 30 30 31 32 33 32 30 30 29 26 24 24 22 22 23 22 21 21 22 21
33 33 33 33 34 34 34 34 34 35 36 36 36 36 36 36 36 34 32 31 31 30 29 29 28 29 30 28 28 28 26 25 25 25 24 23 22 21 23 23 24 24 22
35 35 34 34 34 34 34 34 34 34 34 34 34 35 35 36 36 35 33 30 29 29 28 27 28 28 27 25 23 25 25 25 24 24 24 23 23 23 25 26 24 22 21
33 34 34 34 33 33 32 32 33 32 32 32 32 32 32 33 34 33 29 27 27 26 27 24 23 22 22 23 23 24 24 23 22 22 22 24 24 23 22 21 21 20 19
32 33 33 33 32 31 31 31 32 32 31 32 31 32 33 32 30 30 26 19 20 19 21 20 22 20 21 23 24 26 21 20 19 21 20 18 17 16 21 20 20 20 19
33 33 33 32 32 31 31 31 31 30 30 29 29 29 29 29 31 28 22 19 18 20 20 19 20 22 25 26 24 20 19 19 20 17 15 14 17 18 18 19 20 21 20
33 32 32 32 32 31 30 29 27 25 19 16 15 16 16 19 25 24 23 23 24 20 20 20 21 25 25 22 19 18 19 19 15 13 15 16 18 19 20 20 20 21 21
20 18 16 14 13 12 12 12 12 12 12 12 11 11 10 11 15 21 21 21 21 21 22 24 24 20 18 16 16 17 17 14 14 15 17 18 19 19 20 20 21 21 21
12 12 12 12 11 12 12 12 12 12 11 10 9 7 9 11 14 18 19 20 21 22 24 19 17 15 15 14 13 13 13 14 17 17 17 17 17 18 19 19 19 19 19
13 11 11 11 9 9 8 7 8 8 8 7 8 9 10 12 16 19 20 20 21 20 20 13 10 11 11 11 12 13 14 15 17 17 16 16 16 17 18 19 19 19 19
11 11 13 14 16 18 19 20 21 20 20 19 18 15 14 17 18 18 20 20 19 17 13 10 10 11 12 13 14 15 15 16 16 16 16 16 16 17 17 19 20 20 19
12 13 14 12 12 14 13 13 13 13 17 17 17 16 17 17 18 19 19 18 14 14 9 11 12 13 14 15 16 16 16 16 16 16 16 16 16 17 18 18 18 19 20
14 14 9 8 6 5 4 3 4 1 -1 1 9 14 16 17 19 18 16 10 8 9 11 11 13 14 15 16 16 16 16 15 15 15 16 16 16 18 18 18 19 20 20
14 11 8 7 5 5 5 5 3 2 3 5 7 9 12 17 17 15 13 9 9 9 10 11 13 14 15 16 16 16 15 15 16 17 16 16 16 17 17 18 19 21 22
12 12 10 8 5 4 5 4 3 3 4 6 7 8 10 14 13 11 9 10 10 10 11 12 13 14 15 15 15 15 15 15 15 16 16 16 16 17 17 18 19 19 20
15 15 9 3 2 3 5 5 5 5 5 7 8 9 14 14 12 10 10 11 11 12 13 13 13 14 14 14 14 14 14 15 15 15 16 17 16 16 18 18 19 20 21
12 9 3 2 2 5 7 5 5 6 7 8 9 10 13 11 11 11 12 12 12 13 14 14 14 14 14 14 13 13 14 14 15 16 18 18 18 18 19 19 20 21 22
8 4 2 2 3 10 5 5 6 7 8 10 11 10 10 11 11 12 12 12 13 13 14 14 14 14 14 13 14 13 13 14 16 18 17 18 18 19 20 20 21 23 26
3 2 1 1 3 5 4 5 7 8 10 10 11 11 11 12 12 12 13 13 13 14 13 13 13 13 13 13 13 14 14 15 17 18 18 18 19 20 22 24 25 26 27
2 1 1 1 1 3 4 6 7 8 10 11 11 11 12 12 12 13 13 13 13 13 13 13 13 13 13 12 12 12 14 17 20 22 24 25 25 25 24 26 26 27 27
2 1 1 2 3 4 5 6 8 10 11 11 11 12 12 12 12 13 13 13 13 13 13 13 13 13 13 13 13 15 20 23 25 26 27 26 26 27 27 27 28 28 28

GFSGL_sfc_30mbdewp_036.txt.gz
Dewpoint
43 43 44 46 49 49 51 51 52 53 54 54 54 53 53 50 49 48 47 44 42 38 36 35 33 33 30 29 28 27 27 27 26 27 23 25 26 27 26 22 23 22 22
41 43 44 46 48 49 50 50 50 51 50 50 49 49 48 47 46 45 43 41 38 36 35 32 29 29 31 31 32 31 31 29 28 28 30 30 30 29 28 24 23 23 22
40 42 44 45 47 48 48 47 47 46 45 44 45 44 44 43 42 42 39 36 32 32 32 32 33 33 32 31 31 30 31 31 30 29 30 28 28 28 29 26 24 22 22
37 39 40 43 44 44 43 43 43 43 42 41 40 39 37 37 35 32 33 34 35 34 34 34 33 32 31 31 32 31 31 30 30 28 26 26 28 29 28 24 21 20 19
35 35 37 38 39 39 38 38 37 36 36 35 35 34 34 33 33 33 34 34 33 33 32 32 32 33 34 33 32 31 30 29 29 28 27 29 27 24 20 21 20 19 18
34 34 35 36 36 36 36 36 36 36 36 36 36 36 36 36 36 35 34 33 32 32 31 31 32 32 33 34 34 33 31 31 30 28 28 24 20 20 20 20 19 20 19
35 35 35 35 35 35 35 35 36 36 37 37 37 37 37 38 37 36 34 33 32 31 30 30 30 31 31 29 31 31 32 31 31 26 24 21 20 20 22 24 21 22 22
35 34 34 34 34 34 34 34 34 34 34 34 35 36 36 37 37 35 33 31 30 30 30 29 29 28 29 28 26 25 25 25 23 23 23 22 22 21 21 25 25 24 21
34 34 34 34 34 33 32 32 33 32 32 31 32 32 32 32 34 33 30 29 27 26 27 27 25 22 21 23 22 24 23 23 23 23 23 23 24 24 24 21 20 21 20
33 33 34 33 32 31 32 31 32 32 31 32 31 31 32 31 31 29 24 25 23 21 20 20 22 20 21 23 23 24 23 21 19 19 19 19 18 16 18 21 21 21 21
34 34 34 34 33 32 32 32 32 31 31 30 30 30 30 32 30 25 21 18 18 19 18 16 17 23 25 26 25 23 20 19 17 19 16 13 14 17 18 19 20 22 22
34 33 33 33 33 33 32 31 30 27 23 19 18 18 20 24 25 24 24 23 22 17 18 18 20 25 25 23 21 19 19 20 18 12 11 14 17 21 23 23 23 23 23
27 24 21 18 15 14 13 13 13 12 12 11 12 12 11 10 19 22 22 22 22 21 21 23 23 21 19 17 14 17 18 13 11 13 16 19 21 22 23 23 24 24 25
14 13 12 11 11 11 12 12 11 11 10 8 7 6 7 9 15 18 19 19 20 21 23 21 19 16 15 14 13 11 11 13 15 17 18 18 18 19 20 22 22 22 22
13 12 12 10 8 7 9 8 7 7 8 5 6 7 8 10 16 20 20 19 20 19 22 15 9 8 9 9 11 13 14 15 17 19 19 18 18 18 20 21 21 22 22
10 11 12 13 15 17 18 19 21 21 20 19 18 15 13 17 18 19 20 20 20 17 14 7 7 9 10 11 13 15 17 18 19 19 19 19 19 20 20 21 22 22 21
12 13 14 13 14 14 15 13 12 17 19 18 18 17 17 18 19 20 20 18 15 14 7 7 10 12 14 16 17 19 19 19 20 19 19 19 19 19 20 20 21 21 22
13 14 10 9 7 5 3 2 2 -0 -2 -1 8 14 15 17 19 18 17 14 6 8 8 8 12 13 15 17 19 19 19 19 19 19 19 19 19 19 19 20 21 21 22
15 12 9 7 5 4 3 3 2 1 1 2 5 7 10 15 18 16 14 8 8 8 8 9 12 14 16 18 19 19 19 18 19 19 19 19 19 19 19 19 20 21 22
12 11 9 7 7 3 3 2 1 1 2 3 4 5 7 12 13 12 10 9 9 9 9 11 12 14 16 17 18 18 17 17 18 19 19 20 20 20 19 19 19 20 20
14 14 10 4 2 2 2 3 3 3 3 4 5 7 14 14 13 10 8 9 9 10 12 13 13 15 16 17 17 17 16 17 17 18 20 20 20 20 20 20 19 19 20
14 12 8 3 3 4 5 4 3 4 5 5 6 8 13 11 9 9 9 10 10 11 12 14 15 16 16 17 17 16 16 16 16 17 19 20 20 20 21 21 21 20 21
12 7 3 2 2 7 9 3 4 5 5 7 8 8 8 8 9 10 11 11 11 13 14 14 15 16 16 16 17 17 16 16 17 18 19 19 19 20 20 20 21 21 21
8 5 3 2 3 4 3 3 5 7 8 7 8 9 9 10 10 11 12 14 15 15 16 15 15 16 16 15 15 16 17 18 18 19 19 18 18 19 20 20 22 24 24
5 3 1 1 1 6 3 4 5 6 8 9 10 10 11 12 13 14 15 15 15 15 15 15 15 16 16 16 16 16 17 18 20 21 22 22 22 24 24 25 24 24 26
4 2 1 1 2 2 4 5 6 8 10 12 13 15 15 15 15 16 17 16 16 16 16 16 17 17 17 17 17 18 20 22 24 26 27 26 25 25 26 27 27 27 27

GFSGL_sfc_30mbdewp_039.txt.gz
Dewpoint
41 41 42 44 45 47 49 50 50 51 51 53 53 54 54 55 54 53 52 52 51 49 45 42 37 35 36 36 36 36 35 34 31 29 29 29 29 30 33 33 32 29 26
40 41 43 44 45 47 48 48 49 49 49 49 49 49 49 50 50 49 48 47 47 42 40 38 36 36 34 34 34 32 32 32 32 30 31 32 32 32 32 32 30 27 26
39 40 41 43 45 45 44 45 45 46 46 45 45 44 44 44 44 44 43 42 41 39 38 35 33 34 33 33 32 32 32 33 32 32 31 31 31 32 31 30 29 28 28
37 37 39 40 41 40 40 40 40 41 41 40 38 36 37 35 35 36 36 36 35 35 35 35 34 34 33 33 33 32 32 31 31 30 30 30 30 29 31 29 27 27 23
35 36 37 38 38 38 38 38 38 38 37 37 36 35 34 34 35 35 35 35 34 34 34 34 34 34 34 34 32 32 32 31 30 30 30 29 28 27 27 25 23 22 21
35 35 36 36 37 37 37 37 37 37 37 37 37 36 36 36 36 36 35 34 34 33 32 33 34 35 35 35 35 34 33 31 31 30 28 26 25 23 21 21 23 23 21
34 35 35 35 35 36 36 36 36 37 37 37 38 38 38 38 37 36 35 33 32 31 31 31 31 32 32 32 33 33 34 33 31 29 27 25 22 22 25 24 24 23 22
34 34 34 34 34 35 35 34 34 34 33 33 33 33 34 37 36 35 33 31 30 30 31 31 30 30 30 28 26 27 27 27 26 25 24 23 23 23 23 23 25 25 24
34 34 34 34 34 34 33 33 33 32 32 31 32 31 31 33 34 33 31 30 29 29 30 29 26 23 25 25 23 24 25 23 23 26 24 23 24 24 24 24 23 22 21
34 34 34 33 33 32 32 32 33 32 32 32 30 31 31 30 31 30 28 27 25 21 20 21 21 21 21 23 23 24 23 22 21 20 19 19 20 19 18 20 21 21 22
35 35 35 34 33 33 33 32 32 31 31 30 30 30 32 31 27 25 22 19 18 18 16 15 17 23 25 26 26 24 22 22 20 18 18 16 13 15 18 19 21 22 22
34 34 34 34 33 34 33 33 32 27 20 17 18 19 23 24 24 23 25 24 22 17 18 18 21 25 25 23 22 20 20 19 18 16 11 12 16 21 24 24 24 25 25
30 28 25 20 17 16 14 13 13 13 12 11 12 11 10 10 17 22 23 22 22 22 22 24 23 22 20 17 13 16 18 16 12 11 14 19 22 24 24 24 24 25 26
17 14 12 12 11 12 13 12 11 10 9 8 6 6 7 9 14 17 18 19 19 20 21 22 20 18 14 14 14 10 11 12 13 16 18 19 19 20 21 22 22 22 23
14 14 13 10 8 9 14 12 9 13 13 6 8 9 9 10 17 20 21 20 21 21 20 18 12 7 8 9 10 11 14 15 17 19 20 20 20 20 21 22 22 22 21
11 12 12 14 16 17 18 19 22 21 21 19 19 18 13 17 19 19 20 21 20 19 16 10 6 9 10 11 12 15 18 19 19 20 20 20 20 21 20 20 21 21 22
12 14 14 14 14 14 15 13 13 19 20 19 18 17 17 19 19 20 21 19 19 15 10 7 9 12 13 15 17 19 20 20 21 21 20 21 21 19 19 19 20 21 21
14 15 14 13 10 9 5 3 2 0 -1 -0 10 12 14 16 18 19 19 18 11 7 7 8 11 14 15 16 18 19 20 20 20 20 20 20 20 21 20 19 20 20 19
15 14 12 9 7 5 4 3 2 1 -0 1 3 6 9 10 15 18 17 13 8 8 8 9 11 13 15 18 19 19 20 19 19 20 20 20 20 20 20 20 20 20 20
15 13 11 8 8 4 3 3 2 1 1 1 2 4 6 8 12 13 11 9 8 9 9 11 13 15 16 18 19 20 20 19 19 20 20 19 20 21 20 20 20 19 19
14 15 12 7 4 3 3 2 2 2 2 2 4 6 11 14 13 11 8 8 9 9 11 13 14 16 17 19 19 19 19 19 19 19 19 19 20 20 20 21 21 20 20
15 15 13 5 4 4 4 4 3 2 3 4 5 6 10 12 8 8 8 9 10 10 12 13 16 17 18 19 19 19 18 18 18 18 18 18 20 21 21 21 20 20 20
15 13 8 4 3 4 9 5 3 3 4 5 7 7 7 7 8 8 10 10 11 12 15 16 17 17 18 19 19 19 19 18 17 18 18 18 18 18 19 19 19 19 19
13 9 5 3 3 6 4 2 3 7 8 6 7 8 9 9 10 10 12 15 16 17 18 18 18 17 17 18 18 18 18 19 19 19 20 18 17 17 18 19 19 20 20
10 7 4 3 3 7 4 4 5 5 6 7 9 10 11 12 14 16 17 17 18 18 18 18 18 18 18 18 18 18 18 19 21 22 21 21 20 19 20 21 23 23 24
8 5 2 2 3 1 1 3 5 6 9 12 15 16 17 17 17 18 19 19 19 19 19 19 19 18 19 19 19 20 22 23 25 25 27 26 24 24 24 25 25 26 26

GFSGL_sfc_30mbdewp_042.txt.gz
Dewpoint
40 40 42 44 45 48 49 48 48 49 49 50 50 50 51 52 54 54 53 53 53 51 50 50 43 39 38 37 36 37 38 39 38 32 32 32 31 30 33 34 35 34 34
38 39 41 43 45 45 44 45 47 47 47 46 46 46 47 47 49 49 48 47 48 46 44 42 39 38 37 37 36 36 36 37 35 32 31 31 32 33 33 33 32 31 29
37 38 39 41 41 41 41 40 41 42 41 39 39 39 39 40 42 41 42 43 42 41 40 39 38 36 35 35 35 34 35 35 35 34 32 32 32 32 32 33 31 30 29
36 37 37 39 39 39 39 39 39 38 37 36 36 35 35 35 36 37 37 36 36 36 36 36 35 35 34 34 34 33 33 33 33 32 31 31 31 32 32 30 28 29 29
36 36 37 38 37 37 37 38 38 38 38 37 36 36 36 37 36 36 36 35 35 35 35 35 35 35 35 34 33 33 32 31 31 31 30 30 30 30 29 28 28 27 23
35 36 36 36 36 37 37 37 37 38 38 38 38 37 37 37 37 36 35 34 33 33 32 32 33 35 37 36 36 35 33 31 31 30 30 28 26 25 26 25 24 22 21
34 35 35 35 34 35 35 35 36 35 35 35 36 37 37 37 37 36 34 32 31 31 31 31 32 33 32 33 35 35 35 34 32 30 26 27 24 23 24 23 22 22 22
34 34 34 34 34 35 35 34 34 33 33 33 33 33 34 36 36 35 32 31 31 31 31 31 30 30 30 30 29 29 28 27 27 27 26 25 25 25 24 24 24 24 24
34 33 34 33 34 33 32 32 33 32 31 31 31 31 32 33 34 33 30 29 29 29 30 30 29 29 30 27 24 25 25 25 24 26 25 24 23 24 25 24 23 22 21
34 34 34 34 33 32 32 32 32 31 31 31 30 31 30 29 28 26 27 27 25 25 24 23 20 21 22 23 25 24 24 21 21 20 19 20 21 19 19 21 22 19 19
35 35 34 34 33 33 32 31 32 30 29 27 28 30 31 28 26 26 22 21 18 17 16 17 22 24 25 26 25 23 22 23 21 20 19 18 16 14 15 18 20 19 19
34 34 34 34 34 33 32 31 30 26 20 18 18 19 20 24 24 24 24 22 23 20 19 22 25 25 24 23 22 21 20 20 19 17 13 11 14 19 22 23 24 24 25
30 30 28 27 27 27 20 15 14 13 13 12 12 11 9 10 17 20 21 21 22 21 22 23 22 21 20 17 15 16 18 15 13 12 14 17 20 21 22 21 22 24 25
18 13 13 12 12 12 12 11 11 10 9 7 6 7 8 10 16 21 21 21 22 22 22 21 20 17 11 11 12 11 12 12 13 16 17 18 20 20 19 21 21 22 23
14 14 13 12 9 15 22 22 13 17 17 9 12 11 10 15 19 20 20 21 21 21 20 18 15 8 9 10 11 12 14 15 17 19 20 19 19 20 21 21 22 23 22
13 13 12 12 16 18 20 20 22 22 21 20 19 18 17 17 19 20 20 21 21 21 17 13 8 10 11 13 14 16 19 19 19 20 20 20 20 21 21 21 22 22 20
12 14 15 16 16 16 16 16 16 20 20 19 17 16 17 18 19 20 21 21 20 18 11 9 9 11 13 14 16 18 18 19 20 20 20 21 22 21 20 20 19 20 19
14 17 15 15 13 13 9 4 3 1 0 1 12 10 13 15 15 18 19 19 13 9 10 8 9 11 13 14 16 18 18 20 20 21 21 21 21 21 20 19 19 19 19
15 15 14 12 8 7 5 4 2 1 1 1 2 5 10 10 12 16 18 16 12 9 9 10 11 11 13 14 16 18 19 19 19 21 21 20 20 20 20 20 19 19 20
16 16 13 9 8 5 4 3 2 2 1 2 2 4 6 8 13 14 13 11 9 9 10 10 11 13 14 14 15 16 18 19 19 18 18 18 19 19 19 19 19 19 19
16 16 15 8 8 4 4 3 3 2 2 2 4 5 9 13 14 13 10 9 9 9 10 11 12 13 14 15 16 17 17 18 18 18 18 18 18 18 18 19 20 20 19
15 15 15 8 5 4 3 4 4 3 3 4 5 6 10 11 10 8 9 9 10 11 11 12 12 13 15 16 16 16 17 17 17 16 16 17 17 18 19 19 19 19 19
16 15 13 7 5 6 7 6 3 3 4 5 6 7 8 8 8 9 10 10 11 12 14 16 16 16 16 16 16 17 17 17 17 17 17 17 17 17 18 17 17 17 17
15 14 10 6 4 4 7 6 3 4 7 7 7 7 9 9 10 11 12 13 15 16 17 17 17 17 17 17 17 17 17 18 18 19 19 18 17 17 17 17 17 17 18
14 11 7 5 4 7 5 5 3 5 5 6 7 9 11 12 14 16 16 17 17 18 18 18 18 18 17 17 17 17 18 21 23 23 22 20 19 18 18 18 18 18 19
12 9 6 4 4 3 6 3 3 5 6 9 11 14 16 17 17 17 18 19 19 19 19 19 19 18 18 18 19 20 23 24 25 27 27 26 25 24 23 23 23 23 24

GFSGL_sfc_30mbdewp_045.txt.gz
Dewpoint
38 39 41 43 45 46 44 46 47 47 46 46 47 47 47 49 51 52 52 52 52 52 51 51 48 45 43 41 41 41 41 43 41 34 34 35 35 37 38 37 36 36 36
37 38 40 40 41 41 40 40 42 41 39 38 38 39 40 42 43 46 46 46 47 47 46 45 42 40 39 38 38 37 38 39 38 35 32 32 33 34 35 34 35 36 35
37 37 39 39 39 39 39 39 38 38 37 36 35 35 36 37 39 39 40 40 41 41 40 40 39 38 37 36 36 37 37 37 36 35 32 32 32 32 32 34 34 33 31
37 37 38 37 37 38 38 38 38 37 36 36 36 36 36 36 36 36 37 37 36 36 36 36 36 36 36 35 35 35 34 34 34 34 32 31 32 32 33 32 31 31 29
36 36 37 37 37 37 37 38 38 38 37 37 37 37 37 37 37 35 35 35 35 35 35 36 36 36 36 35 34 33 33 32 32 32 31 31 31 30 30 30 29 28 25
35 36 36 36 36 36 36 36 37 37 38 38 38 37 36 36 37 36 34 33 33 33 32 33 34 35 37 37 36 35 34 32 31 31 30 29 30 28 27 27 25 22 20
35 35 35 35 35 35 36 35 35 35 35 34 35 36 36 36 36 36 34 32 31 31 31 31 31 32 32 32 33 34 35 36 33 31 27 27 25 23 24 23 23 22 21
34 34 34 35 35 35 34 34 34 33 33 33 33 34 36 36 36 34 32 30 30 30 30 30 29 29 30 30 29 29 28 27 26 27 28 26 24 25 24 24 23 24 24
34 34 34 34 34 33 33 32 32 31 30 31 32 32 32 33 31 31 29 27 27 27 28 28 28 28 28 24 25 24 25 24 23 27 26 25 24 24 24 24 23 22 21
34 34 34 34 33 32 32 31 32 31 30 30 29 29 29 26 25 25 27 26 23 24 25 21 22 22 24 25 26 23 23 21 22 22 20 19 20 19 21 20 21 19 18
35 34 34 34 33 32 32 32 31 29 28 27 28 29 29 25 26 26 23 21 18 17 17 19 23 25 25 26 25 22 22 23 21 20 19 18 14 13 17 18 20 18 16
35 34 34 34 34 32 31 30 28 24 20 20 20 19 20 21 23 24 23 23 24 20 21 23 24 24 23 22 20 20 19 20 18 17 14 11 14 19 22 23 24 23 22
33 32 32 33 32 31 28 25 20 17 13 12 13 11 8 10 15 22 22 22 23 22 22 24 23 21 20 17 16 16 16 13 13 13 15 17 19 19 20 20 20 22 23
29 25 15 13 13 13 12 13 11 10 9 8 7 8 9 12 19 21 21 21 22 21 22 19 20 19 13 12 12 12 12 13 13 16 18 19 20 20 20 21 20 22 22
17 13 13 14 12 17 21 12 13 16 15 8 12 12 10 14 18 20 20 21 21 22 21 16 13 9 10 11 12 14 17 18 19 19 20 20 19 19 20 22 21 22 21
14 14 13 11 11 18 21 21 23 22 21 20 21 17 17 19 20 20 21 22 22 21 19 13 10 11 11 13 14 16 18 19 19 19 20 20 19 20 21 22 22 21 20
14 14 13 14 17 18 19 18 16 20 20 20 17 15 16 16 18 18 20 21 21 18 15 12 9 9 11 14 15 16 17 18 20 21 21 21 21 21 19 20 20 20 19
14 16 15 16 16 16 15 11 5 2 0 -0 12 12 13 14 15 16 18 20 16 12 9 9 9 10 11 12 13 15 16 18 18 18 19 19 19 20 19 18 18 18 18
14 18 16 15 14 13 8 5 3 2 1 1 2 6 9 11 12 14 17 17 16 12 10 10 10 11 11 12 13 14 15 16 18 19 20 19 18 18 18 19 18 18 19
15 17 16 13 10 8 5 4 2 2 1 1 2 3 6 8 12 14 14 13 11 10 10 10 11 12 12 12 13 14 14 16 17 17 17 17 17 17 17 17 17 18 18
17 19 19 11 9 6 4 3 3 2 2 1 3 5 10 12 13 13 11 9 9 9 10 11 11 11 11 11 12 13 15 16 16 16 16 16 16 16 16 17 18 18 18
18 17 18 11 9 7 5 4 4 3 2 2 4 6 10 11 10 9 9 9 10 11 12 12 12 12 13 13 14 14 14 15 15 15 15 15 15 16 17 17 17 18 18
18 16 16 12 8 7 8 5 4 3 2 4 5 6 7 8 8 9 10 11 12 12 14 15 15 15 15 15 15 15 15 16 16 16 16 16 16 16 17 16 16 16 16
19 17 15 12 8 6 6 7 7 6 4 5 7 7 7 9 10 11 12 14 15 16 16 17 17 17 17 17 16 16 16 17 18 18 18 17 16 16 17 17 16 16 17
26 22 14 10 7 9 5 8 4 3 3 5 5 7 9 11 13 15 16 16 16 17 18 18 18 18 17 17 17 17 18 21 22 23 22 20 19 18 18 18 18 18 18
26 25 19 9 7 6 7 5 4 4 4 6 8 9 12 15 16 17 17 17 17 19 19 19 19 18 17 17 18 19 23 25 26 27 28 27 25 24 24 23 23 22 22

GFSGL_sfc_30mbdewp_048.txt.gz
Dewpoint
37 39 41 41 42 42 42 43 43 40 40 39 41 43 44 45 46 48 48 48 49 49 48 49 48 46 46 45 44 44 43 44 42 39 35 36 37 39 41 38 40 39 39
37 38 39 39 40 39 39 38 38 37 37 36 37 37 38 40 40 42 43 43 44 44 43 43 41 41 40 39 39 39 39 40 40 38 34 34 35 36 36 36 37 37 37
37 38 38 38 38 38 38 38 37 37 36 36 36 36 36 37 37 38 38 38 38 38 39 39 38 38 38 37 37 37 37 37 36 36 33 32 32 33 32 34 34 35 36
37 37 37 37 37 38 38 38 38 37 36 37 37 37 37 36 35 35 35 35 36 36 36 36 36 36 35 35 35 35 34 34 34 34 33 32 32 31 32 32 31 33 33
36 37 37 37 37 37 37 37 38 38 38 38 37 36 36 36 36 34 34 34 34 34 35 36 38 38 37 36 34 34 33 33 32 32 31 31 31 31 30 31 31 30 28
36 36 36 36 36 36 36 37 36 36 36 37 36 35 36 36 36 36 34 33 33 33 32 33 34 35 36 38 37 36 35 33 31 31 30 30 30 30 30 29 27 24 20
35 35 35 35 35 36 36 35 35 34 35 35 35 37 36 36 36 35 34 32 31 31 30 30 30 32 31 32 33 34 34 35 35 31 29 27 25 23 24 23 23 22 21
34 34 35 35 35 35 35 34 33 33 33 33 33 34 35 35 35 34 32 29 28 28 28 28 27 28 29 29 28 26 27 26 26 26 28 26 25 24 24 23 23 23 24
34 34 35 35 34 34 33 32 32 31 31 31 32 32 30 28 29 29 26 25 25 25 26 26 24 24 24 25 24 24 24 23 23 27 26 25 25 24 25 25 23 22 21
34 34 35 35 34 32 32 31 31 30 30 29 28 28 29 25 26 27 24 23 21 21 19 18 25 25 26 27 24 23 22 22 22 23 21 19 20 19 21 21 21 17 18
34 35 34 34 33 32 31 31 29 28 27 28 28 29 25 25 26 25 24 22 18 18 19 20 23 26 25 24 24 22 22 23 21 19 18 17 14 13 17 20 19 17 15
34 34 34 32 32 31 30 29 27 25 23 23 22 19 18 19 23 23 23 23 24 20 21 23 23 23 22 21 19 18 18 20 16 15 14 12 16 19 20 22 23 23 19
34 33 33 33 32 31 27 27 26 23 16 15 15 11 8 10 16 24 24 25 25 22 22 23 23 23 21 17 16 15 15 12 12 12 14 16 18 19 19 19 20 21 22
32 31 31 30 29 27 23 16 14 13 11 10 7 7 9 11 19 20 21 20 22 22 22 19 17 18 13 13 13 13 13 13 14 15 17 19 20 19 20 21 20 20 20
30 28 18 14 16 12 12 10 11 13 10 7 8 10 9 12 16 21 21 21 21 22 21 17 12 9 11 11 13 15 17 19 19 19 20 20 19 19 19 20 21 22 20
27 17 13 13 13 17 21 21 22 22 21 21 21 15 16 19 20 20 21 21 22 22 20 16 10 10 10 12 14 15 16 18 18 18 19 20 20 20 20 21 23 20 19
26 16 14 15 11 16 19 17 16 21 22 21 19 17 16 16 17 18 18 21 21 18 11 13 10 10 10 11 12 14 14 16 18 18 20 20 21 20 19 18 19 19 18
22 18 14 17 14 17 19 18 17 10 6 3 10 17 14 15 16 15 16 19 18 14 10 9 9 10 11 11 11 12 13 15 16 18 18 18 19 19 18 18 17 17 17
18 18 18 16 16 17 17 13 7 3 2 1 2 6 9 12 13 14 16 16 16 15 13 10 10 10 11 11 12 12 12 13 15 16 16 17 17 16 16 16 17 17 17
17 18 19 16 15 16 11 7 4 2 1 1 1 2 5 8 9 13 14 13 13 12 10 10 10 11 11 11 11 11 12 13 14 14 15 15 15 14 15 15 15 15 16
19 21 22 16 13 12 8 5 4 3 2 2 1 3 9 10 12 13 12 10 9 9 10 10 11 11 11 10 10 11 12 13 13 14 14 14 14 14 14 15 16 16 17
24 20 23 16 12 10 8 6 4 3 3 2 2 4 11 12 11 9 9 9 10 10 11 12 12 12 12 12 13 13 13 13 14 14 14 14 14 14 15 15 16 16 16
20 19 20 15 12 11 11 6 4 4 3 3 3 4 6 7 8 8 9 10 11 12 14 15 15 15 15 15 14 14 14 15 15 15 16 15 15 15 15 15 15 15 15
20 19 19 24 20 10 9 8 6 7 4 3 3 5 6 7 8 10 11 12 14 15 16 16 17 17 17 17 16 15 15 15 16 17 17 16 16 16 16 16 16 16 16
25 27 27 25 24 19 9 9 7 7 5 4 5 6 6 8 10 12 14 16 16 16 17 18 18 18 17 17 17 17 17 20 22 22 21 19 18 18 18 18 18 18 18
28 27 26 25 24 22 11 7 7 6 4 5 5 7 8 10 13 16 16 17 16 17 17 18 18 18 18 17 17 18 22 24 25 27 28 27 26 25 24 23 22 21 21

GFSGL_sfc_30mbdewp_051.txt.gz
Dewpoint
37 40 40 41 40 40 40 40 39 38 38 38 38 40 40 41 43 45 45 45 46 46 45 46 43 43 43 42 42 42 43 43 42 41 37 36 37 40 40 40 42 41 44
37 39 39 39 39 39 38 38 37 37 36 37 37 37 37 38 38 39 40 41 41 41 41 41 40 40 39 39 39 39 39 39 39 38 35 34 35 36 37 37 39 39 39
37 38 38 38 38 38 38 37 37 36 36 37 37 36 36 36 36 36 37 37 37 37 37 36 36 37 37 37 37 36 36 37 36 36 34 33 33 34 33 34 35 36 37
37 37 37 37 37 37 38 38 38 37 37 37 37 37 36 35 35 35 35 34 35 36 36 37 36 35 35 35 35 35 34 34 34 34 33 32 32 31 32 32 31 33 33
37 37 37 37 37 37 37 37 37 37 37 36 36 36 36 36 36 34 34 34 34 34 35 35 37 38 38 37 34 34 34 33 33 32 32 31 31 31 31 31 31 31 31
36 36 36 36 37 36 37 36 36 36 36 36 36 35 36 35 36 35 34 33 33 33 32 32 34 34 34 37 37 36 36 32 31 31 30 29 30 30 31 30 29 26 22
35 35 36 36 36 36 36 35 35 35 35 35 36 36 36 35 35 35 33 32 30 29 28 28 29 30 29 28 29 29 29 30 31 30 27 26 24 23 23 23 23 22 21
35 35 35 36 35 35 35 34 33 33 33 33 33 33 32 33 33 33 30 26 26 26 26 25 24 25 26 27 24 24 25 23 27 26 26 26 25 24 24 23 23 23 24
34 34 35 35 35 34 33 32 32 32 31 31 31 27 26 26 28 27 25 23 23 23 22 23 22 24 26 29 24 23 23 22 24 27 26 25 25 25 25 25 23 22 20
34 35 35 35 34 33 32 32 31 31 29 28 27 27 28 25 27 25 21 20 17 17 17 19 25 26 26 26 24 22 20 22 23 22 20 19 19 18 19 21 22 18 17
35 35 35 34 33 32 31 31 30 28 27 27 27 27 24 25 25 25 26 22 18 18 19 21 23 25 24 23 23 20 21 22 20 18 17 16 13 15 20 23 19 16 14
35 34 34 33 32 31 30 28 27 25 25 25 23 20 17 16 23 23 24 24 24 20 20 22 23 25 23 21 17 18 19 19 14 12 13 13 17 18 19 20 21 21 19
34 34 32 32 31 30 27 25 24 22 18 17 16 13 9 9 15 24 25 25 24 23 22 23 22 20 22 19 15 16 16 12 12 12 14 16 18 18 19 20 20 21 21
33 33 32 31 30 29 27 25 23 19 14 11 10 8 8 9 15 20 20 20 22 22 22 20 18 15 14 14 13 13 14 15 16 16 17 19 20 19 20 21 21 20 19
32 31 31 30 30 24 21 15 14 12 11 8 7 7 8 8 14 20 22 21 21 22 22 19 14 9 10 10 12 14 16 18 19 19 19 19 19 19 19 20 20 21 20
31 30 27 20 17 14 15 18 20 19 24 22 17 13 13 18 20 21 21 21 22 23 21 18 14 10 9 10 11 13 15 16 17 18 18 20 20 20 20 20 22 20 17
31 27 22 17 14 15 19 19 16 22 23 22 21 21 19 17 18 18 18 19 21 21 12 11 11 10 10 10 11 11 12 14 15 16 18 18 19 20 18 18 17 18 17
31 28 19 17 14 14 16 17 17 15 14 15 18 22 20 16 16 17 16 17 19 18 13 11 10 10 10 10 11 11 11 13 13 14 14 15 16 18 18 18 17 16 15
30 27 22 17 16 15 16 18 18 15 9 3 1 6 11 14 14 15 16 15 15 16 15 13 11 11 10 11 11 11 10 11 12 13 14 14 14 14 15 14 14 16 16
29 26 23 18 17 18 17 16 14 10 5 2 1 1 3 8 9 9 13 13 12 12 12 11 10 11 11 10 10 10 10 11 12 12 12 12 13 12 13 13 13 13 14
27 26 26 19 16 17 16 13 10 7 4 2 2 2 7 6 6 11 13 12 10 9 10 10 11 11 11 10 9 10 11 12 12 12 12 12 12 12 13 13 14 15 15
27 28 29 23 21 17 13 11 8 6 4 3 2 3 10 13 13 12 11 9 9 10 11 12 12 12 12 12 12 12 13 13 13 13 13 13 13 13 14 14 15 15 15
27 28 28 29 27 25 23 10 7 6 4 4 3 2 3 6 8 8 8 9 10 12 13 14 15 16 15 15 14 14 14 15 15 15 15 15 15 15 15 15 15 15 15
24 25 29 28 22 22 26 18 9 8 5 4 3 3 3 5 7 8 9 12 13 15 16 17 17 17 17 17 16 16 15 15 16 16 16 15 15 16 17 17 17 16 16
26 29 28 27 26 28 25 22 16 9 7 7 5 4 5 6 7 10 12 14 16 17 17 17 18 18 18 18 17 17 17 20 22 22 20 18 17 18 18 18 18 18 18
26 28 28 28 27 27 26 25 23 13 8 7 6 5 6 7 10 12 14 16 17 17 17 18 18 18 18 17 17 18 22 24 24 25 27 27 26 24 24 23 22 20 20

GFSGL_sfc_30mbdewp_054.txt.gz
Dewpoint
38 40 40 40 40 40 39 39 38 37 37 38 38 39 39 39 41 43 43 45 45 44 43 43 42 42 42 42 42 43 43 43 42 41 38 37 37 39 40 41 42 42 44
37 39 39 39 39 38 38 37 37 37 37 37 37 36 37 37 37 39 39 39 39 39 39 39 38 39 39 39 39 39 39 39 40 38 35 35 35 36 37 38 39 39 39
37 38 37 37 37 37 37 37 37 37 37 37 37 35 35 35 35 35 35 36 36 36 36 35 35 35 35 36 36 36 36 36 36 36 35 34 33 34 34 35 35 36 37
38 37 37 37 37 37 37 37 37 37 36 36 36 36 36 35 34 35 35 35 35 36 37 37 37 35 34 34 34 34 34 34 34 34 33 33 33 33 33 32 32 33 33
37 36 36 37 37 37 37 37 37 36 36 36 36 36 36 36 35 34 35 35 35 34 34 35 36 38 37 36 35 34 34 33 33 33 32 32 31 31 31 31 31 31 31
37 37 37 37 37 37 37 36 36 36 36 36 36 35 36 36 36 35 34 33 32 31 30 31 32 30 31 34 34 35 34 31 30 30 29 28 28 29 28 28 27 25 22
36 36 36 36 36 36 36 35 35 35 35 35 36 35 34 35 35 34 33 30 26 25 25 27 28 29 28 24 27 27 28 29 29 29 26 26 24 23 22 22 22 21 21
35 35 36 36 36 36 35 34 34 34 34 33 32 30 31 32 32 31 28 24 24 24 23 22 22 24 27 25 24 23 24 23 27 25 25 25 24 24 24 23 23 23 24
34 35 35 36 35 35 33 33 33 32 32 30 28 25 26 27 28 27 24 22 20 20 20 24 24 25 27 28 23 22 21 22 24 26 26 25 25 25 24 25 23 21 20
34 35 36 36 35 33 32 32 32 31 30 28 26 25 28 25 26 24 20 18 15 16 19 21 25 26 26 25 23 21 18 21 23 21 18 17 17 15 19 21 21 18 17
35 35 35 35 34 33 32 31 30 28 27 26 26 25 23 25 24 25 26 21 19 18 20 21 23 25 24 23 23 18 19 22 20 15 14 14 15 20 22 22 20 16 14
35 35 34 34 33 32 31 29 28 26 26 25 25 21 18 15 22 25 24 25 25 21 20 21 23 23 24 23 18 17 19 15 12 12 12 14 16 18 19 20 20 21 18
34 34 33 32 32 31 29 26 25 24 22 20 18 14 11 9 12 24 25 24 24 22 22 23 23 19 19 17 16 17 16 12 12 13 15 16 17 18 18 19 20 20 20
34 33 32 31 31 30 27 25 23 22 18 15 13 11 8 8 10 18 20 20 22 22 22 22 21 15 14 14 13 13 15 17 18 17 17 19 20 19 19 21 20 20 20
33 32 31 31 31 28 27 25 24 20 17 12 10 8 7 6 10 18 21 22 21 22 24 20 17 11 9 9 11 13 15 16 17 19 18 19 19 19 19 20 20 21 19
32 31 31 30 30 27 23 18 21 19 19 20 19 11 11 14 19 22 22 21 21 23 21 19 16 13 10 9 10 11 12 13 15 16 17 18 18 19 20 20 21 21 18
32 31 30 29 24 20 16 15 15 21 25 24 23 23 22 19 19 19 20 19 20 22 18 13 11 11 10 10 11 11 11 11 13 13 14 14 16 17 19 18 18 17 17
32 32 29 27 21 16 16 17 18 16 15 19 23 24 23 21 18 17 19 18 17 20 17 14 12 11 11 10 10 10 10 11 11 12 12 12 12 14 15 17 16 15 15
33 32 29 24 21 16 15 16 17 16 15 13 5 6 13 19 20 18 18 16 15 14 15 15 14 13 11 11 11 10 10 10 11 12 12 12 12 12 12 13 13 15 16
34 33 31 24 21 19 17 15 16 16 16 12 6 2 2 8 8 8 11 12 12 12 12 12 12 11 11 11 10 10 9 10 10 11 11 11 11 11 11 11 12 12 13
34 33 33 27 24 20 18 16 15 14 13 10 6 3 6 3 2 5 7 12 13 12 10 10 11 11 11 10 9 10 10 11 11 12 12 12 11 11 12 12 13 14 14
32 30 31 29 25 21 21 17 15 13 11 8 5 3 11 13 12 12 13 13 12 10 11 11 12 12 12 12 12 13 13 13 13 13 13 13 12 12 13 14 14 15 15
30 29 29 29 26 26 28 27 25 21 13 7 5 3 3 6 10 11 11 10 9 11 13 14 14 15 16 15 15 14 15 15 15 15 15 15 14 15 15 14 15 15 15
28 29 29 29 29 29 29 28 25 25 18 7 5 4 3 3 4 5 7 10 12 13 14 15 16 17 18 17 17 15 15 15 15 16 15 15 15 15 16 16 16 16 16
26 26 28 29 28 28 27 27 26 25 22 18 13 4 4 4 5 7 11 12 13 14 16 17 17 17 17 17 17 17 17 19 21 21 19 17 17 17 17 17 18 18 18
26 27 29 29 28 28 27 27 26 25 24 24 21 10 8 8 9 10 12 13 14 16 17 18 17 17 17 17 17 17 21 23 24 24 26 26 25 24 23 22 21 19 19

GFSGL_sfc_30mbdewp_057.txt.gz
Dewpoint
39 40 41 41 40 40 40 39 38 38 38 38 39 39 39 40 41 43 44 44 44 43 43 43 42 42 42 42 43 43 43 44 43 42 39 38 39 38 39 41 42 42 42
38 39 39 39 39 38 38 37 37 37 37 37 37 37 37 37 38 39 39 39 39 38 39 39 38 39 39 39 40 39 39 39 40 39 37 36 36 37 37 38 39 39 39
38 38 38 38 38 38 37 37 37 37 37 37 36 35 35 36 36 36 37 37 37 37 36 36 36 36 36 36 37 37 36 37 38 37 36 35 35 35 35 36 36 36 37
38 37 37 37 37 37 37 37 37 37 36 36 37 36 35 35 36 36 36 36 36 37 38 38 36 35 35 36 36 36 35 36 36 35 34 34 34 33 34 33 33 35 34
37 37 37 37 37 38 38 37 36 36 36 36 36 36 36 36 35 35 36 35 35 34 34 35 35 38 37 36 35 34 34 34 34 34 33 32 31 31 31 31 30 30 31
37 37 37 37 37 37 37 37 36 36 36 36 35 36 36 36 35 36 34 33 32 33 32 32 30 29 31 33 34 34 33 32 30 30 29 28 27 26 25 25 25 23 23
37 37 37 37 37 37 36 36 36 36 36 36 35 35 35 36 35 34 31 28 27 28 28 28 27 28 25 25 27 27 28 29 29 28 25 25 24 24 24 25 24 24 22
36 36 36 36 36 36 35 35 35 35 34 33 32 32 33 34 33 31 27 25 25 24 23 24 26 27 28 25 24 24 24 27 27 26 26 26 26 26 26 25 25 24 23
35 35 36 36 36 35 34 34 34 33 32 30 28 28 28 29 28 27 24 22 22 22 23 25 26 26 28 27 23 21 20 22 25 26 25 25 24 24 24 25 23 21 16
35 36 36 36 35 34 33 33 33 32 31 28 27 26 28 26 26 24 22 17 16 16 19 21 26 26 25 27 23 19 18 21 23 19 15 14 15 16 22 20 22 19 19
35 36 36 36 35 34 33 32 31 30 28 26 26 24 24 25 26 28 24 19 18 18 19 20 23 26 24 23 24 17 20 22 19 13 12 13 18 21 22 22 21 21 20
35 35 35 35 34 33 32 31 29 28 27 26 25 23 21 18 22 25 25 26 25 21 20 21 23 23 22 24 20 17 22 15 12 11 12 14 17 20 21 22 22 23 21
35 35 34 33 32 31 30 29 27 26 24 23 21 17 12 9 11 22 25 25 24 23 22 23 24 20 18 16 17 18 16 13 12 13 15 18 20 21 21 22 23 23 23
34 33 33 32 31 30 29 28 25 23 20 17 16 14 12 8 9 14 19 21 22 22 22 23 22 18 15 15 12 13 14 16 18 18 18 19 20 21 21 21 20 20 21
34 33 32 31 32 30 29 25 24 23 20 16 13 11 9 7 8 13 18 20 22 22 24 22 19 15 12 9 10 12 14 14 16 19 19 18 17 18 19 20 19 19 19
33 32 32 32 31 30 28 25 27 26 24 24 19 12 9 11 14 20 24 24 22 22 23 21 19 15 13 10 9 9 11 13 14 17 17 18 18 19 19 19 20 19 18
33 32 32 31 30 29 27 24 22 18 24 23 24 24 20 12 19 20 20 21 21 21 21 20 16 13 12 11 12 13 13 13 15 15 15 16 16 16 16 17 17 17 17
34 33 31 32 29 27 24 21 17 15 16 22 26 24 25 25 23 21 20 20 19 19 20 19 17 15 14 13 13 13 13 13 13 14 14 14 14 14 15 15 16 16 15
33 33 32 30 28 25 22 18 17 17 16 15 13 14 21 26 25 24 21 20 18 16 16 16 16 16 15 14 14 14 13 13 13 13 13 14 14 14 13 14 14 15 16
34 33 33 30 28 26 20 17 16 16 16 15 14 11 4 11 9 16 17 16 15 13 12 13 14 15 15 14 14 13 12 12 13 13 13 13 14 13 13 13 14 14 15
34 34 34 31 28 26 22 19 16 16 15 15 14 12 10 3 3 6 6 8 10 11 13 14 13 14 14 14 13 12 12 14 14 14 14 15 14 13 13 14 14 15 15
34 34 34 33 29 27 26 24 22 22 16 14 13 10 15 14 9 5 5 7 11 13 14 14 15 14 14 13 14 14 15 16 16 15 15 15 14 14 15 15 15 16 16
34 32 32 33 30 29 28 25 24 25 23 25 24 14 6 11 13 13 13 13 13 13 14 14 15 15 16 16 16 16 17 17 17 17 17 17 16 16 16 16 16 16 16
31 30 30 30 29 28 29 29 28 28 27 26 25 24 13 5 4 5 7 11 12 14 15 14 15 16 17 18 18 18 17 17 17 17 16 16 15 16 17 17 17 17 16
28 28 29 29 30 30 29 30 28 27 27 25 24 24 21 18 7 7 11 12 13 14 14 15 17 17 17 17 17 17 18 19 21 19 18 17 17 18 18 18 18 18 18
27 27 27 29 29 29 28 28 27 27 26 26 25 24 24 23 15 11 13 13 13 14 15 16 17 17 17 17 17 17 20 22 24 25 26 25 23 22 21 20 19 19 19

GFSGL_sfc_30mbdewp_060.txt.gz
Dewpoint
40 41 42 42 43 44 44 43 41 40 40 40 41 41 41 42 44 46 46 46 45 45 45 44 44 45 45 44 45 45 45 46 45 42 41 40 41 40 40 41 42 42 42
39 40 40 41 41 41 41 40 39 39 39 39 39 39 39 40 41 42 42 42 42 42 41 42 41 41 42 42 42 42 42 42 43 42 39 40 39 38 38 38 38 39 40
39 39 39 39 40 40 40 39 39 39 39 38 38 37 37 38 39 39 39 39 39 38 38 38 38 39 39 39 39 39 39 39 40 39 38 37 37 36 36 37 36 37 37
38 38 38 38 39 39 39 39 38 38 38 38 38 37 37 37 38 38 38 38 38 38 38 38 37 37 37 37 38 37 38 38 37 37 36 36 35 34 35 33 34 34 34
38 38 38 38 38 39 38 38 38 38 38 37 37 37 37 37 37 37 37 37 36 36 36 36 37 38 37 36 36 36 36 36 36 36 35 34 33 31 31 31 30 29 29
37 37 38 38 38 38 38 37 37 37 36 36 37 36 36 36 38 37 36 35 35 34 34 33 32 31 34 34 34 33 32 32 33 33 33 30 29 27 25 25 23 22 22
37 37 37 37 37 38 38 37 37 37 37 36 36 36 36 36 36 35 33 33 33 33 32 32 29 27 27 28 27 27 29 30 29 25 22 23 22 22 26 26 24 23 21
37 37 37 37 37 37 36 36 36 36 36 35 35 35 35 34 34 30 29 29 29 28 28 30 31 31 29 25 24 23 24 26 26 25 25 25 26 26 26 26 24 23 21
36 36 37 37 37 36 35 35 35 35 34 33 32 32 33 32 30 27 27 27 27 26 27 26 25 26 29 26 22 21 17 22 26 26 25 24 24 24 24 24 24 20 17
36 36 36 37 36 35 35 34 34 34 32 31 30 31 30 31 28 26 23 17 17 15 17 22 26 26 26 28 22 16 15 18 21 20 15 13 14 16 22 17 19 21 19
36 36 36 37 36 35 34 33 33 32 31 31 30 29 29 28 25 25 21 15 14 15 16 17 20 26 25 24 26 15 19 21 20 13 9 10 15 18 19 21 22 25 23
36 36 36 36 35 34 33 32 32 31 30 28 25 24 24 23 26 27 28 25 23 18 16 17 20 25 22 24 24 18 22 18 11 9 10 11 14 18 21 23 23 24 23
35 35 35 35 34 33 32 31 29 29 29 25 23 21 18 15 16 25 26 27 28 21 19 19 24 22 18 18 18 18 20 11 10 10 11 16 19 22 24 24 25 24 24
35 35 34 34 32 32 31 30 30 28 26 22 21 17 14 10 8 12 23 24 24 23 23 23 23 21 17 15 15 13 11 11 12 14 15 16 18 21 21 22 21 21 21
34 34 33 33 33 31 30 30 29 24 22 19 16 14 13 11 9 10 14 17 18 21 22 23 22 19 16 11 9 9 10 11 12 14 15 16 15 16 19 20 20 20 20
34 33 33 32 33 31 30 31 29 25 25 24 22 16 13 13 13 17 19 20 25 25 24 22 20 18 13 10 8 7 8 10 12 15 16 17 16 17 18 19 20 19 19
34 34 33 33 32 31 31 29 22 25 29 28 27 26 22 11 18 19 23 25 23 22 20 20 21 18 15 13 12 13 14 14 16 16 16 17 18 18 17 17 17 17 17
34 34 33 33 32 32 32 29 24 21 19 21 25 26 26 25 19 21 21 21 20 20 20 20 20 19 17 16 15 15 15 14 15 15 16 17 18 17 16 16 17 17 17
35 34 34 34 32 31 30 28 26 23 17 15 19 24 27 26 26 26 24 21 18 18 18 17 17 17 17 18 17 17 16 16 16 17 17 17 17 17 17 17 17 17 17
35 35 34 33 32 31 28 25 24 21 18 16 16 14 12 21 22 26 25 24 21 20 18 17 15 16 17 18 18 17 16 16 16 17 17 18 18 18 18 18 18 18 18
37 35 35 33 31 30 28 26 24 21 19 16 16 16 15 9 10 8 13 17 18 15 14 14 16 17 18 18 18 17 16 17 18 19 19 20 19 19 19 18 18 18 18
36 35 35 34 32 30 29 27 25 22 23 20 16 15 22 20 11 6 7 6 7 9 12 16 18 18 19 19 19 19 18 19 20 21 20 20 20 19 19 18 18 18 18
35 35 34 34 33 31 30 29 27 25 26 27 25 25 27 28 21 13 10 9 10 14 18 18 19 19 19 20 20 20 20 21 21 22 21 21 20 19 19 18 18 18 18
34 33 33 32 32 31 30 30 29 29 28 28 27 27 28 27 20 14 16 17 17 20 18 18 18 19 19 20 21 22 21 21 21 21 21 20 20 20 19 19 18 18 18
30 30 30 30 30 31 31 31 30 30 29 29 28 27 28 28 27 24 19 17 17 17 18 18 19 19 20 19 19 21 22 21 21 21 20 20 19 19 20 20 20 20 20
28 28 28 29 29 30 30 30 29 29 29 29 28 27 27 27 26 26 26 25 18 19 18 18 19 20 20 20 20 20 20 21 22 23 24 24 22 21 21 21 21 21 20

GFSGL_sfc_30mbdewp_066.txt.gz
Dewpoint
43 43 44 44 45 46 46 45 44 43 42 42 41 42 42 42 43 44 46 46 47 46 46 46 45 47 47 46 46 47 47 47 47 43 43 41 40 39 39 39 39 40 42
42 42 43 43 43 43 43 43 42 42 41 40 40 40 40 40 41 41 43 43 44 44 44 44 42 44 43 43 44 42 42 41 43 42 41 40 38 37 37 37 37 38 38
41 41 41 42 41 41 41 41 41 40 40 40 39 38 38 39 39 40 40 40 40 39 39 39 39 40 40 40 40 40 40 40 39 40 38 38 37 36 35 36 36 36 37
40 40 40 40 40 40 40 40 40 40 40 39 39 38 38 38 38 39 39 39 39 39 39 38 38 38 38 38 38 38 38 38 38 38 37 36 35 35 35 33 32 34 31
39 39 39 39 39 39 39 39 39 39 39 38 38 38 38 38 38 38 39 39 38 37 37 37 38 37 38 37 36 36 36 35 35 35 35 35 33 33 31 31 27 26 27
39 39 39 39 39 39 39 39 38 38 38 37 37 37 37 36 38 39 38 37 37 35 34 34 34 34 34 34 34 31 32 33 33 33 32 31 30 27 26 25 24 24 23
39 39 39 39 38 39 38 38 37 37 37 37 37 36 36 37 39 38 38 36 35 34 33 30 28 29 28 27 26 29 28 27 30 27 24 23 24 25 26 26 26 24 24
39 38 38 38 38 38 38 37 37 38 37 37 36 36 36 36 37 35 36 34 33 32 31 30 29 29 26 25 25 24 25 27 28 27 27 27 27 27 26 27 24 24 24
39 38 38 38 38 37 37 37 37 37 37 36 36 36 35 35 33 32 29 28 26 26 28 29 29 30 28 26 24 20 19 25 27 25 23 23 23 23 23 24 23 22 20
39 38 38 38 37 37 36 37 36 36 35 35 34 35 34 33 31 28 28 27 25 24 23 26 27 28 27 28 25 18 15 19 22 22 20 19 17 17 19 20 19 19 22
39 38 38 38 37 37 36 36 35 35 34 33 32 32 31 30 29 27 25 17 16 15 17 18 23 26 25 25 26 23 22 22 22 18 12 11 13 18 19 22 23 23 23
38 38 37 37 37 37 35 35 34 33 32 32 30 28 29 28 29 28 25 21 20 17 17 18 20 25 25 24 26 26 21 24 18 11 10 10 12 16 21 22 24 24 25
37 37 37 37 36 36 34 33 33 32 31 30 29 26 25 25 26 28 30 28 27 24 18 19 20 25 22 21 21 24 21 21 15 10 11 13 17 22 24 23 24 25 25
36 36 36 36 35 35 34 33 32 31 31 31 28 25 23 22 21 21 27 27 29 29 25 22 24 25 24 20 17 17 19 18 13 12 14 16 20 22 21 22 22 23 23
35 35 35 35 35 33 33 32 32 31 31 31 28 24 23 20 18 17 19 24 27 27 25 23 23 23 22 20 17 15 14 13 12 14 15 15 16 16 18 20 21 22 21
35 35 35 34 35 33 32 31 33 32 33 33 30 25 22 20 20 19 18 19 24 24 22 21 21 22 22 20 16 12 11 11 12 13 15 17 18 18 18 19 20 20 19
35 36 35 34 34 32 31 31 31 33 35 30 29 26 22 17 20 19 20 20 21 22 22 23 23 23 22 21 17 14 11 12 12 13 15 16 18 19 20 19 19 18 18
36 36 34 34 34 33 32 32 32 31 30 31 31 29 28 29 27 21 22 22 22 22 25 25 23 22 23 22 20 17 16 17 17 16 16 17 17 18 18 18 18 18 17
35 35 35 35 34 34 33 32 32 32 28 24 26 28 30 31 30 29 24 23 24 25 24 23 23 22 22 23 22 20 19 18 18 17 17 17 17 18 18 19 18 18 19
36 35 35 34 34 34 33 32 32 32 30 27 22 24 27 31 29 29 29 24 23 22 22 21 22 23 23 22 21 21 20 21 20 19 19 19 19 19 19 18 18 18 18
36 36 36 35 34 34 34 33 32 32 31 29 27 22 26 28 29 28 27 26 25 25 24 22 22 23 23 23 23 23 22 22 22 20 19 19 20 20 21 21 21 21 20
37 36 36 35 34 33 33 33 32 31 31 30 27 25 28 26 22 24 26 27 28 28 28 26 24 24 24 24 24 23 23 23 22 21 20 21 22 22 22 22 21 20 20
36 36 36 35 34 34 34 32 32 31 31 30 30 30 29 31 31 28 24 24 17 23 24 24 23 23 24 25 25 24 23 22 23 22 21 22 22 22 22 21 20 20 19
35 35 34 34 34 33 32 32 31 31 30 30 29 30 29 28 30 30 31 30 26 18 21 22 20 23 26 25 26 26 25 25 24 23 23 23 22 23 23 22 21 20 19
30 32 33 33 33 33 32 32 31 31 31 30 30 30 30 29 29 29 30 31 29 25 27 26 26 27 25 25 25 25 25 24 24 24 23 23 22 22 21 20 20 20 20
29 30 30 31 31 32 32 31 31 31 31 30 30 30 30 29 29 29 29 29 28 27 27 27 26 26 26 25 24 26 25 24 24 24 24 22 21 21 20 19 19 19 19

GFSGL_sfc_30mbdewp_069.txt.gz
Dewpoint
44 44 45 45 46 46 46 46 45 43 43 42 42 42 42 42 42 43 46 46 46 46 46 47 47 47 47 46 46 47 46 47 47 43 42 41 39 39 38 39 39 39 41
43 44 44 44 45 45 45 44 43 42 41 41 40 40 40 40 41 41 44 43 45 45 45 45 43 44 43 43 43 43 41 41 44 43 41 39 38 37 36 37 37 38 38
42 43 43 42 42 43 43 42 41 41 40 40 39 39 39 39 39 40 40 40 40 39 40 40 40 41 40 40 41 40 40 39 39 40 38 38 37 36 35 36 36 35 37
41 41 41 41 41 41 41 40 40 40 40 39 38 38 38 38 38 39 39 39 38 38 38 38 38 39 39 39 39 39 38 38 38 38 37 36 35 35 35 32 32 30 29
40 40 40 40 40 40 40 39 39 39 39 39 38 38 38 38 38 38 39 39 38 38 38 37 37 38 38 38 37 36 36 36 36 36 36 35 34 33 30 30 26 25 25
40 39 39 39 39 39 39 39 38 38 38 38 37 38 37 37 38 39 39 39 37 36 35 35 34 35 35 36 34 34 34 34 34 34 32 31 30 27 26 24 24 23 21
39 39 39 39 38 38 39 38 37 37 37 37 37 37 37 38 39 40 39 37 36 34 33 29 30 31 29 27 29 29 28 31 31 30 26 24 24 25 25 25 25 24 23
39 39 39 39 38 38 38 37 37 37 37 36 36 37 36 37 38 38 37 35 34 34 31 28 25 25 25 25 25 25 27 27 27 27 26 27 27 27 26 26 24 24 24
39 39 39 39 38 38 37 37 37 37 37 37 36 36 35 36 36 36 34 32 31 29 29 30 30 27 26 26 22 20 22 26 26 25 25 25 25 24 24 23 24 22 19
39 39 39 38 38 37 37 37 36 36 36 36 35 36 35 34 34 31 28 26 23 23 26 26 29 30 30 27 24 19 15 20 22 21 20 19 17 17 20 20 20 18 21
39 39 38 38 37 37 37 36 36 36 35 34 34 34 34 33 32 29 28 24 22 21 21 23 24 27 27 26 27 19 19 21 23 18 13 12 13 17 19 22 23 21 21
39 38 38 37 37 37 36 35 35 34 33 33 32 31 31 31 30 29 26 22 19 15 17 18 21 26 26 26 26 26 22 24 18 13 11 10 11 15 21 22 23 24 24
38 37 37 37 37 36 35 34 33 33 32 32 31 29 27 28 27 30 28 25 23 20 18 19 23 25 24 22 22 25 25 23 18 12 10 12 15 20 23 23 23 24 24
37 36 36 36 36 35 35 34 33 32 32 31 30 29 27 25 25 25 29 31 29 29 24 21 22 25 25 22 20 18 20 21 17 13 12 15 20 23 22 21 21 22 22
36 36 36 36 36 34 34 34 33 33 33 32 31 29 26 23 23 23 23 27 27 30 28 24 23 24 24 22 20 17 16 17 16 15 15 15 16 17 19 20 21 20 21
35 35 35 35 35 34 33 33 35 34 34 34 33 30 27 26 25 25 24 23 26 28 27 22 21 22 22 22 20 18 15 13 14 14 14 15 16 17 17 19 19 19 19
35 35 35 35 34 33 32 32 31 33 34 35 35 33 30 25 25 26 24 22 23 26 24 22 22 22 23 24 22 19 16 14 15 14 14 14 15 16 19 18 18 19 18
36 36 35 35 34 33 32 32 32 31 31 33 35 32 30 26 24 24 23 22 22 23 22 22 23 24 24 24 22 21 19 17 16 15 14 14 15 17 17 17 17 17 17
36 36 36 35 34 34 33 32 32 32 32 31 31 32 33 31 29 30 25 23 21 21 22 23 25 25 24 24 23 23 21 19 18 17 17 16 16 16 16 17 17 19 19
36 36 36 35 34 34 33 32 32 32 32 30 27 27 27 31 30 30 30 26 23 23 24 24 24 25 24 24 25 24 22 21 23 21 19 19 18 17 18 18 17 17 17
37 36 37 36 34 34 33 32 32 32 32 31 30 27 27 27 29 29 29 29 27 24 24 23 23 24 25 24 24 22 22 22 22 21 21 20 20 20 20 20 19 19 20
34 36 36 36 34 34 33 34 33 33 32 32 31 29 30 31 30 31 30 29 28 26 25 25 24 25 28 26 25 26 24 22 22 22 21 21 21 22 22 21 21 21 21
32 33 35 36 35 34 34 33 33 32 32 32 32 30 31 31 31 27 24 25 26 28 29 29 29 29 26 26 26 25 23 22 23 23 22 23 22 22 22 21 21 21 20
31 32 33 34 34 34 33 33 32 32 32 31 31 31 30 30 31 31 31 31 29 29 27 28 28 27 25 25 25 24 24 24 24 25 25 23 22 23 23 22 21 21 20
31 31 31 32 32 33 32 32 32 31 31 31 30 30 30 30 30 29 29 30 30 29 27 25 27 27 26 26 27 26 27 26 26 25 25 24 23 22 22 22 21 21 20
30 31 31 31 31 31 31 31 31 31 30 31 30 30 30 30 29 29 29 29 29 28 27 26 27 26 26 26 26 27 27 27 28 27 26 23 22 22 21 21 20 19 18

GFSGL_sfc_30mbdewp_072.txt.gz
Dewpoint
44 44 45 45 46 47 47 47 46 44 44 44 43 43 43 42 42 43 43 46 46 46 46 46 48 48 48 47 47 47 47 47 48 42 42 41 39 39 39 40 39 40 40
44 45 45 46 46 46 46 45 44 43 42 42 42 41 41 41 41 41 42 45 44 45 45 45 45 45 44 44 44 43 42 42 45 42 41 39 38 37 37 37 38 38 37
44 44 44 44 44 44 44 43 42 41 41 40 40 39 39 39 39 40 40 41 40 41 41 42 41 42 41 41 41 41 40 40 40 41 38 38 37 36 36 36 36 35 35
43 43 43 42 42 42 42 41 41 41 40 39 39 38 38 38 38 39 39 39 38 38 38 38 39 39 39 39 39 39 39 39 39 39 37 36 35 35 35 32 34 30 29
41 41 42 42 41 41 41 40 40 40 40 39 38 38 38 38 38 38 39 39 39 38 38 37 38 38 39 39 38 37 38 37 37 37 36 35 35 33 31 31 28 25 25
40 40 41 40 40 40 39 39 39 38 38 38 38 38 38 37 38 39 39 39 39 38 37 36 36 36 37 37 36 36 35 35 35 35 34 33 31 30 27 25 23 22 19
40 40 40 39 39 39 39 38 38 37 37 37 37 37 37 37 39 39 40 38 37 36 35 33 32 33 31 28 31 30 31 34 33 33 31 29 27 26 25 25 24 23 21
40 40 39 39 39 38 38 38 37 36 36 36 36 36 37 37 40 39 39 36 35 34 32 30 29 26 25 25 26 26 26 27 27 26 26 26 26 26 26 25 24 23 24
40 39 39 39 38 38 38 37 37 36 36 36 36 36 36 36 39 38 36 34 34 33 30 28 25 24 27 26 24 23 25 26 27 28 28 29 29 29 26 25 24 23 18
40 40 39 39 38 38 37 37 36 37 36 36 36 36 36 36 37 36 34 31 31 28 28 29 32 28 29 27 22 19 18 22 23 22 21 19 17 18 22 21 22 19 20
40 40 39 39 38 37 37 36 36 36 36 36 35 35 35 35 35 34 31 26 24 22 24 25 27 31 30 29 26 18 17 22 24 20 15 12 13 17 20 21 22 19 19
40 39 38 38 38 37 36 36 36 35 35 34 34 33 33 33 34 34 30 26 23 20 19 21 23 28 27 26 26 25 24 24 19 15 11 10 11 15 20 22 23 24 23
39 38 37 37 37 36 36 36 35 34 34 33 32 32 31 31 30 31 29 27 23 18 17 19 22 26 26 25 25 27 27 23 19 14 11 12 14 19 22 23 24 24 23
38 37 36 36 36 36 36 35 34 33 33 32 32 31 30 28 28 28 30 29 26 26 22 22 24 26 26 23 22 21 23 22 20 15 12 13 20 22 22 22 20 21 22
37 36 36 36 36 35 35 35 34 34 34 33 32 32 30 28 27 26 26 29 29 29 27 23 23 23 25 24 22 19 17 19 21 17 14 15 16 20 21 21 21 20 20
36 36 36 36 36 35 34 34 36 36 36 36 35 33 30 31 29 28 28 28 30 31 30 24 22 23 23 23 22 20 18 17 17 18 18 16 16 17 17 18 18 18 18
37 36 36 36 36 34 34 33 32 34 37 37 37 36 35 30 31 29 28 28 26 27 28 26 24 22 21 22 22 21 21 18 18 17 16 16 15 16 19 18 18 18 18
38 38 37 36 35 35 34 33 33 32 32 32 36 37 37 35 31 30 28 27 25 25 26 25 24 23 23 23 23 24 22 20 17 15 15 15 15 15 16 17 17 17 17
38 37 37 36 35 35 34 33 32 32 32 32 32 35 37 36 29 26 25 23 23 23 23 23 24 24 24 24 24 24 23 21 19 17 17 16 15 16 16 18 16 18 18
37 37 37 36 35 34 33 32 32 32 32 32 31 32 32 34 31 30 28 26 24 22 22 22 24 25 25 25 25 24 23 23 22 21 19 19 19 17 17 18 18 18 19
33 36 37 36 35 34 34 33 32 32 32 32 32 31 29 29 31 31 31 30 28 25 24 24 24 25 26 26 25 24 23 22 22 22 21 21 20 19 19 19 21 20 20
32 33 36 36 35 34 34 34 33 32 32 32 33 33 34 33 31 31 31 30 30 29 27 26 25 25 26 25 24 23 22 22 22 22 21 20 20 21 21 21 21 21 20
30 30 32 34 35 35 35 34 33 33 33 33 33 32 32 32 32 31 31 31 32 31 31 28 28 27 27 28 29 29 28 27 26 24 21 21 21 22 22 22 21 21 21
31 30 30 32 33 34 34 33 33 33 33 32 32 32 31 31 32 32 31 29 30 30 30 30 30 30 29 28 28 28 27 25 24 23 22 22 22 23 23 22 22 22 21
30 30 30 30 31 32 33 33 33 32 32 32 31 31 31 31 31 31 31 31 31 30 29 29 28 28 27 27 26 26 26 27 25 25 24 25 24 23 23 23 22 22 21
29 29 30 30 30 31 31 31 31 31 31 31 31 30 30 30 30 30 29 29 29 29 29 27 26 26 26 26 26 26 27 28 28 27 26 24 23 23 22 22 21 21 20

GFSGL_sfc_30mbdewp_075.txt.gz
Dewpoint
44 44 45 45 46 47 48 47 46 45 46 46 45 44 43 43 42 42 43 43 46 46 46 46 46 47 47 47 47 47 48 47 48 42 42 42 41 41 40 40 40 40 39
44 44 45 46 46 46 46 46 45 44 44 43 43 42 42 41 41 41 41 42 45 44 44 45 45 45 45 44 45 44 43 42 45 42 40 40 38 38 37 38 38 38 36
44 44 45 45 45 45 45 44 43 42 42 41 41 40 40 40 40 40 40 40 41 40 41 43 42 42 42 41 42 42 41 40 40 42 38 38 37 36 36 36 36 35 31
43 44 44 43 44 44 43 43 42 41 40 40 39 39 39 39 38 39 39 39 38 38 38 38 39 40 40 40 40 40 40 40 39 39 38 37 36 35 35 33 34 30 28
42 42 43 42 42 42 42 41 41 40 40 39 38 38 38 38 38 38 38 38 38 38 38 38 38 38 39 39 38 38 38 38 38 38 36 35 35 34 32 32 31 26 25
41 41 42 41 41 41 40 40 39 39 39 38 38 38 38 38 38 40 39 38 39 39 38 37 38 39 39 38 37 37 36 36 36 36 35 34 33 31 29 28 25 23 19
41 41 41 41 40 40 39 39 38 38 37 37 37 37 37 37 38 40 40 40 38 38 37 35 34 34 31 31 32 33 34 35 34 34 33 31 30 28 27 25 24 23 20
41 40 40 40 39 39 38 38 37 36 36 36 36 36 36 37 38 40 40 38 37 36 35 33 32 29 27 27 26 26 25 26 26 26 27 26 26 26 26 25 24 23 23
40 40 40 39 39 38 38 37 36 36 36 36 36 36 36 36 38 39 38 35 35 34 31 30 28 25 25 27 24 25 25 27 30 30 30 30 30 29 28 25 23 22 19
40 40 40 39 39 38 37 37 36 36 36 35 35 35 36 36 38 38 37 34 33 32 31 29 30 25 28 28 23 21 21 24 23 21 21 20 17 20 26 22 24 20 19
40 40 40 39 39 38 37 36 36 36 36 36 35 35 36 36 36 38 37 31 31 30 28 26 27 32 31 29 27 20 18 21 25 20 16 13 14 18 20 20 21 19 18
39 39 39 39 38 37 36 36 35 35 35 35 35 35 35 35 36 35 35 30 27 23 22 23 25 30 32 30 29 25 23 24 23 17 12 11 12 15 20 22 23 23 23
38 38 38 37 37 36 36 35 35 35 35 34 33 33 33 33 33 36 36 32 28 23 19 19 23 25 28 28 27 28 27 24 19 15 12 12 14 17 21 23 24 24 24
38 37 36 36 36 36 35 35 35 34 34 33 33 32 33 32 32 31 32 31 30 27 23 22 23 24 28 26 25 24 25 24 22 18 14 13 20 22 21 23 22 22 21
37 36 36 36 37 35 35 35 35 36 36 34 33 33 32 31 30 31 30 29 29 27 24 22 23 24 25 25 23 20 18 21 23 20 16 14 16 21 22 23 21 21 20
37 37 36 36 36 36 35 35 37 36 37 37 36 34 33 34 33 33 32 29 31 31 28 24 22 22 22 23 23 23 21 19 19 21 20 16 16 17 18 20 20 19 18
38 38 37 37 36 36 35 34 34 35 37 37 37 37 37 33 35 33 32 31 29 31 31 29 26 23 22 23 23 22 21 20 20 18 17 17 16 17 19 18 18 19 18
35 38 38 37 37 36 35 34 34 33 33 34 37 37 37 37 37 34 35 31 29 28 28 29 28 26 25 23 23 22 22 22 21 19 18 16 16 15 15 17 18 18 18
33 35 38 37 37 36 35 34 34 33 33 33 33 35 37 37 38 37 36 31 27 26 25 26 26 26 25 24 24 23 23 23 22 19 18 17 16 15 15 16 16 18 18
32 33 36 37 36 35 34 33 33 32 32 32 32 32 34 36 34 33 32 27 27 25 23 24 25 25 25 24 24 24 24 24 23 22 20 19 17 16 15 16 17 16 16
31 32 33 35 35 34 34 33 33 32 32 32 32 33 34 33 33 33 31 27 26 27 24 23 23 25 26 26 25 25 24 24 23 23 22 20 19 18 18 18 19 18 19
31 31 31 32 34 34 34 34 33 33 32 32 33 33 35 34 32 32 31 31 30 30 29 26 25 26 26 27 26 26 25 24 23 23 22 21 21 20 20 20 20 20 21
29 29 30 30 31 33 34 34 33 33 32 33 33 32 33 34 32 30 32 32 32 32 31 29 29 30 30 29 29 27 25 23 24 25 23 22 21 21 21 21 21 21 21
28 28 29 30 30 31 32 33 33 33 33 33 32 32 32 32 32 32 32 32 32 32 32 32 31 31 30 29 30 30 30 29 29 28 26 24 23 23 22 22 22 22 22
29 29 28 28 29 29 31 33 33 33 33 32 32 32 32 32 32 32 32 31 31 30 30 30 31 31 31 30 28 28 28 29 27 25 24 22 22 22 23 22 22 22 22
28 27 27 28 29 29 30 31 32 32 32 32 31 31 31 31 31 31 30 30 30 30 30 29 28 28 28 27 27 27 28 29 29 27 25 24 23 23 23 22 21 21 21

GFSGL_sfc_30mbdewp_078.txt.gz
Dewpoint
45 44 44 45 46 48 51 50 49 49 49 49 47 46 44 44 43 43 43 43 44 45 45 46 46 46 47 47 48 48 48 47 46 43 42 43 42 42 42 41 41 40 40
44 44 44 45 46 46 47 47 46 46 46 45 44 43 42 42 41 41 41 41 42 43 44 44 44 45 45 45 45 44 44 43 44 43 41 40 39 39 39 39 39 38 36
43 43 44 45 45 45 45 45 44 44 43 43 42 41 41 40 40 39 39 40 40 40 40 41 43 42 42 42 42 42 42 41 41 42 39 39 37 37 37 37 36 35 28
42 43 43 44 44 44 44 43 43 42 41 40 40 40 39 39 38 38 38 38 38 38 38 38 39 40 40 40 40 41 40 40 40 40 39 37 37 36 36 34 35 32 29
41 42 42 43 43 43 43 42 41 41 40 39 39 38 38 38 38 38 38 38 38 38 38 38 38 39 40 40 39 39 39 39 39 38 37 36 35 34 34 33 33 28 25
39 40 42 42 42 41 41 41 40 39 39 38 38 38 37 38 39 40 39 38 38 38 38 38 39 40 40 39 38 38 37 37 37 37 37 36 35 33 30 30 28 26 26
39 40 41 41 41 40 40 39 39 38 38 38 37 37 37 37 39 39 40 39 38 38 38 37 35 35 33 33 34 34 35 34 35 35 35 33 32 30 28 26 24 23 20
39 40 40 40 40 40 39 38 37 37 37 36 36 36 36 36 39 39 39 39 37 37 37 36 34 32 29 29 26 26 25 27 26 26 29 29 27 28 27 26 25 23 23
38 39 40 40 39 39 38 38 37 36 36 36 36 36 36 36 38 39 39 36 35 35 34 33 32 30 29 29 24 24 25 27 31 31 31 30 30 29 27 24 22 21 19
37 38 40 40 39 39 38 37 36 36 35 35 35 35 35 35 37 39 38 35 34 34 33 30 33 25 25 28 23 23 22 23 24 23 22 19 20 26 29 23 25 22 19
37 38 39 39 39 39 37 36 36 36 35 35 35 36 36 36 36 38 39 35 34 32 32 30 29 32 29 30 27 20 19 23 25 20 16 14 14 20 20 20 23 20 18
37 37 38 38 38 38 37 36 35 35 35 35 36 35 35 36 37 37 38 35 32 30 30 28 26 29 32 32 30 25 22 25 24 19 14 12 12 15 20 22 23 23 23
37 37 37 37 37 37 36 36 35 34 34 34 35 34 34 34 35 38 37 37 31 25 22 22 25 27 31 31 30 30 26 22 20 18 15 13 14 17 22 23 24 24 24
37 37 36 36 36 36 36 36 35 34 34 34 34 33 34 34 33 33 36 37 35 30 26 23 23 25 26 28 28 27 27 25 22 19 15 14 19 20 20 23 22 24 22
37 37 37 36 36 35 34 35 35 36 36 35 35 34 33 33 33 33 33 33 32 30 25 22 23 24 25 26 24 22 21 23 25 22 18 14 15 20 22 24 22 21 19
33 35 37 37 36 36 35 35 37 37 37 38 36 35 34 35 34 34 35 34 33 31 26 23 21 22 23 25 24 23 21 19 21 23 21 18 15 17 20 22 21 19 18
31 32 35 37 37 36 35 35 34 36 38 38 38 37 36 34 36 36 36 35 35 33 29 26 24 22 22 23 23 23 22 22 21 20 20 20 18 16 18 18 18 18 17
29 31 33 36 37 37 35 35 35 34 34 34 37 38 38 38 37 36 37 36 33 34 31 30 28 27 25 24 23 23 23 22 21 20 19 17 16 16 15 17 18 17 17
29 30 32 33 36 37 36 35 34 34 34 34 34 36 38 37 38 37 37 34 31 29 29 30 29 29 27 26 25 24 23 22 21 21 20 18 17 15 14 15 15 18 18
29 31 32 32 33 35 35 34 33 33 33 33 33 33 34 36 35 35 35 34 32 31 29 28 27 27 27 26 25 25 23 23 24 22 21 20 18 17 15 14 15 14 16
30 29 30 31 32 33 34 34 33 33 32 33 33 34 34 34 33 34 33 32 32 31 30 25 26 26 26 26 25 24 24 23 24 24 22 21 20 18 17 17 17 17 16
29 29 28 30 31 31 32 34 33 33 32 32 33 33 35 35 33 33 33 33 30 28 28 27 27 27 26 26 26 25 25 24 25 24 24 23 23 23 20 19 19 19 18
28 27 26 27 30 30 31 31 33 33 32 33 33 33 33 33 33 33 33 33 32 30 29 28 27 27 27 27 28 28 28 26 25 25 24 23 23 22 21 21 20 20 19
28 26 27 28 29 30 30 30 32 33 33 33 33 33 32 32 33 33 32 32 32 32 33 32 32 31 31 31 31 31 30 29 28 27 27 25 23 23 22 21 21 20 21
27 27 28 28 26 27 28 29 30 32 32 33 32 32 32 32 32 33 32 32 32 32 32 32 32 32 32 31 30 30 30 30 29 29 28 26 24 24 23 22 21 21 21
28 27 26 26 25 27 28 29 29 30 31 32 32 32 32 32 32 32 32 31 31 31 31 30 30 30 30 30 30 29 29 30 30 28 25 24 23 22 22 22 22 21 21

GFSGL_sfc_30mbdewp_081.txt.gz
Dewpoint
44 44 44 45 46 48 51 52 53 52 52 51 50 48 47 46 45 45 44 44 44 45 46 47 47 47 47 48 49 49 48 48 45 45 44 44 43 43 43 42 42 41 41
43 44 44 45 46 46 48 49 48 49 50 49 48 46 44 43 43 42 42 43 43 44 44 44 44 45 46 46 47 46 46 46 45 45 42 41 41 41 41 40 40 38 37
42 42 43 44 45 45 46 45 45 45 45 45 44 43 42 41 41 40 40 40 40 40 41 41 43 43 43 43 43 43 44 43 42 43 41 40 39 39 38 38 37 36 29
39 41 42 43 44 44 44 44 44 43 43 42 42 41 40 40 39 39 39 39 39 39 39 39 40 41 41 41 41 41 41 41 41 41 40 39 38 37 37 36 35 34 30
39 39 40 42 43 43 43 43 42 42 41 40 40 39 39 39 38 38 39 38 38 38 39 38 39 39 40 40 40 40 40 40 40 39 38 38 36 35 35 34 35 31 28
38 39 40 41 42 42 42 42 41 40 40 39 39 38 38 38 39 40 39 38 38 38 38 38 39 40 40 40 40 39 38 38 38 38 38 37 36 35 33 33 31 30 32
38 38 39 40 41 41 41 41 40 39 39 38 38 38 38 38 40 41 41 39 38 38 38 38 37 37 35 36 37 36 35 34 36 36 36 36 34 33 31 29 28 28 24
37 38 39 40 40 41 40 40 39 38 38 38 38 38 38 37 40 40 41 39 38 37 37 37 36 34 32 31 29 28 26 28 27 28 32 32 31 31 30 30 28 27 25
37 38 38 39 40 40 40 39 38 37 37 37 37 37 37 37 39 40 39 37 35 35 36 36 35 33 32 32 26 24 25 28 31 32 30 30 30 30 28 26 26 25 23
37 38 38 39 40 40 39 38 37 37 36 36 36 36 36 36 38 40 39 36 35 34 33 32 34 31 33 32 25 23 23 23 25 26 26 23 27 30 28 25 26 23 21
37 37 37 38 39 39 39 37 37 36 36 35 35 35 35 36 36 38 40 36 35 33 33 32 31 35 29 28 28 23 22 24 26 21 18 15 18 23 22 21 25 25 23
35 37 37 37 37 38 38 37 36 36 36 34 34 35 36 36 37 38 39 37 36 33 32 32 31 33 32 30 31 26 23 25 25 21 17 14 13 17 22 23 23 24 25
34 35 37 37 36 37 37 36 35 36 35 35 35 35 35 35 36 38 38 40 36 31 30 30 30 30 31 32 32 31 25 25 23 20 17 16 17 20 24 25 26 25 25
32 33 35 37 37 36 36 36 36 35 35 35 34 34 35 35 34 35 37 38 38 33 26 26 26 27 29 31 32 31 28 24 21 19 17 16 19 21 21 24 23 24 24
30 30 32 35 36 36 35 36 36 36 37 35 35 35 35 34 34 35 35 35 36 33 27 24 24 24 25 27 28 26 27 27 26 23 20 16 15 19 20 23 23 24 20
27 27 29 32 34 36 36 36 37 37 38 38 37 36 36 36 36 36 36 36 36 35 26 23 21 22 23 25 26 24 22 23 24 26 24 21 18 19 21 23 23 22 21
27 27 27 29 30 34 36 35 35 36 39 39 39 38 37 35 37 36 36 37 37 36 29 25 24 22 22 24 25 25 23 22 23 23 24 23 21 20 19 21 22 21 20
27 27 28 28 31 32 35 35 35 34 34 35 38 39 39 38 36 37 37 37 35 36 33 29 27 25 23 23 24 24 24 24 23 23 22 22 22 21 19 20 20 19 19
27 27 28 28 29 32 33 35 35 34 34 35 34 37 39 39 39 37 37 35 33 33 32 31 31 29 27 26 26 25 25 24 24 23 23 21 21 20 18 18 19 19 19
27 27 28 27 27 29 32 32 34 33 33 32 32 34 35 37 36 36 37 35 33 32 32 32 31 31 29 28 28 27 26 26 25 24 22 23 22 19 18 17 17 17 18
27 27 28 26 25 27 30 31 32 33 32 32 32 34 34 34 34 35 35 34 33 33 32 32 32 31 30 29 28 27 26 25 25 25 24 23 22 21 19 19 19 18 17
27 28 29 27 25 27 29 30 31 32 32 32 32 33 35 35 34 34 34 34 34 34 33 32 31 31 29 28 28 27 26 25 26 25 25 24 23 22 21 20 20 19 19
28 28 27 25 24 25 28 29 30 30 32 32 33 32 33 34 34 33 34 34 34 32 32 32 30 28 29 29 29 28 27 26 27 28 27 25 24 23 23 23 22 21 21
28 27 26 26 26 27 29 29 28 30 31 32 32 32 32 33 33 33 33 34 34 32 30 29 29 29 28 29 29 29 29 30 31 29 29 27 25 25 25 24 23 22 22
27 27 26 26 26 27 25 26 27 28 29 31 32 32 33 33 33 33 33 33 33 32 32 32 32 31 31 31 31 31 31 31 30 29 29 27 26 25 24 23 22 22 22
28 27 26 25 25 25 25 25 27 28 29 30 32 32 32 32 32 32 33 32 32 32 32 32 32 32 32 32 32 31 31 31 31 30 29 27 25 25 24 23 22 22 22

GFSGL_sfc_30mbdewp_084.txt.gz
Dewpoint
43 44 45 45 46 48 51 53 55 56 56 57 56 54 53 51 50 49 47 46 46 46 47 47 47 48 48 49 49 48 49 48 46 46 46 45 46 45 44 43 43 42 42
41 43 44 45 46 46 47 49 51 53 54 53 52 51 49 47 46 46 45 44 44 44 45 46 45 45 46 46 47 46 47 47 47 45 45 43 43 43 42 41 40 38 38
39 39 42 44 45 45 46 46 47 48 50 51 50 48 46 45 44 43 43 43 43 43 43 43 44 44 44 45 45 45 46 45 46 45 44 43 42 41 40 39 38 36 31
39 39 39 41 44 45 45 45 45 46 46 47 46 45 44 43 42 41 41 41 41 41 41 41 42 43 43 44 44 43 43 43 43 42 43 41 40 39 39 37 36 35 31
36 39 39 40 42 44 44 45 44 44 44 44 43 42 41 41 41 40 40 40 40 40 40 40 41 41 41 42 41 42 42 41 42 41 40 39 38 37 36 36 36 34 31
34 36 39 39 40 42 44 44 44 43 42 42 41 41 40 39 40 40 40 39 39 38 38 39 39 39 40 41 41 40 40 40 39 39 39 38 38 37 36 34 34 32 32
36 37 39 39 40 41 42 43 43 43 42 41 41 40 40 39 41 41 40 39 39 39 40 40 40 39 39 40 39 38 38 37 37 38 37 37 37 36 34 33 32 32 32
37 38 39 39 39 41 41 42 42 42 42 41 41 40 40 40 42 42 42 40 41 39 39 39 40 38 36 36 33 32 32 31 30 31 35 36 34 34 34 34 33 32 29
35 36 37 38 38 40 41 41 42 42 41 41 41 40 40 40 41 42 42 40 38 37 37 39 38 36 35 34 30 28 25 27 31 31 30 31 31 32 32 30 29 28 25
34 35 36 38 38 39 41 42 42 41 41 41 40 40 40 40 40 41 40 38 36 36 36 37 37 36 35 35 30 28 24 22 27 30 29 31 31 30 28 27 30 31 25
34 35 35 37 38 38 40 41 41 40 39 39 39 38 38 39 38 40 40 37 36 35 35 34 35 36 35 36 32 24 21 22 25 23 19 18 24 28 25 20 25 30 28
30 33 35 37 37 38 38 40 39 39 39 38 37 37 37 37 37 39 40 38 37 35 35 34 34 36 34 31 32 27 24 23 23 20 17 15 14 17 22 22 23 25 25
27 29 31 31 34 37 37 38 38 37 37 37 36 36 37 37 37 38 39 40 38 36 35 34 34 35 36 31 32 30 26 24 21 20 18 17 19 21 26 27 27 27 27
26 26 27 29 32 33 36 36 37 36 36 36 35 35 36 36 36 36 38 39 40 38 33 33 33 33 33 31 31 32 27 25 21 20 19 19 20 22 21 24 24 23 24
25 25 26 26 27 31 33 36 36 37 37 36 36 36 36 35 35 36 36 37 38 36 29 26 27 26 25 28 30 30 29 27 24 22 20 17 14 18 19 23 23 24 23
26 26 26 26 26 27 30 32 36 38 38 39 39 37 37 38 37 37 37 37 37 37 28 22 22 22 22 22 26 27 28 28 27 27 26 23 18 19 20 23 24 24 23
26 26 26 27 27 27 27 29 32 36 38 39 39 39 38 37 38 38 38 38 37 38 31 27 23 22 22 23 24 26 26 26 28 28 28 27 26 24 22 22 22 22 23
26 27 27 27 27 27 28 28 31 33 33 34 38 39 39 39 38 38 38 38 36 37 34 30 28 26 24 24 25 27 27 26 25 25 27 28 27 25 23 23 23 22 21
25 26 26 27 27 28 28 27 29 32 33 34 35 36 39 39 39 38 38 36 34 34 35 32 30 30 31 27 26 27 28 27 27 27 27 27 26 26 24 23 23 22 21
25 26 26 26 27 28 26 26 27 28 32 33 33 33 35 37 36 36 36 36 35 34 34 33 32 32 32 31 29 28 28 27 27 27 27 27 26 26 24 22 21 21 20
26 26 26 27 27 28 24 25 27 28 29 31 32 33 34 33 33 35 35 35 35 34 34 34 33 33 33 32 31 30 29 29 29 29 28 27 27 25 24 23 22 20 21
26 24 25 26 28 26 24 25 26 28 30 30 32 33 34 33 32 33 34 35 35 35 35 34 34 33 33 33 31 31 30 29 29 29 28 27 26 25 25 23 22 22 23
25 26 26 27 27 25 24 24 25 27 29 30 31 32 32 31 32 32 33 35 35 35 35 34 34 33 33 33 32 31 30 29 29 30 28 27 26 25 25 24 23 23 24
26 26 25 25 25 25 26 26 28 27 26 27 29 31 32 32 32 32 33 34 34 34 34 34 33 33 33 32 32 32 31 31 30 30 29 30 29 27 28 27 26 25 25
25 27 26 26 26 26 26 26 24 24 25 26 28 31 32 32 32 33 33 34 34 33 33 32 32 33 32 31 31 31 31 30 31 32 31 31 30 29 28 27 27 26 25
28 26 25 25 25 25 24 24 24 24 26 27 28 30 32 32 32 33 33 33 33 33 32 32 32 32 32 31 31 31 32 32 32 31 31 30 29 28 27 26 26 25 24

GFSGL_sfc_30mbdewp_090.txt.gz
Dewpoint
40 43 45 46 46 47 48 50 53 56 57 59 60 60 60 60 60 59 58 57 56 55 54 53 52 51 50 50 51 50 50 49 47 47 47 47 46 45 45 45 45 44 44
40 39 41 44 45 46 46 47 48 50 53 55 57 59 59 59 58 58 56 55 54 53 51 51 50 50 49 50 50 49 49 49 47 45 46 45 45 45 43 42 41 40 40
35 39 40 40 40 43 45 46 46 47 49 52 54 55 56 56 56 56 55 53 52 50 49 49 48 48 47 48 48 48 47 47 46 46 45 45 43 42 41 41 40 38 35
34 35 38 39 40 41 42 45 46 46 46 48 51 52 52 50 50 51 49 48 47 47 47 47 47 46 46 46 46 46 46 45 45 45 44 43 42 41 41 39 38 38 36
36 36 37 39 39 40 41 42 45 45 45 46 47 47 46 46 46 46 45 45 45 45 45 45 45 45 45 45 45 45 44 44 44 43 42 41 40 39 38 39 38 37 36
35 36 38 39 39 40 40 41 42 44 45 44 44 45 44 43 43 44 44 44 43 43 42 42 42 42 42 42 42 43 44 42 41 40 40 40 40 39 38 37 36 35 35
35 35 36 37 38 39 40 40 42 42 44 44 43 43 43 43 42 44 44 42 42 41 41 41 40 41 40 41 42 41 41 41 41 40 39 39 39 39 37 36 35 34 34
34 34 35 36 36 38 39 40 41 42 43 43 44 43 42 42 42 42 43 41 41 40 40 40 39 39 40 40 39 38 37 36 36 36 39 38 38 38 37 36 35 34 29
31 31 33 35 35 36 36 37 39 40 41 42 43 43 42 42 42 42 42 40 39 39 40 40 40 39 40 40 38 36 34 32 31 30 33 35 37 37 36 35 33 32 30
29 30 30 32 34 35 36 36 37 38 40 41 42 43 43 42 42 43 42 40 39 38 38 38 40 39 39 40 36 34 32 30 30 31 32 33 34 34 35 32 32 31 29
25 26 27 28 29 31 33 34 36 37 38 40 41 41 42 42 42 43 43 40 39 38 37 37 38 39 38 39 36 33 31 28 30 30 29 30 30 29 26 27 31 31 28
23 24 24 25 26 26 28 31 33 34 36 39 39 40 41 41 42 43 43 42 40 37 37 36 37 39 38 38 38 33 32 29 28 28 24 25 27 28 22 24 27 28 30
22 23 23 24 24 25 25 26 30 32 31 33 36 37 39 39 39 41 43 43 41 37 37 36 36 38 38 37 39 36 29 26 25 24 22 18 20 24 25 26 27 27 29
21 22 22 23 23 24 25 26 28 29 30 30 32 34 36 37 38 38 40 42 43 40 37 37 37 37 37 37 38 38 29 25 24 24 21 22 26 25 24 25 23 25 23
21 22 22 23 24 25 26 26 27 28 29 28 28 33 35 35 37 38 38 39 41 40 37 36 36 35 35 35 34 33 30 27 25 23 23 23 23 24 24 25 24 24 24
22 23 24 25 26 26 27 27 28 27 27 28 28 30 32 37 39 39 39 40 40 41 36 34 33 33 33 34 33 32 30 28 26 23 22 22 22 22 22 25 25 23 23
21 23 24 26 26 26 26 27 26 27 27 26 27 27 29 33 36 39 39 39 39 40 36 34 33 33 33 33 33 32 31 30 28 26 23 21 19 20 22 24 24 24 24
21 24 25 25 25 24 24 24 24 25 25 24 25 28 27 30 34 37 38 39 37 38 37 33 33 33 32 31 31 31 31 30 29 27 26 24 21 21 22 23 24 24 24
21 23 25 25 24 24 24 26 27 26 23 23 23 24 26 28 32 35 36 37 33 34 36 33 33 32 29 29 29 30 32 30 30 29 28 28 25 23 23 24 24 24 24
23 25 25 25 24 24 24 25 25 27 26 23 23 23 24 26 28 30 33 34 34 34 35 34 34 33 31 31 31 31 30 30 30 29 29 29 28 27 25 24 24 24 24
24 25 26 25 24 24 24 24 25 26 27 22 23 24 24 26 27 30 31 33 34 34 34 35 34 33 32 31 31 31 30 29 28 28 27 28 28 27 26 25 25 24 24
27 29 28 27 27 26 25 26 26 27 25 21 23 25 25 24 26 27 30 32 33 35 36 35 35 33 32 32 32 31 31 31 30 28 27 27 27 26 26 25 24 24 24
28 29 28 28 28 27 25 25 24 24 24 23 24 25 29 26 23 24 29 31 33 34 35 35 33 32 33 33 33 33 31 31 31 30 27 27 27 26 26 25 24 24 23
29 28 27 26 26 26 26 26 25 25 26 25 26 27 25 22 23 24 28 32 32 33 34 33 32 32 32 32 33 33 33 33 33 31 29 28 27 27 26 25 25 24 24
27 27 27 26 26 27 26 25 24 24 24 23 23 22 22 23 25 27 29 32 32 31 32 32 32 32 32 32 32 32 33 33 32 32 30 29 28 28 27 26 26 26 26
25 24 25 27 25 24 24 23 23 23 23 25 25 25 25 26 26 27 29 31 31 31 31 31 32 32 32 32 33 33 33 33 32 31 30 29 28 28 28 28 28 27 27

GFSGL_sfc_30mbdewp_093.txt.gz
Dewpoint
40 41 44 45 46 47 47 49 51 54 56 57 59 60 59 59 59 59 59 59 58 58 57 57 56 54 54 53 53 52 50 48 45 46 47 46 46 45 46 46 45 45 45
36 40 40 40 41 43 45 46 47 47 49 53 55 57 59 59 60 59 59 58 57 56 55 55 55 53 52 52 51 50 49 49 47 46 46 45 45 45 44 44 43 42 42
35 36 38 39 39 40 41 43 46 46 46 48 51 53 55 57 57 58 58 57 56 56 55 54 54 52 51 50 49 49 49 49 47 45 45 44 43 43 42 42 41 39 37
36 37 38 38 39 40 41 41 42 45 45 45 47 49 51 52 53 55 55 54 54 54 52 52 51 50 49 48 48 48 47 46 46 45 44 43 42 42 41 40 39 39 38
35 36 37 39 39 40 40 40 41 42 44 45 45 46 47 47 48 48 49 50 50 49 49 49 49 48 48 48 47 47 46 45 44 43 43 42 41 39 39 40 39 38 38
35 35 36 37 37 38 39 40 41 41 42 43 44 44 44 45 44 45 46 46 46 46 46 46 46 46 46 46 47 46 46 44 43 43 42 41 40 40 39 38 37 36 36
34 35 35 35 35 36 38 38 39 40 41 41 42 43 43 43 43 44 45 44 44 44 44 43 43 43 44 44 44 45 45 44 43 42 40 40 39 40 39 37 36 35 35
32 31 31 32 34 35 36 37 37 38 39 40 41 43 43 43 43 43 43 43 42 43 42 42 41 41 41 41 41 40 40 41 41 41 40 39 39 39 38 38 37 35 29
30 29 29 31 31 32 33 34 36 37 38 39 40 41 42 43 43 43 42 41 40 40 39 40 40 39 40 41 39 37 37 35 36 36 37 39 39 39 38 35 34 33 31
27 26 27 28 28 30 30 31 33 35 36 37 39 41 42 42 43 43 43 40 39 39 40 39 40 39 41 42 38 36 35 33 30 31 32 35 38 38 38 35 34 32 31
26 25 25 26 25 26 29 28 31 30 34 34 34 37 40 41 42 43 44 41 40 39 38 38 39 41 40 41 39 36 34 32 31 29 29 31 31 32 31 31 32 31 30
23 23 23 24 24 25 25 27 26 29 30 30 30 32 35 38 41 42 43 44 41 39 38 38 38 40 41 40 40 36 35 32 31 28 27 28 29 28 25 27 30 30 28
21 21 22 22 23 24 24 25 25 28 28 29 29 29 31 34 37 39 41 42 44 41 39 38 38 39 41 40 40 37 36 30 29 28 26 26 27 27 24 26 26 28 28
19 20 21 22 23 24 24 26 26 27 27 28 28 26 27 30 33 37 38 39 41 43 39 38 38 39 40 38 38 38 34 29 27 27 25 23 23 25 23 24 23 24 23
18 19 21 22 23 24 26 26 27 28 28 28 26 26 26 27 29 33 37 38 38 40 38 37 37 36 36 36 36 37 32 28 27 25 23 23 22 24 23 23 21 23 17
17 19 22 24 25 26 26 26 27 28 28 29 28 25 25 27 28 31 34 36 39 39 38 35 35 35 34 34 34 34 33 30 27 25 24 23 23 23 23 23 22 20 20
17 19 22 24 25 26 25 24 23 24 25 25 27 25 25 27 28 29 32 36 37 39 36 35 34 33 33 33 33 33 32 31 29 26 25 24 24 23 24 23 23 22 22
18 20 23 25 25 25 24 24 24 24 24 25 25 25 24 24 27 29 30 34 35 37 36 35 34 33 33 32 32 32 33 32 30 30 27 24 23 22 23 23 23 23 22
21 21 23 24 25 24 25 24 24 24 26 26 26 24 24 23 24 25 29 31 32 33 35 35 34 34 33 33 32 33 32 32 31 30 28 24 23 22 22 23 23 23 23
24 24 24 24 26 29 27 24 24 25 24 26 25 25 23 24 25 27 28 30 31 32 33 34 34 34 33 32 32 32 32 32 31 31 29 27 24 23 21 23 23 23 23
24 25 26 27 29 28 27 26 26 25 25 25 26 23 21 22 25 28 28 28 29 32 33 33 34 33 32 32 31 31 31 31 32 31 31 29 28 25 24 24 23 23 24
27 27 26 26 28 28 27 27 26 26 25 26 25 24 24 25 26 28 25 24 28 32 33 33 34 34 33 32 31 31 31 31 31 31 30 30 28 27 26 24 24 24 24
27 26 25 28 28 26 26 26 26 25 24 24 24 24 24 25 28 23 22 24 28 30 33 33 34 34 34 33 33 32 31 31 32 31 30 29 28 27 26 25 24 24 23
25 25 24 24 25 26 26 26 26 27 26 24 25 26 26 25 24 22 24 25 28 30 32 32 33 34 33 32 32 33 33 33 33 32 31 29 28 27 26 25 24 24 24
25 25 24 24 24 25 26 25 24 24 23 23 23 23 24 24 23 23 25 26 28 29 30 32 33 33 32 32 32 33 33 33 32 32 31 30 29 27 26 25 25 25 24
25 25 25 25 25 24 24 23 22 23 23 23 24 24 25 25 25 26 27 28 27 28 30 32 32 32 32 32 32 32 32 32 32 32 31 31 28 27 26 25 25 25 25

GFSGL_sfc_30mbdewp_096.txt.gz
Dewpoint
41 41 42 43 45 47 47 47 48 50 52 55 56 58 59 59 59 59 59 58 58 58 57 57 57 57 56 56 55 53 52 49 47 46 46 46 46 46 47 46 46 45 46
36 38 39 39 40 40 41 43 45 46 46 48 51 54 56 59 59 58 58 58 58 57 57 56 56 55 55 55 54 53 52 50 48 44 45 45 45 45 45 45 44 44 43
37 37 38 39 39 39 40 41 42 43 45 45 47 49 51 53 56 57 59 58 58 58 57 56 56 55 54 54 53 52 51 50 48 46 44 44 43 44 43 43 42 40 39
36 37 37 38 38 39 39 40 41 42 43 44 45 45 47 48 50 52 54 55 56 56 56 56 56 54 54 53 52 51 50 48 47 46 44 43 42 42 42 41 40 40 39
35 36 36 36 37 37 38 39 40 41 41 42 43 44 44 45 46 47 48 50 52 53 53 53 53 53 53 52 51 49 48 47 46 45 43 42 41 39 40 40 40 39 39
33 33 33 33 34 35 36 38 38 38 39 40 40 41 42 43 44 45 45 46 47 48 49 50 50 50 50 50 49 48 48 46 45 44 42 42 41 40 40 39 38 37 36
31 31 30 30 31 32 34 34 35 37 37 38 39 40 41 42 43 44 44 44 45 46 46 46 46 47 48 48 48 48 48 47 47 45 43 42 40 40 39 37 37 36 36
26 29 28 28 29 29 31 31 32 34 35 37 37 39 40 41 43 44 44 43 43 43 44 44 44 44 45 45 45 46 46 46 46 44 43 41 41 40 39 38 37 35 31
24 27 26 26 26 27 27 29 30 31 33 34 37 38 39 40 42 43 43 43 41 40 40 42 43 42 42 43 42 41 41 40 40 41 41 41 41 40 39 37 35 35 32
23 24 26 26 25 25 25 26 29 29 29 32 35 34 35 37 39 42 43 43 41 40 40 39 41 41 42 43 40 39 39 38 36 36 37 39 40 40 40 37 35 35 32
25 25 25 25 25 24 25 27 26 27 27 29 29 30 31 33 35 39 41 42 41 40 40 40 39 41 41 43 40 38 38 34 34 32 33 34 35 36 38 35 34 34 31
19 20 22 23 23 23 23 24 24 25 26 27 27 28 30 31 33 35 37 39 40 41 39 40 40 40 42 42 42 38 37 34 32 30 30 31 32 32 31 31 31 30 30
17 18 18 18 20 22 22 23 24 25 26 26 27 28 28 27 29 31 33 35 37 39 41 40 39 40 40 42 42 40 38 33 31 28 27 28 29 29 26 27 28 28 27
16 17 18 19 19 22 24 24 25 25 26 26 27 25 25 25 26 28 30 32 35 38 39 40 40 39 40 40 41 40 38 32 31 29 27 26 27 25 25 25 26 26 26
16 17 17 18 19 21 22 25 26 27 28 27 28 28 25 23 24 26 27 28 31 34 38 37 37 37 37 38 38 38 36 33 30 29 27 24 26 25 24 23 23 23 20
18 18 18 19 20 22 24 25 28 27 27 27 27 27 28 27 26 26 27 28 29 32 35 35 34 35 35 35 35 35 35 33 31 28 27 25 23 25 24 23 21 21 17
19 19 20 21 22 23 25 25 24 24 25 26 26 26 26 23 24 24 25 28 29 32 34 35 34 34 34 35 34 33 32 33 32 30 29 28 25 24 24 23 21 19 19
23 23 23 22 23 24 25 25 24 23 23 24 25 26 27 27 24 23 25 27 29 32 32 34 34 34 34 33 33 33 32 31 31 30 29 28 27 26 24 23 23 21 19
24 23 24 24 25 25 26 27 25 25 23 23 25 25 26 26 22 22 22 25 28 29 31 31 34 34 33 33 32 32 32 32 31 30 29 28 27 26 25 24 24 24 22
23 23 24 26 26 27 27 27 27 27 26 25 24 24 25 25 24 25 26 27 28 28 29 31 32 34 34 33 33 32 31 31 31 31 29 28 27 27 25 24 24 23 24
22 23 24 25 25 26 27 27 27 26 25 25 25 24 25 25 25 25 26 27 28 26 28 30 32 33 34 33 32 32 32 31 31 31 30 28 27 26 24 24 23 23 24
23 24 24 24 23 25 26 27 26 26 26 25 25 26 25 24 24 24 25 28 23 24 27 30 31 32 32 32 32 31 31 31 31 31 31 30 28 27 24 24 23 23 23
24 24 23 23 23 23 24 25 25 25 25 25 25 25 24 24 25 25 27 23 23 23 26 30 30 31 32 34 33 32 31 32 32 32 31 30 29 28 26 24 24 23 23
26 23 23 23 23 24 25 25 26 25 25 24 23 23 23 23 24 24 25 21 23 25 27 30 30 31 32 33 33 33 33 33 33 33 32 30 29 29 28 26 25 24 24
23 22 23 23 23 23 23 23 23 22 23 23 23 23 23 23 24 24 25 26 26 26 26 28 28 30 32 33 32 32 32 33 33 33 32 31 29 29 28 27 26 25 25
23 22 22 22 21 22 22 22 22 22 22 21 21 22 22 23 23 24 25 26 27 28 28 26 29 31 32 32 32 32 32 33 33 32 32 31 29 28 28 27 26 25 25

GFSGL_sfc_30mbdewp_099.txt.gz
Dewpoint
39 40 40 42 43 43 43 45 46 47 48 49 53 55 56 58 59 58 58 59 58 58 58 58 57 58 57 57 57 55 54 53 50 46 47 47 47 48 47 47 47 47 47
37 38 38 39 39 40 40 40 42 42 45 45 46 48 51 53 56 58 58 58 57 57 57 57 56 57 56 56 55 54 53 52 50 46 45 45 46 46 46 45 45 45 44
37 37 37 37 37 38 39 39 41 41 42 43 44 45 46 47 49 51 54 56 57 57 57 57 56 56 55 56 55 54 54 52 50 46 44 44 44 45 44 44 43 42 42
36 35 34 34 35 36 37 38 39 40 40 40 41 42 43 44 45 46 48 50 52 54 56 57 57 56 55 55 54 54 53 52 50 48 45 43 43 43 43 42 41 41 40
34 32 31 32 33 33 34 36 37 38 38 39 39 40 41 42 43 44 44 44 46 48 52 53 54 55 56 56 54 53 52 50 48 46 44 42 41 41 41 41 41 40 40
31 30 29 29 30 30 32 32 32 34 35 37 37 38 39 40 42 44 44 44 44 45 47 49 50 51 52 53 53 53 52 50 48 46 43 43 41 41 41 40 39 38 37
26 29 28 28 28 28 29 30 30 31 32 33 35 36 37 39 41 42 43 44 43 43 44 45 46 47 48 49 50 51 50 50 49 47 44 43 42 41 40 39 37 37 37
23 23 25 26 25 25 25 26 27 30 30 31 32 35 36 35 36 40 41 43 43 42 42 42 43 44 45 46 47 47 47 48 47 46 45 43 43 42 42 40 39 36 33
23 23 24 25 25 25 24 25 26 29 28 28 31 32 32 33 35 33 38 41 41 41 41 41 41 42 43 45 45 44 44 44 45 46 47 46 45 44 41 38 36 36 34
23 23 24 24 24 24 24 24 25 25 26 28 29 29 30 30 33 33 34 39 39 40 41 41 41 41 42 43 43 42 41 41 40 41 41 42 42 42 40 39 37 37 34
20 19 20 22 22 23 23 24 24 24 25 26 26 27 28 30 31 31 32 35 38 39 40 40 40 41 42 43 44 41 41 38 38 38 38 38 39 40 39 37 37 37 34
18 17 17 17 18 19 21 22 22 23 24 25 26 26 27 29 29 28 29 31 33 36 37 39 39 41 41 42 43 41 41 38 36 35 35 35 35 36 36 34 34 32 31
16 16 16 17 17 18 19 20 22 23 24 25 26 26 27 27 26 28 27 28 30 31 35 38 39 40 41 41 42 42 40 35 34 33 33 32 33 32 31 30 29 28 28
17 17 17 17 18 19 19 20 22 23 24 25 26 26 27 25 25 25 26 26 27 27 30 32 35 39 40 40 41 42 39 35 34 33 31 29 29 29 29 28 28 27 27
19 18 18 19 19 19 20 21 23 25 26 27 27 27 25 26 26 25 28 28 28 29 29 31 33 35 36 37 38 39 38 35 34 32 28 27 27 27 27 26 27 26 27
21 21 21 22 22 22 22 22 25 27 29 28 27 27 27 27 27 25 25 27 27 29 29 28 30 34 34 35 35 36 35 34 33 31 29 28 27 26 26 24 24 25 24
23 23 23 23 22 22 22 23 24 25 26 26 26 26 27 27 26 26 25 25 26 27 28 30 31 33 33 34 35 35 34 34 33 31 30 29 28 27 26 24 23 23 20
24 23 23 23 23 24 24 25 25 25 24 24 24 25 26 26 26 25 23 22 23 26 28 29 30 31 33 33 33 33 33 32 31 31 30 29 28 27 26 25 23 21 19
22 22 22 23 25 25 25 25 25 25 24 25 26 26 25 26 26 26 25 24 24 25 27 28 29 31 31 33 33 32 32 31 31 31 30 29 28 28 27 25 25 23 20
20 20 21 22 24 24 23 23 24 24 26 26 25 25 25 24 25 25 26 25 26 25 27 28 28 29 31 32 33 32 31 32 31 31 31 29 29 28 27 26 26 25 24
22 23 23 23 23 23 23 23 24 24 25 23 23 25 25 26 27 25 24 24 25 26 28 24 26 29 31 31 33 32 31 31 31 31 30 29 28 27 27 27 26 25 26
23 23 23 24 22 21 22 24 24 24 24 23 23 24 25 26 25 24 24 24 25 27 25 25 26 28 30 31 32 31 31 31 31 31 31 29 28 28 27 26 26 25 25
23 24 22 20 21 21 22 23 23 24 25 25 25 25 25 23 23 23 23 24 26 25 24 24 24 26 29 31 32 32 31 31 32 32 31 29 28 27 27 26 25 24 23
23 22 20 20 21 21 21 21 23 21 22 23 22 22 22 22 23 23 24 24 25 25 25 25 26 25 28 30 31 32 32 33 32 32 32 30 28 28 27 26 25 24 23
22 21 20 19 19 20 20 20 20 21 22 22 21 21 20 21 21 21 22 23 24 25 27 27 28 28 28 29 31 32 32 32 32 32 32 31 30 29 27 26 26 25 24
21 20 20 20 19 19 19 18 18 18 19 20 20 20 20 20 20 21 21 22 23 24 27 28 29 28 28 29 31 32 32 32 32 32 32 31 30 29 28 27 26 26 25

GFSGL_sfc_30mbdewp_102.txt.gz
Dewpoint
40 39 39 39 41 42 41 41 42 43 44 46 47 49 50 52 54 56 58 58 58 57 58 57 57 58 58 58 57 57 56 56 53 47 47 48 48 49 48 49 50 50 50
37 36 36 36 37 37 39 39 40 40 41 42 43 44 45 46 47 49 51 54 57 57 57 57 57 57 57 57 57 56 55 55 52 47 45 46 47 48 48 47 47 47 47
36 33 32 33 33 34 36 37 38 38 38 39 40 40 41 42 44 45 46 47 50 51 55 57 56 57 56 56 56 55 54 53 52 48 45 45 45 46 45 45 45 44 44
33 30 29 30 31 31 33 33 34 36 36 37 37 38 39 40 42 43 44 44 44 45 48 51 53 55 56 56 55 55 54 53 52 49 45 45 44 45 45 43 41 42 41
30 29 27 28 28 28 28 30 31 32 32 34 35 36 37 37 39 42 43 43 43 43 44 46 49 51 52 53 55 55 54 53 52 50 44 43 43 42 43 43 42 41 41
24 26 27 26 26 26 26 27 27 28 30 31 30 32 35 36 36 35 40 41 42 43 42 43 45 46 48 49 50 52 54 53 51 49 46 45 43 44 44 42 40 39 38
23 23 25 26 25 25 26 25 25 26 29 28 29 30 33 34 33 33 33 38 40 41 42 41 42 43 44 45 47 48 50 51 52 49 48 47 44 44 43 41 40 39 39
22 21 22 23 23 24 24 23 23 25 27 27 27 29 30 29 31 31 34 34 37 39 40 40 41 42 42 43 44 45 46 48 50 50 49 48 47 44 43 43 41 39 35
21 20 20 22 22 22 21 22 23 25 25 25 27 28 28 28 30 31 31 33 34 34 35 39 40 41 41 43 43 43 43 45 46 48 48 47 45 44 44 41 38 37 35
21 20 21 22 22 21 21 21 23 24 24 25 25 26 28 27 29 30 29 30 32 33 36 35 37 39 42 43 42 42 41 42 42 43 45 45 45 45 43 43 39 38 34
21 19 19 19 18 19 19 20 21 21 22 22 24 25 26 27 29 30 28 28 30 30 31 35 37 38 39 40 42 42 42 42 41 40 41 41 41 42 41 41 40 40 36
17 17 17 17 18 18 18 20 20 21 22 22 23 24 26 27 29 29 28 27 28 26 27 29 34 35 37 39 40 42 43 41 39 38 37 37 38 38 37 36 36 36 34
18 18 18 18 18 19 19 19 19 20 21 22 24 25 26 27 27 28 27 26 26 26 26 27 28 30 32 35 39 41 42 39 37 35 35 36 36 36 34 32 30 30 30
19 19 19 19 20 20 20 20 20 21 22 23 25 26 26 27 26 25 25 27 30 27 26 27 28 29 30 33 38 40 41 37 36 36 35 34 32 32 32 31 29 29 29
20 21 21 21 22 22 22 22 22 23 24 26 27 28 27 26 27 27 27 27 28 28 28 29 28 25 27 33 35 37 38 37 35 35 32 31 31 31 30 29 30 29 29
22 22 22 22 22 22 22 23 24 25 26 27 27 27 27 26 28 27 27 26 28 26 28 28 28 28 30 31 33 34 35 35 35 33 32 31 30 30 28 27 28 29 28
23 22 22 22 22 22 22 22 22 23 25 25 26 26 26 28 31 26 25 26 26 25 23 24 27 27 29 30 31 33 33 35 35 33 32 30 30 29 29 27 27 27 26
23 21 21 22 22 22 22 24 22 21 22 22 24 25 27 27 26 26 26 26 25 23 22 24 26 27 27 29 30 32 32 33 32 32 31 30 29 28 27 26 26 26 25
21 20 20 21 21 22 23 23 21 20 21 23 25 26 25 25 26 25 25 26 24 24 24 24 26 28 27 27 30 31 32 31 31 31 31 30 29 29 27 27 26 27 25
19 21 22 23 23 21 22 21 20 22 22 22 24 23 23 25 24 24 25 26 26 25 25 26 27 27 27 28 30 31 31 31 31 31 31 30 29 29 28 27 26 26 26
21 21 22 22 21 21 22 20 20 22 23 23 24 24 23 26 26 27 25 23 23 24 24 25 26 23 25 28 29 30 31 31 31 31 31 30 29 28 28 27 27 27 25
21 22 22 22 21 21 21 23 22 21 22 23 24 25 23 23 24 23 22 22 23 24 25 26 25 24 24 25 28 28 29 30 31 31 31 30 29 29 28 27 27 27 25
23 22 22 21 20 20 21 21 19 20 22 21 22 22 21 21 22 22 22 22 23 24 25 26 25 24 24 25 29 30 29 29 31 32 31 30 29 28 28 27 26 26 25
24 21 20 19 19 20 19 19 19 18 17 18 19 19 22 20 20 20 21 21 22 23 23 24 26 27 27 26 28 30 30 31 32 31 32 30 28 29 27 27 26 26 26
20 20 21 20 19 19 19 18 18 17 17 17 17 18 18 18 17 18 18 19 21 22 23 24 26 28 28 28 28 29 30 31 32 32 31 31 29 28 27 26 26 26 25
19 19 20 19 19 18 18 18 18 17 16 16 17 17 17 17 17 17 18 20 21 22 22 23 23 25 28 29 29 29 30 32 32 32 31 31 29 28 28 27 26 25 25

GFSGL_sfc_30mbdewp_105.txt.gz
Dewpoint
37 37 35 36 38 40 40 39 38 39 40 40 42 43 44 45 47 47 49 50 52 56 57 57 57 58 57 58 58 57 57 56 53 54 51 49 50 51 51 53 53 54 55
34 31 32 30 31 32 33 34 35 34 34 35 35 36 38 40 43 44 44 45 46 48 50 53 57 57 57 57 57 56 56 56 55 53 48 47 48 50 50 49 49 51 51
29 28 27 28 27 28 29 29 30 31 31 32 33 33 34 36 40 42 43 43 43 44 46 47 49 51 54 56 56 56 56 55 55 53 46 46 45 48 47 47 47 47 48
29 27 27 27 26 26 27 27 27 30 29 29 30 31 33 35 35 38 38 40 41 42 43 44 45 47 49 50 51 55 55 54 53 50 46 45 45 46 47 45 43 44 44
28 27 27 27 26 26 26 26 26 28 29 28 28 28 31 33 33 34 34 36 37 39 41 42 43 44 44 46 48 49 52 53 52 50 46 44 44 44 44 44 44 42 42
23 24 25 25 25 25 25 25 25 25 28 27 27 28 29 28 31 31 32 33 33 36 38 40 41 42 43 44 45 45 47 48 51 50 48 46 46 46 46 44 43 40 39
22 22 22 23 23 24 24 23 22 22 25 25 25 26 28 29 29 30 30 32 33 33 34 36 38 39 41 42 43 44 45 46 48 50 49 47 47 46 45 43 42 42 43
21 18 19 19 19 20 20 20 20 22 23 24 25 26 27 27 29 29 29 31 32 33 34 34 34 35 38 40 41 42 43 44 46 48 49 51 49 47 47 45 44 42 38
20 19 19 20 20 20 20 20 21 22 23 23 24 25 26 27 29 29 29 30 30 30 30 31 32 34 33 35 38 41 41 42 44 46 47 50 50 48 47 45 41 39 36
20 20 20 20 20 20 20 20 21 22 22 23 23 24 26 27 28 29 29 28 27 28 28 29 30 33 35 35 37 38 38 40 42 42 44 46 48 47 46 45 41 40 35
20 19 19 19 19 19 20 20 21 22 22 22 22 23 24 26 27 29 29 28 27 27 25 24 25 28 29 31 33 36 38 40 41 42 41 42 44 44 44 44 42 42 38
18 18 18 19 19 19 20 20 20 20 20 21 22 23 24 26 28 28 28 27 26 24 24 25 25 26 28 28 29 32 34 39 40 39 38 38 39 41 42 41 41 42 40
19 19 19 20 20 21 21 20 20 20 21 21 22 23 25 26 27 28 28 27 27 25 26 24 25 25 26 27 28 30 32 37 38 37 36 37 38 39 36 34 33 33 33
20 20 21 20 22 22 22 21 21 22 22 22 23 24 25 27 27 26 26 28 29 29 28 29 29 27 23 24 26 30 35 37 37 36 36 37 34 34 33 32 32 33 31
21 21 21 21 22 22 22 22 23 23 24 24 25 26 26 26 27 27 27 27 27 28 29 28 28 27 24 26 29 30 32 35 35 36 35 33 32 33 32 32 32 32 31
21 21 21 21 21 21 21 21 22 22 23 22 23 24 26 27 27 27 28 27 27 26 27 28 23 23 24 25 25 28 30 33 34 35 34 33 32 32 32 32 32 32 30
22 21 21 20 21 21 21 20 21 21 22 22 22 22 23 25 27 27 25 24 25 27 28 23 21 21 24 26 26 26 28 31 33 33 32 32 32 31 31 29 30 31 29
22 21 20 20 21 22 22 23 20 20 21 20 20 21 23 23 24 24 23 24 27 26 24 23 23 23 24 26 26 25 28 30 31 32 31 31 31 31 30 28 29 29 28
21 19 20 22 23 22 20 20 20 20 20 20 21 21 22 23 23 23 25 25 25 26 24 23 24 25 26 27 26 26 27 30 31 31 31 31 30 30 29 29 29 29 27
19 20 22 22 22 21 21 21 20 19 20 20 20 20 22 24 24 25 25 26 26 24 23 23 24 25 25 26 25 26 26 29 30 31 31 31 30 30 29 28 29 29 28
20 21 22 21 20 20 21 20 21 20 18 19 19 22 19 20 23 21 21 22 22 22 22 23 24 24 25 24 24 25 25 27 29 30 31 31 30 29 30 29 28 29 28
22 22 22 22 21 20 19 19 19 18 18 18 18 19 18 21 21 20 20 20 21 22 23 24 24 23 25 25 24 24 25 26 29 29 30 31 30 30 29 28 28 28 26
22 22 21 20 19 19 20 19 18 18 18 18 17 16 17 18 21 21 19 19 20 20 22 22 22 22 25 27 26 25 26 27 28 29 29 30 30 29 29 28 28 26 26
24 21 19 20 20 19 18 18 18 17 17 17 17 16 16 17 17 18 18 19 20 21 21 22 23 23 24 26 28 29 29 30 30 30 31 30 29 30 28 28 28 27 26
20 18 18 19 18 18 18 17 17 17 17 17 16 16 16 17 16 17 17 18 19 19 20 21 22 23 24 24 26 28 29 30 30 31 31 30 30 29 28 28 27 27 26
17 18 18 18 18 17 17 17 17 17 17 17 16 17 16 16 16 17 17 18 18 19 20 20 21 21 23 24 25 27 28 29 31 32 32 31 29 28 28 27 27 26 26

GFSGL_sfc_30mbdewp_108.txt.gz
Dewpoint
32 31 29 31 33 32 32 35 36 34 34 33 35 35 37 39 43 43 44 45 46 46 48 49 50 54 58 58 58 57 57 57 54 54 55 55 53 54 54 54 55 55 55
32 28 30 28 25 25 26 26 26 26 26 26 25 26 27 29 32 37 39 41 42 43 44 46 47 49 50 54 57 57 56 57 55 54 54 52 51 52 53 52 53 54 55
23 23 23 22 22 22 23 22 21 23 23 22 23 23 25 27 28 30 30 32 34 36 39 41 43 45 47 48 48 49 54 56 55 54 53 48 49 49 49 50 50 50 53
25 24 24 24 25 24 23 22 21 21 22 21 21 21 23 25 26 29 29 30 30 33 36 38 39 41 41 42 45 47 48 49 54 54 52 47 46 46 48 46 45 46 47
24 23 24 23 23 22 22 21 20 19 20 21 20 19 20 21 21 29 28 27 28 28 28 31 36 39 40 42 42 43 44 46 47 50 48 46 45 45 45 46 45 45 44
20 20 19 17 17 18 18 18 17 18 18 18 18 19 21 20 25 29 29 26 25 25 25 28 30 33 35 37 39 42 43 43 44 45 48 47 47 47 46 45 45 41 40
19 17 16 16 15 16 16 15 16 16 17 18 17 18 18 20 24 28 29 26 26 26 27 28 27 28 33 33 35 37 39 41 43 44 44 46 48 48 47 45 45 43 44
18 15 15 16 16 17 17 17 17 18 19 19 20 20 20 21 25 28 29 27 27 27 26 26 25 25 26 32 31 32 34 36 39 41 44 46 48 50 48 46 45 44 42
17 16 17 17 17 18 18 19 19 19 20 20 20 21 22 22 25 28 29 26 26 25 24 24 25 25 27 30 30 33 32 33 35 39 41 43 45 46 49 48 45 42 37
18 18 18 18 18 18 19 19 21 21 21 21 22 22 22 23 25 27 28 25 23 23 23 23 23 24 27 28 28 26 28 29 33 36 38 39 41 45 47 48 45 42 41
19 19 19 19 18 18 19 21 21 20 20 21 20 20 20 22 24 27 28 26 24 23 22 21 22 24 25 27 27 27 27 29 30 32 35 38 39 41 44 47 47 44 42
19 19 17 18 18 18 19 18 18 18 18 18 18 19 20 21 23 26 28 27 26 25 23 22 23 24 25 25 25 25 26 26 29 31 33 34 37 39 41 44 45 44 45
18 16 17 18 17 19 18 18 18 19 19 19 19 19 20 21 22 23 25 25 26 27 26 26 28 27 27 26 24 23 24 26 30 31 32 34 36 39 40 38 35 36 35
17 17 18 17 19 18 19 19 19 20 20 21 21 20 21 22 22 22 23 24 25 25 25 27 28 30 26 25 23 24 26 28 29 30 33 35 36 35 35 35 34 34 34
18 18 18 18 19 18 19 20 20 21 21 22 22 22 22 23 23 27 26 27 28 26 28 27 27 26 23 22 23 23 25 27 28 30 32 32 34 34 33 33 34 33 33
19 18 18 19 18 19 19 19 20 21 23 23 23 22 22 23 25 25 27 29 26 27 27 26 27 24 21 21 21 23 24 24 25 28 30 31 32 32 32 31 32 32 33
20 19 18 18 19 19 20 19 20 20 20 21 21 21 21 22 22 25 25 24 23 24 26 25 23 21 21 23 23 24 25 25 26 29 30 31 31 32 31 31 31 32 32
20 20 19 19 20 20 20 20 19 19 19 19 19 20 21 21 21 22 22 23 23 23 24 23 24 22 22 23 24 25 25 26 26 28 30 30 31 31 31 31 31 31 30
20 18 18 20 21 21 21 19 20 19 18 19 20 19 18 19 20 21 23 25 23 22 23 24 22 23 23 24 24 26 25 25 25 26 29 30 31 31 31 31 31 31 30
18 19 21 21 21 20 19 19 19 19 19 18 17 17 18 20 20 19 19 18 18 19 20 21 22 22 23 23 24 25 24 24 24 25 27 30 30 31 30 30 30 30 29
18 20 20 20 20 20 19 19 19 20 19 16 16 16 17 19 18 18 18 18 18 19 20 21 22 22 23 23 24 24 23 23 23 24 27 29 30 30 31 30 30 31 30
20 20 20 20 19 19 19 20 19 18 16 16 16 15 16 16 16 16 17 19 18 19 20 22 22 22 23 24 24 25 25 24 25 26 27 27 29 30 31 30 30 30 29
21 21 20 19 18 19 19 18 17 16 16 16 16 15 15 15 15 15 15 16 17 19 20 21 21 22 22 23 24 26 26 25 26 27 27 27 29 30 30 29 29 29 28
22 20 18 17 18 18 18 17 17 16 16 15 15 15 15 15 15 16 16 17 18 19 20 21 21 21 22 23 24 25 27 28 29 30 29 28 28 30 30 29 29 28 28
20 18 17 17 17 17 17 16 16 16 15 16 16 16 16 17 17 17 17 18 19 19 20 20 21 21 22 23 24 24 25 25 26 29 30 29 29 30 30 29 29 28 27
17 15 16 16 16 16 16 16 16 16 16 17 18 19 19 18 18 18 19 19 20 20 20 21 21 22 22 23 23 24 25 26 27 28 31 30 30 30 30 29 28 28 27

GFSGL_sfc_30mbdewp_111.txt.gz
Dewpoint
28 28 26 26 29 28 26 26 27 28 28 29 28 29 29 31 34 36 36 38 40 41 43 44 45 47 48 50 50 52 56 56 54 54 54 56 55 55 55 56 56 56 56
29 27 26 26 24 22 21 21 21 22 21 21 22 22 23 24 28 29 31 31 33 34 36 38 41 44 46 47 46 47 48 49 52 53 54 54 54 54 55 54 54 55 56
23 22 22 23 23 23 23 23 21 20 20 18 18 18 20 21 23 25 26 26 28 29 31 34 37 39 40 40 42 45 46 47 47 48 52 54 53 51 52 53 53 53 54
23 23 22 21 21 22 22 21 17 16 16 17 17 17 17 18 18 23 24 24 25 26 27 28 30 34 35 38 39 41 42 43 45 46 47 49 48 48 49 48 47 47 49
20 20 20 19 18 17 16 16 16 16 16 16 16 16 17 18 16 26 26 25 23 23 25 24 27 31 33 38 36 38 39 39 41 42 44 46 45 45 46 47 47 46 45
18 17 16 15 14 15 15 14 14 15 16 16 16 17 17 16 20 25 28 27 24 24 25 27 27 27 28 30 32 35 35 35 37 38 40 41 44 47 47 46 46 43 42
19 17 15 14 14 15 15 15 16 16 17 18 18 19 19 19 21 25 28 28 25 26 27 28 26 24 27 27 29 32 32 33 34 35 37 39 43 45 47 46 45 44 44
18 16 15 15 16 16 17 17 17 18 18 19 20 20 20 21 22 25 28 28 27 27 27 26 25 24 25 29 29 29 29 29 31 32 33 35 39 41 42 43 46 46 44
16 16 17 17 17 17 17 18 19 20 20 21 21 21 22 22 23 25 28 28 27 24 23 22 23 23 23 27 27 27 27 27 28 29 31 33 35 38 39 42 41 43 42
16 18 18 18 18 17 18 19 21 21 21 21 22 22 21 21 22 24 27 26 23 22 22 21 22 22 25 26 26 24 24 24 26 28 28 30 32 34 38 39 42 41 43
18 18 19 18 17 17 18 20 21 21 20 21 19 19 18 19 20 23 26 26 25 25 23 22 22 22 25 25 26 26 26 25 25 25 26 28 30 32 34 38 41 41 42
18 18 16 16 16 16 17 18 18 17 17 17 18 18 19 19 21 22 24 25 25 25 24 24 24 26 27 28 28 27 26 25 25 25 27 29 30 32 32 34 37 41 42
17 15 15 16 16 16 17 17 17 18 19 19 19 20 20 20 21 22 22 23 25 25 26 27 27 26 26 27 27 25 24 25 26 26 26 27 29 31 33 35 37 37 37
16 16 16 17 17 18 18 18 18 19 19 19 19 21 21 21 22 23 24 26 26 26 27 29 27 27 26 25 26 24 24 25 24 25 26 28 28 29 31 34 35 36 34
16 16 17 17 17 17 17 18 19 20 20 21 22 23 22 22 22 22 23 24 25 28 27 27 27 26 26 27 24 24 23 24 25 25 24 25 26 28 29 33 34 34 32
17 17 17 18 18 18 18 19 20 21 22 22 22 22 22 22 22 23 25 25 26 25 24 25 25 25 25 23 23 23 24 24 25 25 25 26 27 29 29 31 32 32 31
18 18 18 19 17 18 19 20 20 21 20 21 21 21 21 21 22 24 23 23 24 24 25 24 24 25 24 23 23 23 23 25 26 26 25 25 27 29 30 30 31 31 30
18 20 20 18 19 19 20 21 21 20 20 20 20 20 20 19 19 20 22 22 24 24 23 22 23 24 25 23 23 23 23 24 26 24 24 25 26 28 29 29 30 30 30
19 19 18 19 20 20 21 21 20 20 20 19 20 19 18 18 18 19 19 19 20 19 18 19 21 21 22 22 22 23 23 24 23 23 23 24 26 28 28 30 30 31 31
19 18 20 20 20 20 20 20 20 19 20 20 19 18 18 19 20 19 17 18 18 18 18 20 20 21 22 22 22 23 23 23 23 23 23 24 25 28 27 29 30 30 30
18 18 20 20 19 20 19 20 20 20 21 18 18 18 17 18 20 17 17 17 17 20 22 20 20 21 22 22 23 23 23 23 24 25 24 24 26 26 28 29 30 30 30
19 19 20 20 19 19 19 20 21 20 19 17 17 17 16 17 17 17 17 17 17 17 19 19 20 20 20 21 22 22 21 22 24 25 25 26 26 26 28 28 30 30 30
20 20 20 20 19 18 18 19 19 18 18 17 17 17 17 17 17 17 17 17 18 19 19 20 20 21 21 22 23 24 23 23 23 25 26 27 27 27 28 28 29 29 29
20 20 19 18 17 18 18 18 18 17 17 17 16 16 17 18 18 19 20 20 20 20 20 21 21 21 22 22 23 23 24 25 26 26 25 26 26 27 28 29 29 29 29
21 20 19 17 17 18 18 17 16 16 17 17 16 17 18 20 20 20 21 21 22 22 21 21 22 22 22 22 22 23 23 23 25 26 26 27 28 28 28 29 29 29 28
20 18 17 17 17 17 17 16 16 17 17 17 18 19 20 20 21 21 21 22 22 22 22 23 23 23 23 23 23 23 24 26 27 27 28 29 28 28 30 29 29 28 27

GFSGL_sfc_30mbdewp_114.txt.gz
Dewpoint
28 28 26 25 25 24 23 23 24 24 23 24 25 26 27 28 32 34 33 34 34 35 37 38 40 43 44 46 44 45 46 47 46 47 50 56 57 57 57 58 58 58 57
27 25 25 25 24 23 23 23 21 20 20 18 18 19 20 22 24 26 27 28 30 32 34 35 35 38 41 40 41 43 44 45 45 44 46 48 53 56 56 56 56 56 56
24 23 22 22 23 22 22 20 17 17 17 18 18 18 18 19 19 24 25 26 26 26 28 30 31 34 36 34 40 38 41 41 43 43 43 46 49 51 52 53 54 54 55
23 22 21 20 19 18 17 17 17 17 17 17 17 18 18 19 20 26 27 28 26 25 26 27 28 30 31 32 37 37 38 37 38 39 40 43 46 48 48 48 49 49 51
20 20 18 16 16 17 17 16 16 17 17 17 18 19 20 19 18 24 27 28 28 26 26 27 28 29 30 30 29 34 35 35 35 35 36 37 39 42 44 47 46 48 47
19 17 17 15 16 16 17 17 17 18 18 19 20 20 20 20 22 24 26 28 28 27 27 28 29 28 28 26 29 32 32 32 33 33 33 34 36 40 42 42 43 44 43
19 18 16 16 16 17 18 19 19 19 19 20 21 21 21 22 23 25 26 28 29 28 28 28 28 26 28 29 29 28 29 28 29 30 31 31 32 33 36 37 38 40 42
19 17 17 17 18 19 19 19 20 20 21 21 22 22 22 23 24 25 26 29 28 28 28 26 26 25 25 25 27 27 28 27 28 28 29 30 31 32 34 35 37 37 40
18 17 18 18 19 19 19 19 20 21 22 22 22 22 23 23 24 24 25 28 28 26 24 23 24 24 25 25 26 26 25 24 25 25 26 27 28 29 30 32 34 35 35
18 18 19 19 19 18 19 19 21 22 22 23 22 23 23 22 24 22 24 27 27 26 25 25 25 24 23 25 26 26 27 26 26 27 26 26 27 27 30 32 34 35 35
19 19 20 19 17 18 18 19 20 21 21 21 21 20 19 20 21 22 24 24 25 25 26 25 24 25 25 26 27 28 28 28 27 26 25 26 27 29 31 33 33 31 32
18 19 17 16 17 17 16 18 18 18 18 19 19 20 21 21 22 22 23 24 25 25 25 26 26 27 28 27 27 27 27 27 24 25 26 26 27 28 29 30 31 32 34
17 16 16 16 17 17 18 18 18 19 19 20 19 19 21 22 22 23 23 23 24 24 25 26 27 29 29 28 28 26 26 24 24 25 24 25 26 27 28 28 29 30 31
16 16 16 17 18 18 18 18 18 19 19 19 20 22 23 22 22 23 22 24 24 25 25 27 30 28 26 26 26 27 26 25 24 23 24 25 25 24 26 27 27 30 30
16 16 16 17 17 18 18 18 19 20 21 21 23 23 21 22 23 24 23 23 23 24 24 26 25 25 25 25 26 26 24 24 24 24 25 25 25 24 24 26 27 29 28
17 17 18 19 18 19 18 19 22 22 22 22 22 23 22 22 22 23 23 23 22 22 23 24 24 25 24 24 25 24 24 24 24 25 25 25 25 24 24 25 29 28 28
18 18 19 20 20 18 19 20 21 22 22 21 21 21 21 21 23 22 22 22 23 22 22 25 26 25 25 25 25 24 23 24 24 24 23 25 23 24 24 23 25 27 28
18 19 21 20 19 19 20 21 21 22 20 20 21 20 20 20 20 19 20 21 18 19 20 20 20 20 21 22 22 22 22 24 23 22 23 23 23 23 23 24 25 26 28
17 19 20 19 20 21 21 21 21 20 20 20 20 21 19 19 19 20 20 17 17 17 18 18 19 20 20 21 21 22 22 23 23 23 23 22 23 23 23 24 26 26 28
19 21 20 20 21 21 20 20 20 20 20 20 21 19 19 19 21 20 18 17 17 16 17 19 22 22 21 21 21 22 23 22 22 22 22 24 25 24 24 25 25 26 27
20 19 19 20 20 20 20 20 19 20 22 21 20 19 18 19 18 17 17 17 17 17 17 17 18 19 20 21 20 20 20 20 20 20 21 23 24 24 25 25 26 27 28
20 19 20 20 20 20 19 19 20 21 20 19 18 18 18 18 17 17 17 17 18 18 18 19 21 20 20 20 21 21 21 21 20 21 22 21 23 24 25 26 26 26 28
20 20 20 20 21 20 18 18 19 19 19 19 19 18 17 17 17 18 18 19 20 21 21 21 21 21 21 21 22 23 22 21 22 23 22 22 23 21 23 25 26 26 28
20 21 20 20 19 18 18 18 19 18 18 17 17 17 17 17 18 19 20 21 21 22 22 22 23 22 21 22 22 23 23 23 23 24 24 22 21 21 24 25 26 27 28
21 21 20 19 18 17 18 18 18 18 17 17 17 17 18 19 19 20 20 21 22 23 22 22 23 23 23 22 22 22 23 23 24 25 25 23 23 23 25 26 26 28 28
21 20 19 17 16 17 17 17 17 17 17 17 17 18 19 19 20 20 21 22 23 24 24 24 25 24 24 23 23 23 24 25 26 27 28 27 26 26 27 27 28 28 27

GFSGL_sfc_30mbdewp_117.txt.gz
Dewpoint
27 25 25 25 25 25 23 22 21 21 21 21 21 22 22 23 29 29 29 30 32 34 35 36 36 37 43 38 39 43 42 43 41 42 45 47 48 47 51 55 59 59 59
28 26 24 24 23 22 20 18 17 17 18 18 19 19 19 20 24 25 26 28 27 27 28 31 31 34 37 35 37 38 39 40 39 38 40 42 44 48 49 50 53 57 58
23 22 21 19 18 17 17 17 17 17 17 17 18 18 19 20 25 26 28 28 29 28 28 29 29 31 30 31 36 36 37 36 37 37 37 40 43 45 47 49 49 50 53
22 21 19 17 16 16 17 17 17 18 18 18 19 20 21 20 23 26 27 28 28 28 28 29 29 29 29 32 30 33 36 36 36 35 35 36 37 39 42 44 43 46 47
20 20 17 16 16 17 17 17 18 19 19 19 20 21 21 20 21 25 27 28 28 27 28 29 28 30 31 27 29 33 32 31 32 33 32 33 33 36 35 37 38 39 42
19 17 17 15 16 17 18 18 19 19 20 20 21 22 22 21 24 26 27 27 28 28 28 28 29 30 28 27 31 30 28 28 29 30 30 30 31 31 33 34 35 35 36
20 18 16 16 17 19 19 20 19 20 21 21 22 22 22 23 26 26 27 28 28 28 28 28 28 26 28 27 29 28 28 26 26 27 27 27 28 29 31 31 31 33 33
19 18 17 18 18 19 19 19 20 21 21 22 22 22 22 22 25 25 26 27 28 28 28 26 25 25 25 27 27 27 27 27 27 27 26 27 29 29 29 29 30 31 33
20 18 18 19 19 20 19 19 20 21 21 21 22 22 22 23 26 25 24 26 27 27 27 25 26 25 26 26 25 26 26 26 28 28 29 29 27 27 28 29 29 30 28
19 19 19 20 19 18 18 18 19 21 21 22 22 22 24 21 24 23 24 25 26 26 26 26 27 26 26 26 26 27 27 27 28 28 28 25 27 27 28 30 31 30 30
19 19 19 19 18 17 18 18 20 19 19 19 20 20 20 22 23 24 24 24 24 25 27 26 26 26 27 27 28 30 28 28 28 29 23 24 26 27 29 29 31 30 27
18 18 18 17 16 17 17 18 18 18 19 19 20 20 20 22 23 23 24 24 24 24 23 24 26 26 26 28 29 29 28 27 27 24 23 24 24 25 26 27 28 28 28
17 16 16 16 17 17 18 18 18 18 19 19 19 20 21 23 23 23 24 24 25 24 24 24 24 25 27 28 27 25 25 26 25 24 23 24 25 25 26 26 26 27 28
16 15 16 16 18 18 18 18 18 18 19 19 20 21 23 23 22 23 24 27 26 25 26 27 28 26 25 25 25 26 26 27 25 24 24 24 25 25 25 24 24 25 26
15 16 16 17 18 18 18 18 19 20 22 22 22 22 23 23 24 24 24 25 24 24 24 26 25 25 24 25 25 25 26 26 24 24 24 24 25 24 25 25 24 24 24
16 16 18 19 19 19 19 19 22 22 23 23 23 23 22 23 23 22 23 21 21 22 22 24 22 24 24 25 25 26 26 25 24 23 24 24 22 23 24 23 24 22 22
17 17 18 20 20 19 19 19 20 21 23 23 22 22 22 22 22 21 21 21 22 21 17 18 19 21 21 21 21 23 22 23 23 23 23 22 21 23 23 22 21 22 22
18 20 20 21 20 19 19 20 21 21 21 20 21 21 22 21 20 20 21 21 18 17 17 18 19 19 19 19 21 21 21 22 21 21 21 21 22 22 21 21 21 21 22
18 17 19 19 19 20 21 21 21 20 20 20 20 21 21 20 20 21 21 19 18 17 17 17 17 18 21 22 21 21 20 20 20 21 21 21 20 20 21 22 22 22 22
17 20 21 20 20 20 21 20 20 20 20 20 21 21 20 19 21 20 18 17 17 17 17 17 18 18 18 18 18 19 20 20 19 19 19 19 20 20 21 22 22 22 23
18 19 21 20 20 20 20 20 20 20 20 22 21 20 19 19 19 17 17 17 17 18 19 19 20 19 19 20 20 19 19 19 19 19 19 19 19 21 21 21 22 23 24
19 20 19 19 20 20 20 20 19 19 19 20 19 19 19 18 18 17 18 18 19 20 21 22 22 21 21 21 21 20 19 19 19 20 20 20 20 20 20 21 21 20 23
20 20 20 20 21 21 20 17 18 19 19 19 19 18 17 18 17 18 18 19 20 21 22 23 23 22 22 23 22 21 20 20 20 21 21 20 20 20 20 19 20 21 22
20 20 20 21 20 20 19 18 18 18 18 18 18 18 18 17 18 19 19 20 21 21 22 23 24 23 23 23 23 23 22 22 22 22 22 21 20 20 20 20 21 22 24
21 20 20 20 20 19 17 17 18 18 18 18 17 17 17 18 18 19 20 20 21 22 23 24 25 25 25 24 23 23 23 24 24 24 23 22 21 21 21 21 22 23 25
20 20 21 19 18 17 16 16 17 18 17 18 17 18 18 18 18 19 20 21 22 23 23 24 26 27 28 27 26 25 26 26 26 26 27 26 25 24 24 24 24 25 26

GFSGL_sfc_30mbdewp_120.txt.gz
Dewpoint
26 25 24 24 24 23 20 18 18 19 19 20 21 22 22 25 28 27 27 29 29 29 33 35 35 37 38 35 39 39 39 41 38 38 39 41 41 42 46 48 49 51 52
27 26 23 22 20 18 17 17 17 17 18 18 19 20 20 22 26 28 28 29 28 28 29 30 31 34 33 33 36 36 37 38 36 34 35 37 38 42 43 41 47 48 49
24 22 20 18 17 16 16 17 17 18 18 19 20 20 20 21 25 27 28 28 28 28 28 29 29 29 29 31 34 33 36 36 36 35 34 36 37 38 39 42 39 42 41
23 22 19 16 16 16 17 17 19 19 19 20 21 21 22 21 23 26 28 28 28 28 29 29 29 29 30 31 30 33 32 31 32 32 33 33 34 35 34 33 32 34 36
22 21 18 16 16 17 18 19 20 20 20 21 21 22 22 21 25 27 27 28 28 27 28 29 29 31 31 27 32 31 29 29 30 30 30 30 30 30 30 31 31 32 32
21 20 18 16 16 18 19 19 19 20 21 21 21 22 22 22 27 28 28 27 27 27 27 28 28 28 28 29 30 29 27 26 27 26 27 27 27 28 29 30 30 29 27
21 19 18 16 17 19 19 19 19 20 21 21 21 22 22 22 26 27 27 27 27 27 27 27 26 26 27 27 29 28 28 27 26 27 26 26 26 27 29 28 28 28 28
21 19 18 18 18 19 19 19 19 20 21 21 21 22 22 23 26 26 26 26 27 27 27 26 25 26 26 27 27 28 27 27 27 27 28 28 28 30 29 28 29 29 29
20 19 18 19 18 19 18 18 19 20 20 21 22 22 22 22 26 25 26 25 25 26 26 27 27 27 28 27 27 27 26 27 28 29 30 31 30 26 28 28 28 27 26
21 20 19 19 19 18 18 18 18 20 20 21 20 21 22 21 25 25 26 25 24 24 25 27 27 26 26 26 27 27 26 27 28 28 29 30 25 26 27 28 29 27 25
21 20 19 19 18 17 18 18 19 19 19 19 20 20 20 22 23 24 25 24 24 24 25 24 25 25 24 25 27 28 31 33 32 29 28 28 24 25 25 26 27 27 25
20 19 18 17 16 17 17 17 18 18 18 19 19 20 20 22 24 24 24 25 25 24 23 24 25 25 26 26 26 28 26 25 27 26 26 24 23 23 24 25 26 27 27
18 17 16 16 16 17 17 18 18 18 18 19 20 20 21 23 23 24 25 26 27 25 25 25 25 26 26 26 27 25 25 25 24 25 25 24 24 24 25 25 26 26 26
16 15 15 16 16 18 18 18 18 18 19 20 21 21 22 23 23 23 24 27 28 26 26 28 27 26 25 24 24 25 26 26 26 26 26 26 25 24 24 25 24 25 24
15 14 15 16 18 18 18 19 19 20 21 22 23 23 23 22 23 24 24 26 25 24 26 28 25 24 23 24 24 25 26 26 26 26 26 23 23 25 24 23 24 23 22
14 15 16 17 19 19 19 18 21 23 23 24 24 23 23 23 23 23 23 23 23 24 23 19 17 18 20 21 21 21 22 23 23 23 23 23 23 23 21 22 23 22 21
14 16 17 20 19 19 19 19 19 21 23 23 22 22 22 22 22 21 21 22 23 20 18 17 18 18 19 20 20 20 20 21 22 22 21 21 20 20 21 21 21 21 20
17 19 18 18 20 20 19 19 21 21 20 20 22 21 22 22 21 21 21 21 18 18 18 17 18 18 18 18 19 21 20 21 20 20 20 19 19 19 19 19 18 19 19
18 18 19 19 20 19 20 21 21 20 20 20 21 21 22 21 21 21 21 19 18 17 17 18 18 18 18 19 19 19 19 19 19 20 20 19 18 18 18 18 18 20 20
18 19 19 19 20 20 20 20 20 20 20 20 20 21 21 20 21 20 18 18 18 18 18 18 19 19 19 19 19 19 19 19 19 18 18 17 17 17 18 18 19 20 19
17 17 21 22 20 20 20 20 20 20 19 19 21 21 20 20 19 18 18 18 18 18 19 20 20 21 21 21 20 20 19 19 18 18 18 18 18 17 18 19 20 18 19
18 18 19 20 19 20 20 20 21 19 18 19 20 19 19 18 18 18 18 18 19 19 20 22 22 22 22 22 22 21 20 19 19 19 19 19 19 18 18 19 19 19 19
18 19 20 20 20 21 22 20 18 18 19 19 19 19 18 18 18 18 18 19 19 20 21 22 22 22 22 23 24 23 21 20 20 20 20 19 19 19 19 19 18 18 18
19 19 20 20 20 21 20 19 18 18 18 18 18 18 18 18 17 18 18 19 20 21 21 22 23 23 24 24 25 25 24 23 23 22 21 20 19 19 19 19 19 19 20
21 20 20 20 20 20 20 19 17 17 18 19 18 18 17 17 18 18 18 19 20 21 22 23 24 24 25 26 27 27 27 26 26 24 22 21 20 20 20 20 20 20 20
22 21 21 21 20 19 19 17 16 17 17 18 18 18 18 18 18 18 18 19 21 21 21 23 24 27 28 29 31 31 31 31 29 29 28 26 23 23 22 22 22 22 22

GFSGL_sfc_30mbdewp_123.txt.gz
Dewpoint
28 25 24 22 21 18 17 17 17 18 19 20 21 21 21 27 28 29 27 29 28 30 31 33 35 36 34 34 39 37 37 39 38 38 37 37 36 38 39 40 43 44 47
26 27 23 20 18 16 16 16 18 18 19 19 20 21 21 24 27 28 28 27 28 28 29 30 29 29 30 33 37 33 35 37 36 33 34 35 36 37 38 38 37 38 39
25 23 21 18 16 16 16 17 18 19 19 20 21 21 21 21 25 27 28 28 27 28 29 29 29 28 29 31 31 34 32 32 34 34 32 34 34 35 32 33 32 33 33
26 23 21 17 16 16 17 18 19 20 20 20 21 22 22 22 24 27 28 28 27 27 28 28 28 29 31 28 32 31 30 28 30 30 30 31 31 31 30 29 29 30 30
24 22 21 17 16 17 18 19 20 20 20 21 22 22 22 22 25 28 28 27 27 27 27 28 28 29 30 30 31 30 28 27 27 27 26 27 27 27 28 28 29 29 28
23 22 21 17 16 17 18 19 19 19 21 21 21 22 21 22 28 28 28 27 26 26 26 27 27 26 28 27 30 30 28 26 25 26 26 26 26 26 28 29 28 27 25
22 21 19 17 17 18 19 19 18 19 20 20 21 22 21 22 27 27 27 27 26 27 27 27 26 26 28 27 28 29 29 29 28 27 26 26 26 27 28 28 27 28 27
22 21 19 17 18 19 19 18 17 19 20 20 21 22 22 23 27 26 28 26 26 26 26 26 26 26 28 28 28 27 28 28 27 27 27 28 29 29 29 28 28 29 28
23 21 20 19 18 18 18 17 18 19 20 20 21 21 21 22 26 26 27 25 24 24 25 26 28 26 27 27 26 26 27 27 28 29 30 30 31 31 27 27 24 26 23
23 22 20 20 19 18 17 17 18 19 20 20 20 21 22 21 25 25 26 25 24 24 25 27 26 24 24 25 25 26 28 29 29 30 31 30 30 27 27 26 26 25 25
23 22 20 20 19 18 17 18 17 18 19 18 19 20 20 21 24 25 25 25 24 24 24 24 24 25 25 26 26 27 27 28 29 30 30 29 28 26 25 25 26 25 24
22 20 19 19 17 17 17 17 18 18 17 18 19 19 20 21 24 25 25 26 25 25 25 25 25 26 26 25 25 26 25 25 26 25 25 24 24 24 24 24 25 25 26
20 19 18 16 16 16 16 17 17 18 18 18 19 20 21 22 23 25 25 26 27 26 26 25 25 25 26 26 25 24 23 25 24 24 24 25 25 25 25 24 25 25 25
18 17 16 15 15 16 18 18 18 18 18 19 20 22 22 23 23 24 24 25 27 27 26 25 27 26 23 21 21 24 25 26 26 26 26 27 27 24 23 24 24 23 23
17 15 14 15 18 18 18 18 18 19 20 20 22 23 23 23 23 24 23 24 24 24 25 27 22 19 18 19 21 23 24 25 25 25 24 23 22 21 22 24 23 22 21
15 14 14 15 17 18 18 18 21 23 24 24 24 24 23 23 23 23 23 22 23 25 24 19 18 18 18 19 20 21 21 20 21 22 22 22 21 21 21 21 21 21 20
15 15 15 18 18 18 19 19 17 19 23 24 23 22 23 23 23 23 22 22 24 22 18 18 18 18 18 19 19 19 19 20 21 21 21 20 19 18 19 19 20 19 18
16 17 16 18 19 19 20 19 19 20 20 20 21 22 22 22 22 22 22 22 20 18 18 18 18 18 18 19 19 19 19 20 20 20 19 18 17 18 18 17 17 17 17
17 17 20 18 19 20 20 20 21 21 20 20 20 21 21 22 22 22 22 20 18 18 18 18 18 19 19 19 19 20 19 19 19 19 19 18 18 17 16 16 17 17 18
18 18 19 19 19 21 21 21 20 20 20 20 19 19 21 21 21 22 19 18 18 18 18 18 19 20 21 21 21 20 20 19 19 18 18 18 17 16 15 16 17 16 16
20 19 21 20 19 21 20 20 20 20 20 20 19 20 20 20 20 18 18 18 18 18 19 20 20 21 21 22 22 21 20 20 19 19 19 18 18 16 16 17 17 17 18
19 18 18 21 22 21 20 20 20 20 20 18 18 19 20 19 18 18 18 18 18 19 20 21 21 22 22 22 22 21 21 20 20 20 19 18 18 18 17 17 17 17 18
20 19 18 19 20 20 20 21 21 19 18 18 18 19 19 18 18 18 18 18 19 20 20 21 22 22 22 23 24 24 22 22 22 23 21 19 18 18 18 17 17 17 17
20 19 19 19 20 20 20 21 20 20 19 18 18 18 18 18 18 18 18 18 19 19 20 21 22 23 23 24 25 26 26 26 26 25 23 21 19 19 19 19 19 19 18
20 19 19 20 20 20 21 21 20 19 17 17 18 18 18 18 18 17 17 18 18 19 20 21 22 23 24 25 27 28 29 31 31 30 25 22 21 20 19 19 19 19 19
22 20 20 21 20 20 20 19 19 18 16 17 17 17 18 17 17 17 17 18 18 19 19 21 22 23 25 27 28 29 31 32 32 32 31 25 22 20 20 20 20 20 20